[[{"header":{"parameterUnit":"m.s-1","parameterCategory":1,"la1":30.6,"la2":28.766,"lo1":-90.7593,"lo2":-88.6598,"dy":0.0162,"dx":0.0183,"nx":116,"ny":114,"refTime":"2023-10-06T06:00:00:Z","depth":0,"parameterNumber":2,"parameterNumberName":"U-component_of_WINDS"},"data":[0.0,0.0,0.0,0.0,0.0,0.0,0.0,0.0,0.0,0.0,0.0,0.0,0.0,0.0,0.0,0.0,0.0,0.0,0.0,0.0,0.0,0.0,0.0,0.0,0.0,0.0,0.0,0.0,0.0,0.0,0.0,0.0,0.0,0.0,0.0,0.0,0.0,0.0,0.0,0.0,0.0,0.0,0.0,0.0,0.0,0.0,0.0,0.0,0.0,0.0,0.0,0.0,0.0,0.0,0.0,0.0,0.0,0.0,0.0,0.0,0.0,0.0,0.0,0.0,0.0,0.0,0.0,0.0,0.0,0.0,0.0,0.0,0.0,0.0,0.0,0.0,0.0,0.0,0.0,0.0,0.0,0.0,0.0,0.0,0.0,0.0,0.0,0.0,0.0,0.0,0.0,0.0,0.0,0.0,0.0,0.0,0.0,0.0,0.0,0.0,0.0,0.0,0.0,0.0,0.0,0.0,0.0,0.0,0.0,0.0,0.0,0.0,0.0,0.0,0.0,0.0,0.0,0.0,0.0,0.0,0.0,0.0,0.0,0.0,0.0,0.0,0.0,0.0,0.0,0.0,0.0,0.0,0.0,0.0,0.0,0.0,0.0,0.0,0.0,0.0,0.0,0.0,0.0,0.0,0.0,0.0,0.0,0.0,0.0,0.0,0.0,0.0,0.0,0.0,0.0,0.0,0.0,0.0,0.0,0.0,0.0,0.0,0.0,0.0,0.0,0.0,0.0,0.0,0.0,0.0,0.0,0.0,0.0,0.0,0.0,0.0,0.0,0.0,0.0,0.0,0.0,0.0,0.0,0.0,0.0,0.0,0.0,0.0,0.0,0.0,0.0,0.0,0.0,0.0,0.0,0.0,0.0,0.0,0.0,0.0,0.0,0.0,0.0,0.0,0.0,0.0,0.0,0.0,0.0,0.0,0.0,0.0,0.0,0.0,0.0,0.0,0.0,0.0,0.0,0.0,0.0,0.0,0.0,0.0,0.0,0.0,0.0,0.0,0.0,0.0,0.0,0.0,0.0,0.0,0.0,0.0,0.0,0.0,0.0,0.0,0.0,0.0,0.0,0.0,0.0,0.0,0.0,0.0,0.0,0.0,0.0,0.0,0.0,0.0,0.0,0.0,0.0,0.0,0.0,0.0,0.0,0.0,0.0,0.0,0.0,0.0,0.0,0.0,0.0,0.0,0.0,0.0,0.0,0.0,0.0,0.0,0.0,0.0,0.0,0.0,0.0,0.0,0.0,0.0,0.0,0.0,0.0,0.0,0.0,0.0,0.0,0.0,0.0,0.0,0.0,0.0,0.0,0.0,0.0,0.0,0.0,0.0,0.0,0.0,0.0,0.0,0.0,0.0,0.0,0.0,0.0,0.0,0.0,0.0,0.0,0.0,0.0,0.0,0.0,0.0,0.0,0.0,0.0,0.0,0.0,0.0,0.0,0.0,0.0,0.0,0.0,0.0,0.0,0.0,0.0,0.0,0.0,0.0,0.0,0.0,0.0,0.0,0.0,0.0,0.0,0.0,0.0,0.0,0.0,0.0,0.0,0.0,0.0,0.0,0.0,0.0,0.0,0.0,0.0,0.0,0.0,0.0,0.0,0.0,0.0,0.0,0.0,0.0,0.0,0.0,0.0,0.0,0.0,0.0,0.0,0.0,0.0,0.0,0.0,0.0,0.0,0.0,0.0,0.0,0.0,0.0,0.0,0.0,0.0,0.0,0.0,0.0,0.0,0.0,0.0,0.0,0.0,0.0,0.0,0.0,0.0,0.0,0.0,0.0,0.0,0.0,0.0,0.0,0.0,0.0,0.0,0.0,0.0,0.0,0.0,0.0,0.0,0.0,0.0,0.0,0.0,0.0,0.0,0.0,0.0,0.0,0.0,0.0,0.0,0.0,0.0,0.0,0.0,0.0,0.0,0.0,0.0,0.0,0.0,0.0,0.0,0.0,0.0,0.0,0.0,0.0,0.0,0.0,0.0,0.0,0.0,0.0,0.0,0.0,0.0,0.0,0.0,0.0,0.0,0.0,0.0,0.0,0.0,0.0,0.0,0.0,0.0,0.0,0.0,0.0,0.0,0.0,0.0,0.0,0.0,0.0,0.0,0.0,0.0,0.0,0.0,0.0,0.0,0.0,0.0,0.0,0.0,0.0,0.0,0.0,0.0,0.0,0.0,0.0,0.0,0.0,0.0,0.0,0.0,0.0,0.0,0.0,0.0,0.0,0.0,0.0,0.0,0.0,0.0,0.0,0.0,0.0,0.0,0.0,0.0,0.0,0.0,0.0,0.0,0.0,0.0,0.0,0.0,0.0,0.0,0.0,0.0,0.0,0.0,0.0,0.0,0.0,0.0,0.0,0.0,0.0,0.0,0.0,0.0,0.0,0.0,0.0,0.0,0.0,0.0,0.0,0.0,0.0,0.0,0.0,0.0,0.0,0.0,0.0,0.0,0.0,0.0,0.0,0.0,0.0,0.0,0.0,0.0,0.0,0.0,0.0,0.0,0.0,0.0,0.0,0.0,0.0,0.0,0.0,0.0,0.0,0.0,0.0,0.0,0.0,0.0,0.0,0.0,0.0,0.0,0.0,0.0,0.0,0.0,0.0,0.0,0.0,0.0,0.0,0.0,0.0,0.0,0.0,0.0,0.0,0.0,0.0,0.0,0.0,0.0,0.0,0.0,0.0,0.0,0.0,0.0,0.0,0.0,0.0,0.0,0.0,0.0,0.0,0.0,0.0,0.0,0.0,0.0,0.0,0.0,0.0,0.0,0.0,0.0,0.0,0.0,0.0,0.0,0.0,0.0,0.0,0.0,0.0,0.0,0.0,0.0,0.0,0.0,0.0,0.0,0.0,0.0,0.0,0.0,0.0,0.0,0.0,0.0,0.0,0.0,0.0,0.0,0.0,0.0,0.0,0.0,0.0,0.0,0.0,0.0,0.0,0.0,0.0,0.0,0.0,0.0,0.0,0.0,0.0,0.0,0.0,0.0,0.0,0.0,0.0,0.0,0.0,0.0,0.0,0.0,0.0,0.0,0.0,0.0,0.0,0.0,0.0,0.0,0.0,0.0,0.0,0.0,0.0,0.0,0.0,0.0,0.0,0.0,0.0,0.0,0.0,0.0,0.0,0.0,0.0,0.0,0.0,0.0,0.0,0.0,0.0,0.0,0.0,0.0,0.0,0.0,0.0,0.0,0.0,0.0,0.0,0.0,0.0,0.0,0.0,0.0,0.0,0.0,0.0,0.0,0.0,0.0,0.0,0.0,0.0,0.0,0.0,0.0,0.0,0.0,0.0,0.0,0.0,0.0,0.0,0.0,0.0,0.0,0.0,0.0,0.0,0.0,0.0,0.0,0.0,0.0,0.0,0.0,0.0,0.0,0.0,0.0,0.0,0.0,0.0,0.0,0.0,0.0,0.0,0.0,0.0,0.0,0.0,0.0,0.0,0.0,0.0,0.0,0.0,0.0,0.0,0.0,0.0,0.0,0.0,0.0,0.0,0.0,0.0,0.0,0.0,0.0,0.0,0.0,0.0,0.0,0.0,0.0,0.0,0.0,0.0,0.0,0.0,0.0,0.0,0.0,0.0,0.0,0.0,0.0,0.0,0.0,0.0,0.0,0.0,0.0,0.0,0.0,0.0,0.0,0.0,0.0,0.0,0.0,0.0,0.0,0.0,0.0,0.0,0.0,0.0,0.0,0.0,0.0,0.0,0.0,0.0,0.0,0.0,0.0,0.0,0.0,0.0,0.0,0.0,0.0,0.0,0.0,0.0,0.0,0.0,0.0,0.0,0.0,0.0,0.0,0.0,0.0,0.0,0.0,0.0,0.0,0.0,0.0,0.0,0.0,0.0,0.0,0.0,0.0,0.0,0.0,0.0,0.0,0.0,0.0,0.0,0.0,0.0,0.0,0.0,0.0,0.0,0.0,0.0,0.0,0.0,0.0,0.0,0.0,0.0,0.0,0.0,0.0,0.0,0.0,0.0,0.0,0.0,0.0,0.0,0.0,0.0,0.0,0.0,0.0,0.0,0.0,0.0,0.0,0.0,0.0,0.0,0.0,0.0,0.0,0.0,0.0,0.0,0.0,0.0,0.0,0.0,0.0,0.0,0.0,0.0,0.0,0.0,0.0,0.0,0.0,0.0,0.0,0.0,0.0,0.0,0.0,0.0,0.0,0.0,0.0,0.0,0.0,0.0,0.0,0.0,0.0,0.0,0.0,0.0,0.0,0.0,0.0,0.0,0.0,0.0,0.0,0.0,0.0,0.0,0.0,0.0,0.0,0.0,0.0,0.0,0.0,0.0,0.0,0.0,0.0,0.0,0.0,0.0,0.0,0.0,0.0,0.0,0.0,0.0,0.0,0.0,0.0,0.0,0.0,0.0,0.0,0.0,0.0,0.0,0.0,0.0,0.0,0.0,0.0,0.0,0.0,0.0,0.0,0.0,0.0,0.0,0.0,0.0,0.0,0.0,0.0,0.0,0.0,0.0,0.0,0.0,0.0,0.0,0.0,0.0,0.0,0.0,0.0,0.0,0.0,0.0,0.0,0.0,0.0,0.0,0.0,0.0,0.0,0.0,0.0,0.0,0.0,0.0,0.0,0.0,0.0,0.0,0.0,0.0,0.0,0.0,0.0,0.0,0.0,0.0,0.0,0.0,0.0,0.0,0.0,0.0,0.0,0.0,0.0,0.0,0.0,0.0,0.0,0.0,0.0,0.0,0.0,0.0,0.0,0.0,0.0,0.0,0.0,0.0,0.0,0.0,0.0,0.0,0.0,0.0,0.0,0.0,0.0,0.0,0.0,0.0,0.0,0.0,0.0,0.0,0.0,0.0,0.0,0.0,0.0,0.0,0.0,0.0,0.0,0.0,0.0,0.0,0.0,0.0,0.0,0.0,0.0,0.0,0.0,0.0,0.0,0.0,0.0,0.0,0.0,0.0,0.0,0.0,0.0,0.0,0.0,0.0,0.0,0.0,0.0,0.0,0.0,0.0,0.0,0.0,0.0,0.0,0.0,0.0,0.0,0.0,0.0,0.0,0.0,0.0,0.0,0.0,0.0,0.0,0.0,0.0,0.0,0.0,0.0,0.0,0.0,0.0,0.0,0.0,0.0,0.0,0.0,0.0,0.0,0.0,0.0,0.0,0.0,0.0,0.0,0.0,0.0,0.0,0.0,0.0,0.0,0.0,0.0,0.0,0.0,0.0,0.0,0.0,0.0,0.0,0.0,0.0,0.0,0.0,0.0,0.0,0.0,0.0,0.0,0.0,0.0,0.0,0.0,0.0,0.0,0.0,0.0,0.0,0.0,0.0,0.0,0.0,0.0,0.0,0.0,0.0,0.0,0.0,0.0,0.0,0.0,0.0,0.0,0.0,0.0,0.0,0.0,0.0,0.0,0.0,0.0,0.0,0.0,0.0,0.0,0.0,0.0,0.0,0.0,0.0,0.0,0.0,0.0,0.0,0.0,0.0,0.0,0.0,0.0,0.0,0.0,0.0,0.0,0.0,0.0,0.0,0.0,0.0,0.0,0.0,0.0,0.0,0.0,0.0,0.0,0.0,0.0,0.0,0.0,0.0,0.0,0.0,0.0,0.0,0.0,0.0,0.0,0.0,0.0,0.0,0.0,0.0,0.0,0.0,0.0,0.0,0.0,0.0,0.0,0.0,0.0,0.0,0.0,0.0,0.0,0.0,0.0,0.0,0.0,0.0,0.0,0.0,0.0,0.0,0.0,0.0,0.0,0.0,0.0,0.0,0.0,0.0,0.0,0.0,0.0,0.0,0.0,0.0,0.0,0.0,0.0,0.0,0.0,0.0,0.0,0.0,0.0,0.0,0.0,0.0,0.0,0.0,0.0,0.0,0.0,0.0,0.0,0.0,0.0,0.0,0.0,0.0,0.0,0.0,0.0,0.0,0.0,0.0,0.0,0.0,0.0,0.0,0.0,0.0,0.0,0.0,0.0,0.0,0.0,0.0,0.0,0.0,0.0,0.0,0.0,0.0,0.0,0.0,0.0,0.0,0.0,0.0,0.0,0.0,0.0,0.0,0.0,0.0,0.0,0.0,0.0,0.0,0.0,0.0,0.0,0.0,0.0,0.0,5.5742,5.6088,0.0,0.0,0.0,0.0,0.0,0.0,0.0,0.0,0.0,0.0,0.0,0.0,0.0,0.0,0.0,0.0,0.0,0.0,0.0,0.0,0.0,0.0,0.0,0.0,0.0,0.0,0.0,0.0,0.0,0.0,0.0,0.0,0.0,0.0,0.0,0.0,0.0,0.0,6.5624,6.5417,6.513,6.6809,6.7477,6.7399,0.0,0.0,0.0,0.0,0.0,0.0,0.0,0.0,0.0,0.0,0.0,0.0,0.0,0.0,0.0,0.0,0.0,0.0,0.0,0.0,0.0,0.0,0.0,0.0,0.0,0.0,0.0,0.0,0.0,0.0,0.0,0.0,0.0,0.0,0.0,0.0,0.0,0.0,0.0,0.0,0.0,0.0,0.0,0.0,0.0,0.0,0.0,0.0,0.0,0.0,0.0,0.0,0.0,0.0,0.0,0.0,0.0,0.0,0.0,0.0,0.0,0.0,0.0,0.0,0.0,0.0,0.0,0.0,0.0,0.0,5.9896,5.8204,0.0,0.0,0.0,0.0,0.0,0.0,0.0,0.0,0.0,0.0,0.0,0.0,0.0,0.0,0.0,0.0,0.0,0.0,0.0,0.0,0.0,0.0,0.0,6.432,6.482,6.6898,6.8052,6.8513,0.0,0.0,0.0,0.0,0.0,0.0,0.0,6.6898,6.7141,6.678,6.5605,6.5255,6.5653,6.8069,6.8527,6.7574,7.0682,0.0,0.0,0.0,0.0,0.0,0.0,0.0,0.0,0.0,0.0,0.0,0.0,0.0,0.0,0.0,0.0,0.0,0.0,0.0,0.0,0.0,0.0,0.0,0.0,0.0,0.0,0.0,0.0,0.0,0.0,0.0,0.0,0.0,0.0,0.0,0.0,0.0,0.0,0.0,0.0,0.0,0.0,0.0,0.0,0.0,0.0,0.0,0.0,0.0,0.0,0.0,0.0,0.0,0.0,0.0,0.0,0.0,0.0,0.0,0.0,0.0,0.0,0.0,6.7744,6.9244,7.1091,7.0591,6.9975,6.9129,6.6474,6.2627,5.8511,6.105,0.0,0.0,0.0,0.0,0.0,0.0,0.0,0.0,0.0,0.0,0.0,0.0,0.0,0.0,0.0,0.0,0.0,0.0,0.0,0.0,0.0,6.6244,6.6744,6.7051,6.859,6.8898,6.7359,0.0,0.0,0.0,0.0,0.0,6.6936,6.7782,6.7341,6.5452,6.4807,6.4898,6.5614,6.7388,6.786,6.7307,6.9039,6.8583,6.6486,0.0,0.0,0.0,0.0,0.0,0.0,0.0,0.0,0.0,0.0,0.0,0.0,0.0,0.0,0.0,0.0,0.0,0.0,0.0,0.0,0.0,0.0,0.0,0.0,0.0,0.0,0.0,0.0,0.0,0.0,0.0,0.0,0.0,0.0,0.0,0.0,0.0,0.0,0.0,0.0,0.0,5.5395,5.5511,0.0,0.0,0.0,0.0,0.0,0.0,0.0,0.0,0.0,0.0,0.0,0.0,0.0,6.6167,6.8513,7.0206,7.0744,7.0244,7.1898,7.2437,7.2052,7.2706,7.2937,7.286,7.3091,0.0,6.3512,6.2512,0.0,0.0,0.0,0.0,0.0,0.0,0.0,0.0,0.0,0.0,0.0,0.0,0.0,0.0,0.0,0.0,0.0,0.0,0.0,0.0,0.0,6.5359,6.5551,6.6974,6.7359,6.7628,6.7821,6.7744,0.0,0.0,0.0,6.6628,6.709,6.6748,6.5862,6.4332,6.5038,6.5603,6.6138,6.729,6.7703,6.7516,6.816,6.816,6.7603,6.6236,0.0,0.0,0.0,0.0,0.0,0.0,0.0,0.0,0.0,0.0,0.0,0.0,0.0,0.0,0.0,0.0,0.0,0.0,0.0,0.0,0.0,0.0,0.0,0.0,0.0,0.0,0.0,0.0,0.0,0.0,0.0,0.0,0.0,0.0,0.0,0.0,0.0,0.0,0.0,5.6496,5.8284,5.6894,6.0108,6.16,0.0,0.0,0.0,0.0,0.0,0.0,0.0,0.0,0.0,6.8189,6.8773,6.9775,7.137,7.3498,7.4866,7.5474,7.7566,7.8856,7.9504,8.0235,8.0592,8.0592,8.0477,7.7669,7.2822,6.8744,6.5705,6.3512,0.0,0.0,0.0,0.0,6.1897,6.3089,0.0,0.0,0.0,0.0,0.0,0.0,0.0,0.0,0.0,0.0,0.0,0.0,6.5397,6.4782,6.4936,6.6628,6.6628,6.7051,6.8321,6.7398,6.7552,6.9283,6.7321,6.6499,6.7226,6.583,6.4823,6.4314,6.5357,6.6211,6.6806,6.7614,6.8091,6.8311,6.8311,6.8201,6.7871,6.6072,6.5521,6.5742,0.0,0.0,0.0,0.0,0.0,0.0,0.0,0.0,0.0,0.0,0.0,0.0,0.0,0.0,0.0,0.0,0.0,0.0,0.0,0.0,0.0,0.0,0.0,0.0,0.0,0.0,0.0,0.0,0.0,0.0,0.0,0.0,0.0,0.0,0.0,0.0,0.0,5.8486,6.0365,5.8072,6.1368,6.2895,0.0,0.0,0.0,0.0,0.0,0.0,6.6397,6.7324,6.9424,7.3001,7.3506,7.444,7.5859,7.7936,7.9752,8.1268,8.2998,8.4719,8.6375,8.693,8.6995,8.6748,8.6132,8.417,8.0939,7.4976,7.0552,6.7359,6.5859,6.4743,6.4128,6.4705,6.5359,6.6167,0.0,0.0,0.0,0.0,0.0,0.0,0.0,0.0,0.0,0.0,0.0,6.2781,6.4474,6.6013,6.6628,6.6013,6.7398,6.8321,6.8398,6.6859,6.6705,6.8398,6.7552,6.7198,6.7572,6.5758,6.5165,6.5986,6.5546,6.6161,6.765,6.8458,6.9265,6.9963,6.9963,6.8311,6.5485,6.5375,6.4897,6.4347,6.5742,0.0,0.0,0.0,0.0,0.0,0.0,0.0,0.0,0.0,0.0,0.0,0.0,0.0,0.0,0.0,0.0,0.0,0.0,0.0,0.0,0.0,0.0,0.0,0.0,0.0,0.0,0.0,0.0,0.0,0.0,0.0,0.0,0.0,0.0,0.0,0.0,0.0,0.0,5.8843,6.1943,0.0,0.0,0.0,0.0,6.5372,6.709,6.9129,7.1668,7.1985,7.3992,7.8178,7.9252,8.1294,8.4543,8.5522,8.644,8.7268,8.7396,8.8242,8.9844,8.9888,8.9416,8.8556,8.8517,8.7478,8.5324,7.94,7.4976,7.1783,7.086,7.0014,6.9321,6.936,6.9398,6.9475,0.0,0.0,0.0,0.0,0.0,0.0,0.0,0.0,6.2166,6.3589,6.3243,6.3705,6.5974,6.5782,6.582,6.659,6.6244,6.5936,6.5936,6.5397,6.6051,6.8321,6.7228,6.6074,6.5081,6.4369,6.4522,6.5583,6.6397,6.7944,7.0036,7.033,7.0624,7.0844,7.033,6.9192,6.754,6.6512,6.6219,6.6329,6.5338,6.5521,0.0,0.0,0.0,0.0,0.0,0.0,0.0,0.0,0.0,0.0,0.0,0.0,0.0,0.0,0.0,0.0,0.0,0.0,0.0,0.0,0.0,0.0,0.0,0.0,0.0,0.0,0.0,0.0,0.0,0.0,0.0,0.0,0.0,0.0,0.0,0.0,0.0,6.5703,6.8705,0.0,6.761,6.6861,6.7311,6.9228,7.0381,7.2826,7.6991,7.747,7.9528,8.3704,8.4339,8.5423,8.709,8.7942,8.8498,8.8822,8.9248,8.9777,9.0418,9.1263,9.1539,9.1215,9.1143,9.0171,8.8252,8.4667,8.0754,7.6823,7.4322,7.2514,7.136,7.1937,7.2476,7.3091,0.0,0.0,0.0,0.0,0.0,0.0,0.0,0.0,6.1858,6.2397,6.2974,6.4051,6.6051,6.6112,6.6364,6.7208,6.5829,6.5168,6.5703,6.4709,6.5321,6.8151,6.6961,6.5348,6.3631,6.4522,6.5386,6.6109,6.7724,6.9486,7.1321,7.1321,7.1468,7.1688,7.1138,7.0477,6.9633,6.8568,6.7797,6.7173,6.5852,6.5925,6.6659,0.0,0.0,0.0,0.0,0.0,0.0,0.0,0.0,0.0,0.0,0.0,0.0,0.0,0.0,0.0,0.0,0.0,0.0,0.0,0.0,0.0,0.0,0.0,0.0,0.0,0.0,0.0,0.0,0.0,0.0,0.0,0.0,0.0,0.0,6.7391,7.0796,7.1206,7.3956,7.4828,7.2258,7.1419,7.1857,7.3759,7.5122,7.7813,8.233,8.2848,8.454,8.7836,8.8102,8.861,8.9417,8.9931,9.0225,9.0225,9.0741,9.1066,9.1385,9.2295,9.2721,9.2699,9.2554,9.1565,8.9873,8.7722,8.4782,8.1383,7.8156,7.6076,7.4957,7.5763,7.6207,7.6592,0.0,0.0,0.0,0.0,0.0,0.0,0.0,6.0819,6.0819,6.0781,6.232,6.3743,6.4603,6.7156,6.8502,6.7774,6.6406,6.6255,6.7801,6.4898,6.4558,6.7801,6.6662,6.5225,6.3773,6.6307,6.7724,6.7834,6.9449,7.0624,7.1431,7.1431,7.1835,7.2569,7.2569,7.2092,7.1394,7.1358,6.9559,6.6733,6.743,6.6769,6.5558,0.0,0.0,0.0,0.0,0.0,0.0,0.0,0.0,0.0,0.0,0.0,0.0,0.0,0.0,0.0,0.0,0.0,0.0,0.0,0.0,0.0,0.0,0.0,0.0,0.0,0.0,0.0,0.0,0.0,0.0,0.0,0.0,0.0,6.3964,7.1278,7.6166,7.4874,7.7186,7.7805,7.5011,7.5506,7.6901,7.9102,8.1482,8.4266,8.7592,8.7898,8.8741,9.044,9.061,9.1069,9.1877,9.184,9.184,9.184,9.1803,9.2229,9.2923,9.2987,9.2937,9.2819,9.2689,9.1767,9.0231,8.8478,8.6822,8.5122,8.239,8.0848,8.0201,8.0822,8.0554,7.9862,0.0,0.0,0.0,0.0,0.0,0.0,6.0781,6.132,6.1512,6.0858,6.3358,6.5575,6.6598,6.8531,6.9733,6.9738,6.7201,6.5765,6.6141,6.4257,6.414,6.6425,6.5142,6.5051,6.6515,6.7316,6.8825,7.1174,7.2202,7.312,7.3927,7.3927,7.4037,7.4221,7.3634,7.323,7.301,7.2422,7.1651,7.066,6.8531,6.743,6.6953,0.0,0.0,0.0,0.0,0.0,0.0,0.0,0.0,0.0,0.0,0.0,0.0,0.0,0.0,0.0,0.0,0.0,0.0,0.0,0.0,0.0,0.0,0.0,0.0,0.0,0.0,0.0,0.0,0.0,0.0,0.0,6.8164,7.1864,7.2071,7.6244,7.9928,8.1586,8.3464,8.4162,8.2812,8.2779,8.3338,8.4591,8.5786,8.7428,8.9519,8.9765,9.0652,9.231,9.2426,9.2794,9.3602,9.3015,9.2758,9.2721,9.2097,9.1912,9.2159,9.2765,9.2965,9.2952,9.3498,9.2753,9.1159,8.9516,8.7548,8.5302,8.2632,8.1355,8.0886,8.0544,8.0562,8.0746,0.0,0.0,0.0,0.0,0.0,0.0,6.0781,6.1243,6.1127,5.9896,6.3744,6.6536,6.6483,6.9134,7.0592,6.9766,6.7404,6.5807,6.5471,6.4874,6.4741,6.5197,6.5308,6.6223,6.8164,6.9192,7.077,7.301,7.3817,7.4441,7.4918,7.4918,7.4918,7.4918,7.4771,7.4515,7.4184,7.4074,7.3634,7.2826,7.0954,6.9596,6.8568,6.7283,6.6329,6.5485,6.464,6.3613,6.2658,6.2768,0.0,0.0,0.0,0.0,0.0,0.0,0.0,0.0,0.0,0.0,0.0,0.0,0.0,0.0,0.0,0.0,0.0,0.0,0.0,0.0,0.0,0.0,0.0,0.0,7.3556,7.8237,8.1147,8.2742,8.4176,8.5888,8.7545,8.8059,8.6921,8.6996,8.7332,8.7878,8.8885,9.0106,9.1438,9.1944,9.2611,9.3565,9.3602,9.3822,9.4299,9.3822,9.3418,9.3088,9.2574,9.2134,9.1803,9.2262,9.2535,9.2498,9.2952,9.2174,9.0564,8.9323,8.7551,8.5448,0.0,0.0,0.0,0.0,8.0805,8.1093,0.0,0.0,0.0,0.0,0.0,0.0,6.0781,6.0781,6.0204,5.8466,6.3571,6.6645,6.4795,6.8865,7.0772,6.8464,6.6985,6.5925,6.5228,6.5815,6.5705,6.4567,6.6623,6.8348,6.9412,7.1651,7.3193,7.4111,7.4918,7.5322,7.5322,7.5432,7.5506,7.5616,7.635,7.6313,7.5763,7.6497,7.5946,7.4625,7.4441,7.2716,7.0146,6.9449,6.8605,6.7724,6.6916,6.5668,6.4237,6.3503,0.0,0.0,0.0,0.0,0.0,0.0,0.0,0.0,0.0,0.0,0.0,0.0,0.0,0.0,0.0,0.0,0.0,0.0,0.0,0.0,0.0,0.0,0.0,0.0,7.9266,8.3544,8.9739,8.9655,8.8914,8.9011,9.0188,9.0482,8.9014,8.9528,8.9968,8.9968,9.1289,9.2427,9.3198,9.3896,0.0,0.0,0.0,9.4556,9.4556,9.4556,9.4153,9.3382,9.3272,9.2831,9.206,9.1987,9.195,9.195,9.1795,9.0846,8.9488,8.871,8.7433,8.5741,8.384,8.2536,8.1699,8.142,8.1228,8.1106,0.0,0.0,0.0,0.0,0.0,0.0,6.0781,6.0781,6.0032,5.8016,6.2879,6.5338,6.2211,6.6262,6.8543,6.6994,6.5478,6.4494,6.4347,6.4457,6.5264,6.6916,6.8054,6.9963,7.2716,7.3854,7.5175,7.6607,7.7451,7.7892,7.7892,7.8552,7.9213,7.9837,7.9984,8.0314,8.0791,8.0938,8.0828,8.0424,7.914,7.5579,7.1064,7.0917,6.9926,6.8568,6.776,6.6843,6.5999,6.5852,6.4714,6.3503,6.4163,6.2989,0.0,0.0,0.0,0.0,0.0,0.0,0.0,0.0,0.0,0.0,0.0,0.0,0.0,0.0,0.0,0.0,0.0,0.0,0.0,7.7924,8.352,8.8572,9.2055,9.397,9.4742,9.4153,9.3786,9.3455,9.3161,9.3272,9.3345,9.3345,9.3639,9.3896,9.4042,9.4226,9.4593,9.5217,9.5878,9.6245,9.6245,9.6245,9.5841,9.5034,9.4373,0.0,9.3786,9.3125,9.2868,9.2794,9.213,9.1213,9.0335,9.0217,8.8787,8.6513,8.4063,8.2201,8.0953,8.1192,8.1308,8.1269,0.0,0.0,0.0,0.0,0.0,0.0,6.0165,6.0512,6.0161,5.8443,6.2672,6.4785,6.2029,6.5504,6.7331,6.5463,6.3796,6.3356,6.4604,6.5081,6.6366,6.8788,7.0844,7.3046,7.5469,7.7121,7.8369,7.9176,7.9984,8.0388,8.0388,8.0791,8.1415,8.2223,8.2627,8.303,8.3434,8.3838,8.3765,8.3287,8.2076,7.991,7.7047,7.4221,7.2349,7.1138,6.9926,6.8715,6.765,6.7247,6.6292,6.5228,6.4824,6.3833,6.2915,0.0,0.0,0.0,0.0,0.0,0.0,0.0,0.0,0.0,0.0,0.0,0.0,0.0,0.0,6.7416,6.9901,0.0,7.9386,8.3997,8.8655,9.286,9.6248,9.775,9.775,9.5768,9.5144,9.474,9.4336,9.4299,9.4299,9.4299,9.5034,9.5511,9.5511,9.6245,9.6906,9.7273,9.7676,9.7897,9.7897,9.7493,9.6906,9.6098,9.529,9.4703,9.4263,9.3455,9.3088,9.3051,9.217,9.1326,9.0592,9.0188,8.883,8.6848,8.5586,8.4002,8.2501,8.2642,8.2352,8.188,0.0,0.0,0.0,0.0,0.0,0.0,0.0,6.0042,5.9984,5.8863,6.2253,6.3934,6.17,6.4598,6.5962,6.4016,6.2475,6.2768,6.5595,6.6512,6.8238,7.1138,7.4221,7.668,7.8479,8.0461,8.1562,8.1709,8.2517,8.2884,8.2884,8.3067,8.3544,8.4389,8.5013,8.538,8.56,8.6224,8.6114,8.5453,8.4682,8.4242,8.3581,7.8662,7.5983,7.4661,7.2863,7.1027,6.9229,6.8421,6.743,6.6292,6.5154,6.4567,6.442,6.4897,6.2732,0.0,0.0,0.0,0.0,0.0,0.0,0.0,0.0,0.0,6.5436,6.5774,6.8908,7.2838,7.6705,8.0433,8.4719,9.0008,9.3268,9.6465,9.9989,10.0686,9.9769,9.6979,9.6539,9.6061,9.507,9.5144,9.518,9.4997,9.6355,9.7163,9.7163,9.8411,9.9181,9.9328,9.9475,9.9512,9.9328,9.8851,9.8043,9.6942,9.6282,9.5547,9.474,9.3786,9.3345,9.3272,9.2244,9.1436,9.0776,8.9968,8.8793,8.7472,8.7288,8.6259,8.48,8.4313,8.3436,8.252,0.0,0.0,0.0,0.0,0.0,0.0,0.0,0.0,5.8834,5.8316,6.0828,6.1558,5.8804,6.1422,6.3246,6.2989,6.2108,6.3246,6.7173,6.8164,7.066,7.5212,7.7855,8.0351,8.27,8.2994,8.3508,8.4205,8.4976,8.538,8.5416,8.6151,8.6885,8.7655,8.7766,8.8206,8.8904,8.8977,8.8977,8.8793,8.7986,8.7252,8.6371,8.4315,8.1672,7.8809,7.6423,7.3634,7.0917,7.011,6.8348,6.6586,6.7136,6.6329,6.5595,6.7724,6.6072,6.4168,6.7046,6.5202,6.2711,6.354,6.3525,6.3854,0.0,0.0,6.9851,7.1287,7.4175,7.7303,7.9952,8.4301,8.8676,9.2242,9.6064,9.9218,10.109,10.2008,10.2008,10.098,10.0209,9.9181,9.764,9.8154,9.8264,9.753,9.8337,9.8851,9.8851,9.8998,9.9438,10.0099,10.0907,10.0907,10.0209,10.0796,9.9952,9.775,9.7676,9.7199,9.6392,9.485,9.4153,9.4079,9.2501,9.173,9.1583,9.0812,8.9968,8.9087,8.8353,8.7541,8.6524,8.4738,8.3526,8.2708,0.0,0.0,0.0,0.0,0.0,0.0,0.0,0.0,0.0,5.8891,6.0076,6.0506,5.9475,6.1447,6.2622,6.2144,6.1777,6.3539,6.8091,7.0036,7.3377,7.8736,8.1746,8.3765,8.4756,8.571,8.6371,8.6701,8.7509,8.7912,8.7912,8.8243,8.883,8.9601,8.9601,9.0041,9.0812,9.0812,9.0812,9.0739,8.9931,8.9417,8.8793,8.5747,8.259,7.958,7.8112,7.5763,0.0,7.1394,7.0146,6.9045,6.7504,6.6843,6.6806,6.7357,6.5888,6.403,6.3811,6.4419,6.5051,0.0,6.6482,6.8572,7.0528,7.3128,7.5359,7.6497,8.0057,8.3581,8.5527,8.9491,9.3382,9.6135,9.8411,10.0686,10.3219,10.2705,10.1677,10.0907,10.0503,9.9842,9.8704,9.8924,9.8961,9.8631,9.9328,9.9989,10.0503,10.0907,10.1604,10.2375,10.2705,10.2485,10.1714,10.1604,10.0503,9.8594,9.8117,9.7456,9.6649,9.5034,9.3749,9.2794,9.2097,9.1803,9.1767,9.1436,9.0812,9.0078,8.9748,8.883,8.7537,8.617,8.5086,8.4228,0.0,0.0,0.0,0.0,0.0,0.0,0.0,0.0,0.0,0.0,5.9584,5.996,6.0651,6.1594,6.1998,6.163,6.141,6.3356,6.8238,7.0844,7.4918,8.1048,8.4205,8.6297,8.7435,8.861,8.9417,8.9895,9.0482,9.0776,9.0776,9.0776,9.1069,9.162,9.162,9.195,9.2501,9.2501,9.2501,9.2427,9.162,9.1033,9.0152,8.5894,8.2406,7.958,7.8112,7.5579,7.2716,7.1431,7.0844,7.033,6.8421,6.8238,6.8568,6.7981,6.6696,6.5081,6.3503,6.5228,0.0,6.7871,7.0477,7.3523,7.5579,7.8405,8.0938,8.2186,8.5416,8.85,9.0152,9.3015,9.6025,9.8668,9.9952,10.1604,10.4394,10.2889,10.098,9.9769,9.9035,9.8411,9.7823,9.8778,9.9512,9.9769,10.0283,10.109,10.2081,10.2485,10.3219,10.421,10.421,10.399,10.3403,10.2595,10.1384,9.9769,9.8704,9.7823,9.6979,9.5107,9.3529,9.2134,9.1913,9.1803,9.1803,9.1803,9.1326,9.0592,9.0372,8.9559,8.8428,8.7527,8.6274,8.5019,0.0,0.0,0.0,0.0,0.0,0.0,0.0,0.0,0.0,0.0,0.0,0.0,0.0,6.0896,6.0786,6.152,6.0896,6.2511,6.7393,7.0,7.4588,8.1856,8.4499,8.7619,9.151,9.173,9.2537,9.4116,9.4116,9.4153,9.4153,9.4153,9.4153,9.4189,9.4189,9.4189,9.4226,9.4226,9.4226,9.4153,9.3345,9.206,9.0078,8.527,8.1929,7.936,7.6166,7.1945,6.8128,6.9633,6.9633,6.9229,7.0697,7.1174,7.1211,7.1174,7.0036,6.8898,6.9596,6.9889,7.0734,7.3854,7.5873,7.8002,8.1195,8.3838,8.6261,8.8647,8.9858,9.0996,9.2684,9.3712,9.5364,9.8594,10.0393,10.2008,10.3696,10.2485,10.0576,9.8227,9.5914,9.4446,9.4446,9.797,10.0613,10.1384,10.1384,10.2191,10.3696,10.3109,10.3403,10.5018,10.5091,10.5091,10.5018,10.421,10.2999,10.1384,9.9805,9.8631,9.7787,9.5364,9.3859,9.3015,9.217,9.1803,9.1803,9.1803,9.1326,9.0519,8.9748,8.9381,8.9163,8.8368,8.6505,8.4404,0.0,0.0,0.0,0.0,0.0,0.0,0.0,0.0,0.0,0.0,0.0,0.0,0.0,0.0,0.0,0.0,6.0272,6.2034,6.5852,6.9889,7.4404,7.958,8.4682,8.7666,8.8241,9.0305,9.1763,9.2308,9.2816,9.3462,9.4299,9.4299,9.4299,9.4299,9.4299,9.4299,9.4263,9.3712,9.3822,9.4042,9.1033,8.9821,8.916,8.3251,7.914,7.613,0.0,7.1027,6.9926,6.8862,6.8678,6.8825,6.8274,6.9229,7.0624,7.1138,7.055,7.011,7.1982,7.367,7.5799,7.9617,8.215,8.4609,8.7839,8.9638,9.0886,9.1693,9.0776,8.9821,8.9858,9.0959,9.2758,9.5474,9.8594,10.1494,10.3586,10.2485,9.9989,9.5988,9.5731,9.4813,9.2097,9.4556,9.753,10.0503,10.0686,10.1898,10.4614,10.443,10.4798,10.5899,10.6009,10.5715,10.5128,10.432,10.3109,10.1494,9.9328,9.7603,9.6282,9.4923,9.3859,9.3051,9.217,9.1803,9.1803,9.1803,9.1657,9.1363,9.1106,9.0364,8.9319,8.9024,8.7402,8.5509,0.0,0.0,0.0,0.0,0.0,0.0,0.0,0.0,0.0,0.0,0.0,0.0,0.0,0.0,0.0,0.0,0.0,6.0933,6.42,6.7871,7.2018,7.6644,8.1342,8.4227,8.4863,8.6588,8.7956,8.8787,8.9174,8.996,9.1043,9.1545,9.2139,9.2856,9.3185,9.3667,9.4226,9.3125,9.2758,9.2611,8.8536,8.6701,8.571,7.9213,7.5285,0.0,6.9192,6.8458,6.9009,6.8017,6.8017,6.8458,6.8274,6.9302,7.0697,7.1505,7.1762,7.2422,7.5139,7.8075,8.1342,8.5416,8.7839,8.9858,9.2537,9.3125,9.2868,9.1987,8.9821,8.7692,8.6297,8.6664,8.828,9.1583,9.4777,9.819,10.2081,10.0686,9.83,9.5474,9.4777,9.3602,9.1289,9.2207,9.4997,9.9916,10.0576,10.2118,10.5422,10.5311,10.5605,10.678,10.6486,10.6119,10.5605,10.4724,10.3403,10.1494,9.9328,9.764,9.6318,9.5217,9.4446,9.3896,9.2758,9.2244,9.2244,9.1913,9.1803,9.1767,9.1473,9.0732,8.9793,8.9498,8.8206,8.6767,0.0,0.0,0.0,0.0,0.0,0.0,0.0,0.0,0.0,0.0,0.0,0.0,0.0,0.0,0.0,0.0,0.0,0.0,6.2475,6.4273,6.7687,7.3156,7.5102,7.7855,8.1717,8.1084,8.178,8.3985,8.3844,8.4148,8.4943,8.6425,8.804,8.985,9.0682,9.1994,9.3565,9.195,9.0812,8.9821,8.5783,8.281,8.0057,7.367,7.0734,6.9449,6.5558,6.464,6.5558,6.71,6.7724,6.8201,7.0513,7.1321,7.1578,7.2532,7.3927,7.5909,7.936,8.3177,8.7142,9.1179,9.2794,9.3786,9.5254,9.4299,9.2391,8.9821,8.7178,8.4646,0.0,0.0,8.2517,8.7362,8.9784,9.3272,9.9659,9.7933,9.6208,0.0,0.0,0.0,0.0,0.0,9.3712,9.9952,10.098,10.2889,10.6302,10.5715,10.6009,10.7587,10.689,10.6486,10.6486,10.5605,10.3917,10.1494,9.9916,9.8741,9.7823,9.6245,9.5511,9.5437,9.3822,9.3088,9.3015,9.217,9.1803,9.173,9.0959,9.0568,9.0403,8.9684,8.8865,8.8046,0.0,0.0,0.0,0.0,0.0,0.0,0.0,0.0,0.0,0.0,0.0,0.0,0.0,0.0,0.0,0.0,0.0,0.0,6.0896,6.3135,6.5852,6.9082,7.3083,7.5541,7.6316,7.8422,7.954,7.9576,8.0721,8.1523,8.206,8.3662,8.435,8.4268,8.5072,8.5394,8.5196,8.4205,8.3985,8.3985,7.991,7.7892,7.6827,7.2165,6.9522,6.8017,6.5778,6.5154,6.5448,6.6476,6.7981,6.9596,7.022,7.1248,7.2826,7.6093,7.7745,7.9764,8.5416,8.905,9.206,9.5511,9.6979,9.7383,9.6575,9.4703,9.206,8.839,8.3287,7.8919,7.7121,7.8589,8.1672,8.6518,9.2721,9.8557,10.3219,10.3219,0.0,9.9659,0.0,9.786,9.5694,9.6906,0.0,10.1898,10.0613,10.1898,10.7,10.7073,10.7404,10.8505,10.7697,10.7294,10.7294,10.5789,10.3917,10.1494,10.0503,9.9255,9.7823,9.6245,9.5511,9.5437,9.3822,9.3088,9.3015,9.217,9.1803,9.1767,9.1583,9.1139,9.0578,9.0357,8.9767,8.8956,0.0,0.0,0.0,0.0,0.0,0.0,0.0,0.0,0.0,0.0,0.0,0.0,0.0,0.0,0.0,0.0,0.0,0.0,0.0,6.2034,6.409,6.6549,6.8898,7.0522,7.1402,7.2755,7.36,7.3852,7.4619,7.5334,7.5959,7.7481,7.8445,7.8887,8.0053,8.0765,8.1048,7.9874,7.925,0.0,0.0,7.3046,7.2055,6.8715,6.6916,6.5925,6.4677,6.4897,6.6072,0.0,0.0,7.1394,7.2826,7.4882,7.7414,8.0791,8.3324,8.6151,9.1253,9.4923,9.7823,9.9989,10.0099,9.8924,9.6245,9.3198,8.9381,8.3875,7.8736,7.4588,7.2642,7.4625,7.8295,8.3544,0.0,0.0,10.2815,10.3513,10.3403,0.0,10.2412,0.0,9.9989,10.0796,10.2191,10.421,10.2705,10.3623,10.7881,10.8101,10.8505,10.9312,10.8175,10.7367,10.7073,10.5385,10.3917,10.2485,10.098,9.9622,9.8374,9.7126,9.6355,9.5951,9.4703,9.3969,9.3565,9.2721,9.2134,9.1803,9.1803,9.1326,9.0592,9.0592,9.0115,8.9307,0.0,0.0,0.0,0.0,0.0,0.0,0.0,0.0,0.0,0.0,5.807,0.0,0.0,0.0,0.0,0.0,0.0,0.0,0.0,0.0,6.2658,6.5044,6.4457,6.5118,6.732,6.6583,6.6753,6.8017,6.7945,6.8182,6.8715,7.0203,7.1834,7.3507,7.4885,7.6469,7.7928,7.6387,7.4918,7.3377,7.0587,6.8568,6.699,0.0,6.4016,6.387,6.3319,6.4383,6.6512,0.0,7.1982,7.3854,7.6974,8.0277,8.3544,8.6261,8.9638,9.3198,9.6722,10.0393,10.3293,10.3917,10.2191,9.9328,9.496,9.0555,8.538,7.8148,7.4037,7.1027,6.8825,7.0587,7.4368,8.0608,0.0,9.3529,10.1384,10.2301,10.3293,10.6486,10.4908,10.3806,10.4504,10.3917,10.4394,10.6706,10.6192,10.6706,10.8799,10.8982,10.9202,10.979,10.8468,10.7294,10.6376,10.4981,10.41,10.388,10.1677,10.0099,9.9071,9.8264,9.7456,9.6649,9.5878,9.5034,9.4226,9.3418,9.2574,9.1803,9.1803,9.1363,9.0776,9.0776,9.0335,8.9601,0.0,0.0,0.0,0.0,0.0,0.0,0.0,0.0,0.0,0.0,5.84,5.7997,0.0,0.0,0.0,0.0,0.0,0.0,0.0,0.0,0.0,6.4237,6.4163,6.4604,6.5705,6.5547,6.5274,6.4872,6.5515,6.5569,6.5059,6.6663,6.7558,6.7909,6.8201,6.8476,6.8752,6.7797,6.7247,6.6916,6.6366,6.5558,6.4677,6.4237,0.0,0.0,6.442,6.4273,0.0,7.2422,7.6166,7.8002,8.0534,8.4022,8.8023,9.2501,9.4777,9.6832,10.1384,10.4173,10.5605,10.5018,10.3109,9.9695,9.3675,8.7619,0.0,7.4698,7.0257,6.721,6.6145,6.9009,7.4478,8.3508,8.872,9.5364,10.6009,10.6376,10.6486,0.0,10.8395,10.7807,10.7918,10.7807,0.0,10.9276,10.9202,10.9312,10.979,10.979,10.9569,10.8982,10.8688,10.7881,10.6413,10.6082,10.5275,10.388,10.2815,10.12,9.9071,9.8264,9.7456,9.6649,9.5878,9.5034,9.4226,9.3418,9.2574,9.1803,9.1803,9.1693,9.1583,9.1583,9.151,9.1179,0.0,0.0,0.0,0.0,0.0,0.0,0.0,5.5941,5.7079,5.9501,5.9869,5.9538,5.8731,5.8253,5.8327,0.0,0.0,0.0,0.0,0.0,0.0,0.0,6.3246,6.3392,6.464,6.4677,6.4494,6.409,0.0,6.4494,6.4127,6.4897,6.5228,6.5264,6.5705,6.5888,6.5852,6.5485,6.5081,6.4677,6.4677,6.4163,6.3429,0.0,0.0,0.0,0.0,0.0,0.0,0.0,7.7635,8.1672,8.4939,8.9014,9.3345,9.6942,9.9475,10.1898,10.6009,10.8578,10.9679,10.8101,10.421,9.8961,9.162,0.0,0.0,7.0697,6.7173,6.5118,6.4751,6.7981,7.2753,7.9103,8.3911,9.0665,10.1604,10.2815,10.4614,11.001,11.0304,11.001,11.001,11.001,11.0193,11.0597,11.0597,11.0597,11.0597,11.0193,10.9606,10.8799,10.8395,10.7587,10.6376,10.6009,10.5091,10.388,10.3109,10.142,9.9108,9.8704,9.786,9.6685,9.6282,9.5437,9.4263,9.3859,9.2941,9.1803,9.1803,9.1803,9.1803,9.1803,9.1803,9.1583,0.0,0.0,0.0,0.0,0.0,0.0,0.0,5.6418,5.7997,6.0603,6.13,6.1117,5.9869,5.8988,5.8694,0.0,0.0,0.0,0.0,0.0,0.0,0.0,0.0,0.0,6.3796,0.0,0.0,6.3796,6.3649,0.0,0.0,0.0,0.0,0.0,6.4567,6.4897,6.5044,6.4861,6.442,0.0,0.0,6.3429,0.0,0.0,0.0,0.0,0.0,0.0,0.0,0.0,7.7194,8.2517,8.6407,9.1913,9.7383,9.9622,10.2705,10.6119,10.9606,11.1992,11.2983,11.0597,10.4871,9.7713,8.9748,8.1415,0.0,6.7504,6.4934,6.3796,6.3796,6.6549,7.0073,0.0,7.8295,8.5013,9.6098,9.8631,10.2228,0.0,11.1111,0.0,11.1221,11.1221,11.1221,11.1221,11.1221,11.1221,11.1221,11.0597,10.979,10.8799,10.8175,10.7367,10.6376,10.5495,10.4724,10.388,10.3109,10.1494,9.9365,9.9181,9.8337,9.6942,9.6759,9.5804,9.4299,9.4299,9.3308,9.1803,9.1803,9.1803,9.1803,9.1803,9.1803,9.1583,0.0,0.0,0.0,0.0,0.0,0.0,0.0,5.6895,5.9024,6.2181,6.1998,6.152,6.141,6.0676,5.9905,0.0,0.0,0.0,0.0,0.0,0.0,0.0,0.0,0.0,0.0,0.0,0.0,6.2915,6.2181,0.0,0.0,0.0,0.0,0.0,0.0,6.3466,6.4163,6.3392,0.0,0.0,0.0,0.0,0.0,0.0,0.0,0.0,0.0,0.0,6.5154,0.0,0.0,7.7378,8.0718,8.9124,9.8117,9.9805,0.0,0.0,11.1111,11.2873,11.2983,11.0597,10.399,9.6171,8.8793,0.0,7.1431,6.6439,6.409,6.2915,6.2915,6.387,6.6659,7.2789,7.6056,8.2223,9.4997,9.8741,10.2705,10.9276,0.0,0.0,11.1221,11.1221,11.1221,11.1221,11.1221,11.1221,11.1221,11.1111,11.0414,10.8799,10.8688,10.7991,10.6413,10.5495,10.4724,10.388,10.3109,10.1788,10.0209,9.9438,9.8631,9.775,9.7016,9.5804,9.4299,9.4299,9.3308,9.1803,9.1803,9.1803,9.1803,9.1803,9.1803,9.1583,0.0,0.0,0.0,0.0,0.0,0.0,5.4589,5.6638,5.9171,6.2401,6.2989,6.2915,6.2401,6.1594,6.0603,5.9318,0.0,0.0,0.0,0.0,0.0,0.0,0.0,0.0,0.0,0.0,6.1741,6.2071,6.1741,0.0,0.0,0.0,0.0,0.0,0.0,6.2548,6.3282,6.2952,0.0,0.0,0.0,0.0,0.0,0.0,0.0,0.0,0.0,0.0,6.453,6.7247,0.0,0.0,7.4331,8.0534,0.0,0.0,10.0283,10.4798,11.0781,11.3681,11.4305,11.1405,10.3513,9.4777,8.8463,0.0,6.9376,6.5999,6.398,6.2805,6.2805,6.3099,6.4347,6.743,6.8311,7.2459,8.3544,8.6334,9.1436,10.2779,10.5311,10.7404,11.0891,11.1221,11.1221,11.1221,11.1221,11.1221,11.1221,11.0707,11.0193,10.9496,10.8578,10.7771,10.7073,10.6302,10.5201,10.388,10.3586,10.2081,9.9585,9.9255,9.8411,9.7126,9.6318,9.5327,9.4263,9.3786,9.2868,9.1803,9.1803,9.1803,9.1803,9.1803,9.1803,9.1657,0.0,0.0,0.0,0.0,0.0,5.2361,5.4148,5.6455,5.9061,6.2071,6.2989,6.3135,6.2511,6.152,6.0419,5.9318,5.9208,0.0,0.0,0.0,0.0,0.0,0.0,0.0,0.0,0.0,6.1263,6.1263,6.1263,6.1374,0.0,0.0,6.2034,6.2768,0.0,0.0,0.0,0.0,0.0,0.0,0.0,0.0,0.0,0.0,0.0,0.0,0.0,0.0,0.0,0.0,0.0,0.0,0.0,0.0,0.0,0.0,9.5951,10.1788,10.8175,11.2506,11.4488,11.1295,10.2595,9.3345,0.0,0.0,6.7944,6.5742,6.398,6.2805,6.2805,6.2805,6.3025,6.3613,6.3833,6.7063,7.613,7.8516,8.3911,9.6318,9.8998,10.2118,10.7807,11.012,11.1221,11.1221,11.1221,11.1221,11.1221,11.0707,11.0083,10.9679,10.8505,10.7697,10.7183,10.6413,10.5311,10.388,10.3696,10.2118,9.9475,9.9218,9.8337,9.7016,9.5951,9.5034,9.4226,9.3418,9.2574,9.1803,9.1803,9.1803,9.1803,9.1803,9.1803,9.1657,0.0,0.0,0.0,0.0,0.0,0.0,5.4081,5.6455,5.8877,6.13,6.163,6.163,6.1594,6.0199,5.9245,5.9208,5.9208,0.0,0.0,0.0,0.0,0.0,0.0,0.0,0.0,0.0,6.0419,6.0419,6.0419,6.0823,6.1594,6.1594,6.2034,6.2768,0.0,0.0,0.0,0.0,0.0,0.0,0.0,0.0,0.0,0.0,0.0,0.0,0.0,0.0,0.0,0.0,0.0,0.0,0.0,0.0,0.0,8.0938,9.0372,9.8814,10.2889,10.8688,11.2873,10.9606,10.0907,9.184,8.6921,7.6423,6.7247,6.5632,6.398,6.2805,6.2805,6.2805,6.2805,6.2805,6.4861,6.9009,7.6387,7.947,8.3691,9.1033,9.2648,9.5401,10.109,10.7404,11.1221,11.1221,11.1221,11.1221,11.1221,11.1221,11.0487,10.8909,10.8799,10.7991,10.6413,10.5495,10.4724,10.388,10.3109,10.1898,10.0283,9.9475,9.8668,9.7787,9.6208,9.5034,9.4226,9.3418,9.2574,9.1803,9.1803,9.1803,9.1803,9.1803,9.1803,9.1583,0.0,0.0,0.0,0.0,0.0,0.0,0.0,5.528,5.785,5.9722,6.0456,6.1006,6.152,6.0162,5.9208,5.9208,5.8694,0.0,0.0,0.0,0.0,0.0,0.0,0.0,0.0,0.0,5.9869,6.0419,6.0419,6.0823,6.1594,6.1594,6.2034,6.2768,6.1961,6.2034,0.0,0.0,0.0,0.0,0.0,0.0,0.0,0.0,0.0,0.0,0.0,0.0,0.0,0.0,0.0,0.0,0.0,0.0,0.0,7.2349,8.0388,8.9014,9.3565,9.7933,10.0576,9.7897,9.14,8.4792,8.1599,7.3597,6.6586,6.5521,6.398,6.2805,6.2805,6.2805,6.3356,6.5044,6.5999,6.7871,7.1835,7.7378,8.3471,9.0188,9.9548,10.6192,10.7991,11.001,11.1221,11.1221,11.1221,11.1221,11.1221,11.0707,11.0083,10.9606,10.9092,10.8285,10.7183,10.5789,10.4724,10.388,10.3109,10.1604,9.9475,9.9218,9.8374,9.7016,9.5951,9.5034,9.4226,9.3418,9.2574,9.1803,9.1803,9.1803,9.1803,9.1803,9.1436,9.0922,0.0,0.0,0.0,0.0,0.0,0.0,0.0,5.4473,5.6822,5.8143,5.8988,5.9795,6.0603,5.9538,5.8877,5.9171,5.8474,0.0,0.0,0.0,0.0,0.0,0.0,0.0,6.0713,5.9722,5.9612,6.0419,6.1006,6.1741,6.2548,6.2548,6.2805,6.3246,6.2108,6.2034,0.0,0.0,0.0,0.0,0.0,0.0,6.1924,0.0,0.0,0.0,0.0,0.0,0.0,0.0,0.0,0.0,0.0,0.0,0.0,0.0,7.2716,7.925,8.5343,9.0005,9.2684,9.0592,8.5416,0.0,7.8148,7.1651,6.5925,6.5411,6.398,6.2805,6.2805,6.2805,6.3319,6.4861,6.5118,6.6476,7.044,7.5983,0.0,9.0592,10.131,10.7991,10.7991,10.99,11.1221,11.1221,11.1221,11.1221,11.1221,11.0414,10.99,10.9569,10.8799,10.7991,10.7183,10.5789,10.4724,10.388,10.2779,10.109,9.9108,9.8778,9.7933,9.6649,9.5547,9.4777,0.0,9.3088,9.2281,9.1803,9.1803,9.1803,9.1767,9.1473,9.1033,9.0519,0.0,0.0,0.0,0.0,0.0,0.0,0.0,5.3959,5.5794,5.6602,5.7446,5.829,5.9061,5.8437,5.829,5.9061,0.0,0.0,0.0,0.0,0.0,0.0,0.0,0.0,5.9245,5.9171,5.9538,6.0309,6.1924,6.3172,6.4016,6.4127,6.4127,6.4016,6.2475,6.2144,0.0,0.0,0.0,0.0,0.0,0.0,0.0,0.0,0.0,0.0,0.0,0.0,0.0,0.0,0.0,0.0,0.0,0.0,0.0,0.0,0.0,0.0,0.0,8.3948,8.7766,8.6187,8.1782,7.7414,7.5873,7.0183,0.0,6.5228,6.3943,6.2842,6.2879,6.2842,6.2879,6.3135,6.3209,6.5448,7.1688,7.6056,0.0,9.2721,9.9548,10.3293,10.2999,10.7991,11.1221,11.1221,11.1221,11.1221,11.1221,11.0377,10.9606,10.8799,10.7991,10.7073,10.6302,10.5422,10.4614,10.3806,10.2191,10.0613,9.9071,9.8264,9.7419,9.6539,9.5034,9.4299,9.4079,9.2537,9.184,9.1803,9.1803,9.1803,9.1693,9.0922,9.0519,9.0225,0.0,0.0,0.0,0.0,0.0,0.0,0.0,0.0,0.0,0.0,5.7116,5.807,5.8253,5.8107,5.807,0.0,0.0,0.0,0.0,0.0,0.0,0.0,0.0,0.0,5.9208,5.8621,5.8694,5.9501,6.108,6.2291,6.3135,6.442,6.4677,6.4053,6.3686,6.2915,0.0,0.0,0.0,0.0,0.0,0.0,0.0,0.0,0.0,0.0,6.1594,6.1887,0.0,0.0,0.0,0.0,0.0,0.0,0.0,0.0,6.5375,6.6696,6.9229,0.0,7.5322,7.4331,7.2129,7.0146,0.0,6.6916,6.4383,6.4383,0.0,6.3025,6.3686,6.3246,6.3613,6.6145,6.7063,6.8862,7.2863,8.3691,0.0,10.142,10.689,10.8909,10.5789,10.8982,11.1221,11.1221,11.1221,11.1221,11.1221,10.99,10.8982,10.8799,10.7404,10.6302,10.5422,10.4614,10.3806,10.2999,10.1384,10.0099,9.9071,9.8264,9.7126,9.5768,9.5401,9.452,9.3345,9.2978,9.2391,9.1803,9.1803,9.1803,9.1693,9.0922,8.9821,8.861,0.0,0.0,0.0,0.0,0.0,0.0,0.0,0.0,0.0,0.0,0.0,5.7997,5.7997,5.7997,0.0,0.0,0.0,0.0,0.0,0.0,0.0,0.0,0.0,5.8657,5.8657,5.8217,5.8767,6.0309,6.1557,6.2952,6.453,6.5448,6.5411,6.4604,6.3466,6.2438,0.0,0.0,0.0,0.0,5.9869,0.0,0.0,0.0,0.0,0.0,6.119,6.1594,0.0,6.3943,6.442,6.4237,0.0,0.0,0.0,0.0,6.4971,6.5485,6.6292,6.776,6.9082,6.9009,6.8054,6.7136,6.7136,0.0,0.0,0.0,0.0,6.2952,6.3429,6.3429,6.409,6.6256,6.7577,7.0881,0.0,0.0,9.8447,10.4908,10.8688,11.0193,10.8688,11.0193,11.1221,11.1221,11.1221,11.1221,11.1221,10.9716,10.8799,10.8799,10.7183,10.6009,10.5128,10.432,10.3293,10.2081,10.0503,9.9145,9.797,9.7163,9.6135,9.4923,9.4556,9.3896,9.3088,9.2684,9.2244,9.1803,9.1803,9.1583,9.1143,9.0372,8.905,8.7545,0.0,0.0,0.0,0.0,0.0,0.0,0.0,0.0,0.0,0.0,0.0,0.0,0.0,0.0,0.0,0.0,0.0,0.0,0.0,0.0,0.0,0.0,5.7997,5.7997,5.7997,5.7997,5.9061,6.1227,6.2548,6.4273,6.6329,6.6806,6.6366,6.5007,6.2265,6.1129,0.0,0.0,0.0,0.0,5.9024,0.0,0.0,0.0,0.0,0.0,0.0,0.0,0.0,6.4457,6.4861,6.453,6.6035,0.0,0.0,0.0,0.0,0.0,6.6439,6.6769,6.699,6.754,6.6916,6.6182,6.6292,0.0,0.0,0.0,0.0,0.0,0.0,6.3906,0.0,6.5852,6.8311,7.4184,8.5967,9.3492,9.9952,10.5678,10.8101,10.9606,11.0414,11.0891,11.1221,11.1221,11.1221,11.1111,11.1001,10.9606,10.8688,10.8615,10.7,10.5789,10.4908,10.41,10.2889,10.1274,9.9548,9.8007,9.6685,9.5731,9.4887,9.4079,9.3418,9.3015,9.2831,9.2097,9.173,9.162,9.162,9.1143,9.0298,8.9381,8.8096,8.6664,0.0,0.0,0.0,0.0,0.0,0.0,0.0,0.0,0.0,0.0,0.0,0.0,0.0,0.0,0.0,0.0,0.0,0.0,0.0,0.0,0.0,5.7997,5.7997,5.7997,5.7997,5.7997,5.851,5.9575,6.3172,6.5118,6.5558,6.8274,6.765,6.4127,6.0347,5.9015,5.9538,5.8731,0.0,0.0,5.818,0.0,0.0,0.0,0.0,0.0,0.0,0.0,0.0,6.4457,6.5228,6.5301,6.6219,0.0,0.0,0.0,0.0,0.0,6.71,6.8017,6.8385,6.7834,6.6072,6.464,6.5338,0.0,0.0,0.0,0.0,0.0,0.0,6.5595,6.6843,0.0,0.0,8.4499,9.4593,9.9916,10.3696,10.6082,10.9606,11.0597,10.7404,10.9606,11.1221,11.1221,11.1221,11.0891,11.0193,10.9312,10.8505,10.7771,10.6192,10.4908,10.41,10.3293,10.2081,10.0503,9.8154,9.6942,9.6649,9.5144,9.4042,9.3272,9.3161,9.2684,9.1987,9.184,9.14,9.0776,9.0776,9.0298,8.9417,8.7949,8.6775,8.5563,0.0,0.0,0.0,0.0,0.0,0.0,0.0,0.0,0.0,0.0,0.0,0.0,0.0,0.0,0.0,0.0,0.0,0.0,0.0,0.0,5.7997,5.7997,5.7997,5.7997,5.7997,5.8841,6.0126,6.1851,6.4604,6.6591,6.7746,6.7005,6.5524,6.3232,5.9699,5.8514,5.9171,5.8327,0.0,0.0,0.0,0.0,0.0,0.0,0.0,0.0,0.0,0.0,0.0,0.0,6.5007,6.4934,6.6623,0.0,0.0,0.0,0.0,0.0,6.5558,6.6329,6.7173,6.8128,6.7173,6.5668,6.4273,0.0,0.0,0.0,0.0,0.0,0.0,0.0,7.2459,7.8846,8.5159,9.1326,9.7089,10.0576,10.3513,10.6082,10.8395,10.9606,10.9019,11.0304,11.1001,11.0597,11.0597,11.0193,10.9386,10.8578,10.7771,10.7,10.5715,10.4504,10.3293,10.2008,10.0796,9.9622,9.764,9.6245,9.5364,9.4189,9.3198,9.2391,9.2391,9.217,9.1803,9.1803,9.1326,9.0592,9.0592,8.9601,8.7802,8.5343,8.4168,8.3508,0.0,0.0,0.0,0.0,0.0,0.0,0.0,0.0,0.0,0.0,0.0,0.0,0.0,0.0,0.0,0.0,0.0,0.0,0.0,5.7997,5.7923,5.774,5.7886,5.8107,5.829,6.0052,6.2181,6.464,6.6843,6.858,6.9769,6.5597,6.3084,6.2113,5.8967,5.8072,5.8877,5.8253,5.7997,0.0,0.0,0.0,0.0,0.0,0.0,0.0,0.0,0.0,0.0,0.0,0.0,0.0,0.0,0.0,0.0,6.5448,6.5301,6.4677,6.4897,6.5521,6.6476,6.776,6.7577,6.6806,6.5632,0.0,0.0,0.0,0.0,0.0,0.0,7.2863,0.0,8.7362,9.2831,9.6979,9.9769,10.2081,10.4504,10.7183,10.8101,10.9202,11.1001,11.1001,11.0707,11.001,10.979,10.9386,10.8578,10.7771,10.689,10.6082,10.5091,10.3917,10.2412,10.0796,9.9695,9.9071,9.7089,9.5474,9.4263,9.3272,9.2427,9.1803,9.1803,9.1693,9.151,9.151,9.0922,9.0041,8.9821,8.8169,8.56,8.3324,8.2003,8.1195,0.0,0.0,0.0,0.0,0.0,0.0,0.0,0.0,0.0,0.0,0.0,0.0,0.0,0.0,0.0,0.0,0.0,0.0,0.0,5.7997,5.7666,5.6932,5.7593,5.8364,5.9098,6.1447,6.3833,6.6329,7.0183,7.1413,6.9994,6.5252,6.2177,6.0413,5.7255,5.6704,5.807,5.8033,5.7997,5.7997,0.0,0.0,0.0,0.0,0.0,0.0,0.0,0.0,0.0,0.0,0.0,0.0,0.0,0.0,6.6402,6.7247,6.6953,6.6476,6.7247,6.8017,6.8164,6.6072,6.5521,0.0,7.1762,7.1174,0.0,7.3487,0.0,0.0,0.0,7.8442,8.4425,8.9601,9.6392,10.2412,10.6302,10.8285,10.979,11.0707,11.0891,11.1001,11.1221,11.0487,11.0083,10.9973,10.9312,10.8505,10.7697,10.689,10.6082,10.5201,10.3696,10.2485,10.1604,9.9989,9.9181,9.9071,9.5951,9.441,9.4226,9.2611,9.184,9.1803,9.1803,9.1363,9.0702,9.0702,8.9784,8.8316,8.7545,8.5343,8.259,8.3141,8.1415,7.8956,0.0,0.0,0.0,0.0,0.0,0.0,0.0,0.0,0.0,0.0,0.0,0.0,0.0,0.0,0.0,0.0,0.0,0.0,0.0,5.7997,5.785,5.7556,5.785,5.84,5.9208,6.3099,6.6939,7.0651,7.2011,7.1264,6.8327,6.3948,6.1148,5.9539,5.7385,5.7029,5.7997,5.7997,5.7997,5.7997,5.7997,0.0,0.0,0.0,0.0,0.0,0.0,0.0,0.0,0.0,6.5705,6.5485,6.6586,6.6035,6.5044,6.5375,6.5228,6.4971,6.4714,6.6366,6.7907,6.7026,6.7944,0.0,0.0,7.1541,7.2496,7.5763,7.6974,0.0,0.0,0.0,9.0849,9.518,10.12,10.6376,10.9386,11.0414,11.0891,11.1184,11.1221,11.1001,11.0487,11.0193,10.9569,10.8578,10.8175,10.7477,10.6119,10.5789,10.5018,10.3623,10.2522,10.1604,10.0796,9.9145,9.8117,9.7566,9.5364,9.4299,9.4226,9.2574,9.1803,9.1767,9.1253,9.0886,9.0555,9.0078,8.894,8.7288,8.549,8.4022,8.2884,8.2186,8.0828,7.9323,0.0,0.0,0.0,0.0,0.0,0.0,0.0,0.0,0.0,0.0,0.0,0.0,0.0,0.0,0.0,0.0,0.0,0.0,5.7629,5.785,5.7776,5.7262,5.774,5.8621,5.9942,6.4494,6.8487,7.1729,7.203,7.03,6.6558,6.2802,6.0245,5.8799,5.7732,5.7665,5.84,5.84,5.84,5.8364,5.8107,5.8143,0.0,0.0,0.0,0.0,0.0,0.0,0.0,0.0,6.5595,6.5081,6.5888,6.5191,6.4127,6.4383,6.409,6.3576,6.2989,6.4457,6.6329,6.7136,0.0,0.0,7.3854,7.4955,7.6827,8.1379,8.2186,0.0,8.4572,0.0,0.0,9.808,10.388,10.8688,11.0891,11.1221,11.1221,11.1221,11.1221,11.0891,11.0083,10.9496,10.8688,10.7294,10.6706,10.5789,10.443,10.41,10.3293,10.2008,10.12,10.0393,9.9548,9.819,9.7126,9.6318,9.4703,9.3932,9.3859,9.2464,9.1657,9.14,9.0849,9.0298,8.9821,8.9271,8.7802,8.5673,8.3765,8.2553,8.1782,8.0938,7.9947,7.8956,0.0,0.0,0.0,0.0,0.0,0.0,0.0,0.0,0.0,0.0,0.0,0.0,0.0,0.0,0.0,0.0,0.0,0.0,5.6859,5.7556,5.7299,5.5684,5.7152,5.9098,6.152,6.5558,6.7996,6.8625,7.0196,6.8892,6.4893,6.1911,5.9572,5.8015,5.8067,5.8551,5.9208,5.9208,5.9208,5.9171,5.8327,5.851,5.9318,0.0,0.0,0.0,0.0,0.0,0.0,0.0,6.4787,6.4237,6.5044,6.4751,6.4237,6.5044,6.4127,6.2842,6.2805,6.2805,6.3429,0.0,0.0,0.0,8.1636,8.281,8.4315,9.162,8.9931,8.7325,8.8096,9.0225,0.0,9.7236,10.399,10.9386,11.1001,11.1221,11.1221,11.1221,11.1221,11.0891,11.0083,10.8505,10.7294,10.6413,10.4798,10.3513,10.2705,10.1898,10.109,10.0283,9.9512,9.8704,9.7897,9.7089,9.6282,9.5474,9.3859,9.3088,9.3088,9.2207,9.1363,9.0592,9.0592,8.9674,8.8206,8.8169,8.6297,8.3324,8.2517,8.0718,7.8699,7.9507,7.8736,7.7451,0.0,0.0,0.0,0.0,0.0,0.0,0.0,0.0,0.0,0.0,0.0,0.0,0.0,0.0,0.0,0.0,0.0,0.0,5.7666,5.7886,5.7776,5.7299,5.774,5.8327,5.9061,6.1802,6.531,6.9519,6.9778,6.7057,6.1616,6.0772,5.9799,5.8835,5.9469,5.9822,6.0015,5.9465,5.9538,5.9979,5.9171,5.9355,6.0126,0.0,0.0,0.0,0.0,0.0,0.0,0.0,0.0,0.0,6.4383,6.4677,6.4751,6.3833,6.4016,6.431,6.3135,6.3686,0.0,6.9009,0.0,0.0,0.0,8.6114,0.0,0.0,9.4226,9.2905,9.2537,9.4923,9.753,9.9292,10.4284,10.8688,11.0891,11.1221,11.1001,11.0414,11.0377,10.979,10.8395,10.7881,10.7,10.5605,10.4504,10.3293,10.1898,10.109,10.0283,9.9475,9.8117,9.7309,9.7052,9.5694,9.4593,9.3822,9.3345,9.3088,9.3088,9.2207,9.1363,9.0592,9.0005,8.916,8.8059,8.6371,8.4425,8.248,8.1672,8.0571,7.947,7.969,7.914,7.8259,0.0,0.0,0.0,0.0,0.0,0.0,0.0,0.0,0.0,0.0,0.0,0.0,0.0,0.0,0.0,0.0,0.0,0.0,0.0,5.7336,5.7373,5.7042,5.7666,5.8437,5.9391,6.1054,6.3336,6.6153,6.6235,6.4155,6.0238,6.0296,6.0119,5.9758,6.1227,6.1667,6.1337,6.086,6.075,6.0823,6.0015,6.0162,6.0933,0.0,0.0,0.0,0.0,0.0,0.0,0.0,0.0,0.0,6.3686,6.4163,6.4567,6.3209,6.3062,6.3282,6.2915,6.3796,0.0,7.1431,7.5652,8.0938,9.0188,0.0,0.0,0.0,9.8154,9.6979,9.7126,9.8484,10.0209,10.1898,10.5789,10.9202,11.1001,11.1221,11.0891,11.0083,10.9973,10.9202,10.7294,10.678,10.5899,10.432,10.3109,10.1898,10.0613,9.9475,9.8521,9.7713,9.6428,9.5731,9.5731,9.4483,9.3565,9.3088,9.2758,9.2427,9.2097,9.1877,9.1179,9.0041,8.861,8.7692,8.7068,8.5013,8.3177,8.1636,8.0828,7.9837,7.8809,7.8809,7.8516,7.8075,0.0,0.0,0.0,0.0,0.0,0.0,0.0,0.0,0.0,0.0,0.0,0.0,0.0,0.0,0.0,0.0,0.0,0.0,0.0,5.6418,5.6528,5.5831,5.7226,5.9024,6.1227,6.1924,6.1587,6.0286,6.1034,6.0938,5.9924,6.0413,6.0586,6.0639,6.3172,6.3796,6.2915,6.2915,6.2438,6.163,6.0896,6.108,6.1704,6.1704,0.0,0.0,0.0,0.0,0.0,0.0,0.0,0.0,6.3062,6.3392,6.3906,6.3062,6.1777,6.1006,6.2695,0.0,0.0,7.3817,7.98,0.0,9.5107,10.0099,10.2999,10.3586,0.0,10.0099,10.1494,10.12,10.1714,10.4724,10.7807,11.0083,11.0891,11.1001,11.0707,10.979,10.9679,10.8799,10.6376,10.5422,10.421,10.2705,10.109,9.9805,9.8924,9.7419,9.6208,9.5437,9.4593,9.4189,9.4189,9.3382,9.2978,9.2978,9.217,9.1363,9.0629,9.1363,9.0776,8.9087,8.6775,8.571,8.5453,8.3911,8.2333,8.0828,7.9984,7.8699,7.7304,7.7304,7.7304,7.7304,0.0,0.0,0.0,0.0,0.0,0.0,0.0,0.0,0.0,0.0,0.0,0.0,0.0,0.0,0.0,0.0,0.0,0.0,0.0,5.7042,5.7005,5.7446,5.7813,5.8253,5.8767,5.8327,5.8234,5.8542,6.1193,6.0824,5.7654,6.085,6.1958,6.1484,6.4604,6.5191,6.3796,6.3796,6.3319,6.2548,6.2365,6.2401,6.2548,6.2548,6.2658,0.0,0.0,0.0,0.0,0.0,0.0,0.0,6.2879,6.3392,6.3906,6.3062,6.2548,6.2805,6.5081,6.6292,0.0,0.0,8.905,9.7126,9.9842,10.2081,10.3293,10.2191,10.2999,10.3696,10.3403,10.3806,10.4504,10.5899,10.7183,10.8395,10.9202,10.9312,10.8799,10.7294,10.7183,10.6486,10.4614,10.3696,10.2815,10.1788,10.0283,9.8741,9.7309,9.6282,9.5401,9.4593,9.3786,9.3345,9.3345,9.2501,9.206,9.206,9.1877,9.1363,9.0629,9.0776,8.9638,8.7472,8.6297,8.5086,8.3838,8.2847,8.1489,7.9984,7.9176,7.8222,7.7304,7.7304,7.7304,7.7304,0.0,0.0,0.0,0.0,0.0,0.0,0.0,0.0,0.0,0.0,0.0,0.0,0.0,0.0,0.0,0.0,0.0,0.0,0.0,0.0,5.6565,5.7409,5.7776,5.7997,5.7997,5.7593,5.7593,5.7997,5.9685,5.964,5.8105,6.1299,6.2805,6.2915,6.5375,6.6035,6.5228,6.4824,6.42,6.3466,6.3833,6.3759,6.3429,6.3429,6.3429,6.3319,6.2475,0.0,0.0,0.0,0.0,0.0,0.0,0.0,6.3392,6.2952,6.2548,6.2952,6.6182,0.0,0.0,8.4609,0.0,10.0503,10.1274,10.2081,10.2485,10.1677,10.3403,10.5018,10.4614,10.5495,10.6413,10.689,10.7587,10.8285,10.8688,10.8505,10.7771,10.6486,10.5678,10.4577,10.2889,10.2008,10.12,10.0393,9.8851,9.7566,9.6759,9.5217,9.4153,9.3749,9.2905,9.2464,9.2464,9.2024,9.162,9.1216,9.1216,9.0592,8.9454,8.905,8.8206,8.6885,8.4939,8.3581,8.2737,8.1525,8.0314,7.9176,7.8772,7.8075,7.7304,7.7304,7.7304,7.7304,0.0,0.0,0.0,0.0,0.0,0.0,0.0,0.0,0.0,0.0,0.0,0.0,0.0,0.0,0.0,0.0,0.0,0.0,0.0,0.0,0.0,5.6969,5.7629,5.7997,5.7997,5.785,5.785,5.7997,5.7997,5.8694,6.0089,6.1961,6.3356,6.4347,6.5852,6.6402,6.6256,6.5742,6.4971,6.4163,6.5118,6.5044,6.431,6.431,6.42,6.398,6.3135,6.2805,6.2805,6.2658,0.0,0.0,0.0,0.0,6.2842,6.2989,6.2438,6.2695,6.6806,0.0,7.8405,8.9307,9.6098,0.0,10.0907,10.109,10.109,10.109,10.2999,10.4614,10.4504,10.5789,10.6963,10.6963,10.7587,10.8101,10.7991,10.7477,10.678,10.5678,10.4284,10.2779,10.098,10.0283,9.9475,9.8557,9.7236,9.6392,9.6098,9.4189,9.3015,9.2868,9.2024,9.1583,9.1583,9.1473,9.1069,9.0408,9.0115,8.9271,8.7949,8.6885,8.6407,8.6224,8.3434,8.2039,8.1672,8.0204,7.9176,7.8589,7.8442,7.7928,7.7304,7.7304,7.7304,7.7304,0.0,0.0,0.0,0.0,0.0,0.0,0.0,0.0,0.0,0.0,0.0,0.0,0.0,0.0,0.0,0.0,0.0,0.0,5.5537,0.0,0.0,5.7813,5.7923,5.7997,5.7997,5.7336,5.7299,5.7997,5.7997,5.9869,6.3429,6.2989,6.3649,6.5191,6.6109,6.6109,6.5521,6.6109,6.5485,6.4237,6.5742,6.5852,6.5154,6.5154,6.4714,6.398,6.3135,6.2805,6.2695,6.1998,6.2291,0.0,0.0,0.0,6.2952,6.3686,6.3319,6.3539,6.765,0.0,8.56,0.0,9.6135,9.9292,0.0,0.0,9.9438,9.9438,10.131,10.2815,10.2081,10.3293,10.4394,10.4394,10.5091,10.5385,10.4687,10.5091,10.4614,10.2375,10.1971,10.0907,9.8594,9.8264,9.7603,9.6098,9.5804,9.507,9.3675,9.3272,9.2758,9.1987,9.1179,9.0776,9.0776,9.0078,8.9674,8.9564,8.8169,8.7362,8.7105,8.4903,8.3875,8.3838,8.27,8.1415,8.0021,7.914,7.8699,7.8516,7.7781,7.7414,7.7304,7.7304,7.7304,7.7304,0.0,0.0,0.0,0.0,0.0,0.0,0.0,0.0,0.0,0.0,0.0,0.0,0.0,0.0,0.0,5.6198,5.6345,5.6381,5.6271,5.6161,5.6492,5.7299,5.7776,5.7997,5.7997,5.7666,5.7666,5.7997,5.8437,6.0786,0.0,6.4383,6.5338,6.732,6.7687,6.7393,6.6623,6.6549,6.6072,6.5558,6.6696,6.6145,6.4714,6.5632,6.5191,6.4053,6.3686,6.3539,6.3392,6.2548,6.2511,6.2805,6.2805,0.0,0.0,0.0,6.3466,6.5118,7.2386,7.8956,8.5159,0.0,9.441,9.6649,9.7566,9.7419,9.7346,9.8227,9.8924,9.9659,10.0613,10.1788,10.2595,10.2595,10.2889,10.2999,10.2595,10.2485,10.2008,10.098,9.9622,9.8374,9.7309,9.6392,9.5584,9.4887,9.441,9.3859,9.3125,9.2648,9.2207,9.1803,9.1033,9.0592,9.0592,8.9821,8.8977,8.8059,8.6444,8.5673,8.56,8.3618,8.2737,8.2663,8.1379,8.0204,7.9066,7.8222,7.7892,7.7855,7.7451,7.7304,7.7304,7.7304,7.7304,7.7304,0.0,0.0,0.0,0.0,0.0,0.0,0.0,0.0,0.0,0.0,0.0,0.0,0.0,0.0,0.0,0.0,5.7152,5.7226,5.6822,5.6235,5.6271,5.7079,5.7666,5.7997,5.7997,5.7997,5.7997,5.7997,5.9024,6.1704,6.5925,6.6329,6.8054,0.0,6.9449,6.8568,6.7944,6.7136,6.6916,6.71,6.71,6.5999,6.4494,6.5264,6.4677,6.3503,6.3943,0.0,0.0,0.0,6.2989,6.2805,6.2805,6.2401,0.0,0.0,0.0,6.6439,0.0,0.0,8.1746,8.7582,9.1069,9.3492,9.5107,9.5327,9.5547,9.6722,9.6502,9.6649,9.8447,9.9916,10.0796,10.0576,10.0907,10.109,10.0907,10.0393,9.9842,9.9438,9.764,9.6245,9.5804,9.4887,9.4116,9.3675,9.3308,9.2905,9.2501,9.184,9.14,9.1216,9.0408,9.0005,9.0005,8.9014,8.7802,8.6371,8.4976,8.4205,8.3948,8.2553,8.1672,8.1195,8.0021,7.9029,7.8222,7.7598,7.7304,7.7304,7.7304,7.7304,7.7304,7.7304,7.7304,7.7304,0.0,0.0,0.0,0.0,0.0,0.0,0.0,0.0,0.0,0.0,0.0,0.0,5.6528,5.6051,5.5978,5.6748,5.6124,5.6014,5.6748,5.6748,5.7116,5.7886,5.796,0.0,5.7997,5.7997,5.7997,5.7997,5.9575,6.2805,6.7614,6.9119,7.1945,7.5542,7.0954,6.8898,6.8788,0.0,0.0,0.0,0.0,0.0,0.0,0.0,0.0,6.1924,6.3503,0.0,0.0,0.0,0.0,0.0,0.0,6.2768,6.3062,0.0,0.0,0.0,0.0,7.2863,7.6313,8.0498,8.5637,9.0078,9.1693,9.3235,9.4373,9.4446,9.4446,9.4446,9.4593,9.7126,9.8998,9.819,9.9365,10.0099,9.9328,9.9181,9.8594,9.7089,9.6098,9.496,9.3455,9.3896,9.3639,9.206,9.2648,9.2427,9.0812,9.0702,9.0335,8.9564,8.8757,8.8316,8.8316,8.6775,8.5563,8.4719,8.3875,8.3067,8.2296,8.1452,8.0241,7.8772,7.8699,7.8185,7.7378,7.7341,7.7304,7.7304,7.7304,7.7304,7.7304,7.7304,7.7304,7.7304,0.0,0.0,0.0,0.0,0.0,0.0,0.0,0.0,0.0,0.0,0.0,0.0,0.0,5.7005,5.7262,5.7556,5.6345,5.5941,5.6748,5.6308,5.6381,5.7189,5.7703,5.7997,5.7997,5.7997,5.7997,5.7997,5.9098,6.163,6.5411,6.7026,6.9376,7.2239,7.2055,7.1394,7.0367,6.9045,0.0,0.0,0.0,0.0,0.0,0.0,0.0,0.0,0.0,0.0,0.0,0.0,0.0,0.0,0.0,0.0,0.0,0.0,0.0,0.0,0.0,0.0,7.2165,7.6717,8.0975,8.4315,8.538,8.8904,9.195,9.195,9.2794,9.3529,9.3529,9.4887,9.5914,9.5621,9.6061,9.6355,9.6061,9.6025,9.5804,9.5217,9.4446,9.3749,9.3161,9.2391,9.1693,9.1069,9.0849,9.0482,8.9858,8.9344,8.894,8.8647,8.7362,8.6407,8.5894,8.4278,8.3324,8.303,8.1709,8.0938,8.0608,7.9837,7.914,7.8552,7.8002,7.7598,7.7304,7.7304,7.7304,7.7304,7.7304,7.7304,7.7304,7.7304,7.7304,7.7365,0.0,0.0,0.0,0.0,0.0,0.0,0.0,0.0,0.0,5.4656,0.0,0.0,0.0,0.0,5.7886,5.7629,5.6859,5.6528,5.6785,5.6565,5.6638,5.7189,5.7703,5.7997,5.7997,5.7997,5.7997,5.7997,5.9098,6.1153,6.4127,6.5742,6.8091,7.0954,7.2018,7.2055,0.0,0.0,0.0,6.9412,0.0,0.0,6.5154,0.0,0.0,0.0,0.0,0.0,0.0,0.0,0.0,0.0,0.0,0.0,0.0,0.0,0.0,0.0,6.7577,0.0,0.0,7.334,7.613,7.8479,8.1195,8.4499,8.7362,8.872,9.0078,9.1289,9.2097,9.2684,9.3235,9.3822,9.4116,9.4299,9.4299,9.3822,9.3492,9.3492,9.2537,9.1877,9.1877,9.0849,9.0225,9.0225,8.9454,8.8757,8.8243,8.7435,8.6738,8.6187,8.5159,8.4205,8.3398,8.2333,8.1672,8.1379,8.0314,7.9653,7.936,7.8846,7.8442,7.8148,7.7561,7.7304,7.7304,7.7304,7.7304,7.7304,7.7304,7.7304,7.7304,7.7304,7.7304,7.7426,0.0,0.0,0.0,0.0,0.0,0.0,0.0,0.0,5.3812,5.5427,0.0,0.0,0.0,0.0,0.0,5.6932,5.7556,5.7629,5.6859,5.7519,5.796,5.796,5.7997,5.7997,5.7997,5.7997,5.7997,5.7997,5.9612,6.1594,6.4016,6.5668,6.8531,7.2275,7.077,7.0513,7.1248,0.0,7.1284,7.0881,0.0,6.5595,6.7467,0.0,0.0,0.0,6.6109,6.5411,0.0,6.3172,0.0,0.0,0.0,0.0,0.0,0.0,0.0,0.0,0.0,0.0,0.0,7.0073,7.1101,7.2826,7.9066,8.0021,8.0718,8.4682,8.6261,8.7655,9.0041,9.0555,9.1106,9.2721,9.3675,9.4189,9.4153,9.2794,9.1767,9.173,9.0335,8.9344,8.9344,8.9344,8.9307,8.9307,8.8536,8.7362,8.582,8.4939,8.3765,8.2186,8.2113,8.1746,8.0975,8.0938,8.0534,7.9764,7.9727,7.9323,7.8552,7.8552,7.8112,7.7304,7.7304,7.7304,7.7304,7.7304,7.7304,7.7304,7.7304,7.7304,7.7304,7.7304,7.7304,7.7426,0.0,0.0,0.0,0.0,0.0,5.3408,5.3995,5.4069,5.4656,0.0,0.0,0.0,5.8694,5.8877,5.8804,5.8584,5.7703,5.7042,5.6822,5.7005,5.7152,5.7152,5.7703,5.7997,5.7997,5.7997,5.7997,5.7997,5.9024,6.0199,6.1484,6.3723,6.5962,6.8238,6.9522,6.9889,6.9559,6.9559,0.0,7.0991,6.732,6.6916,0.0,0.0,0.0,0.0,0.0,6.431,6.4934,0.0,6.4861,6.5044,0.0,0.0,0.0,0.0,0.0,0.0,6.431,0.0,0.0,0.0,0.0,0.0,6.8641,7.2202,7.6019,7.8295,8.1782,8.5159,8.7545,8.8977,8.9895,9.0372,9.1106,9.1436,9.0849,8.9858,8.9014,8.8426,8.7949,8.7692,8.7692,8.7142,8.6811,8.6811,8.5527,8.4535,8.4095,8.2774,8.1525,8.0498,8.0461,8.0351,8.0131,7.9543,7.914,7.8919,7.8295,7.7892,7.7671,7.7671,7.7561,7.7304,7.7304,7.7304,7.7304,7.7304,7.7304,7.7304,7.7304,7.7304,7.7304,7.7304,7.7629,7.809,0.0,0.0,0.0,5.3702,5.3702,5.3959,5.4766,5.4913,5.5354,0.0,0.0,0.0,5.9538,6.0015,6.0089,5.9758,5.8841,5.818,5.7813,5.7813,5.7666,5.7336,5.774,5.7997,5.7997,5.7997,5.7997,5.7997,5.9134,6.0126,6.0933,6.3099,6.4934,6.6549,6.7981,0.0,0.0,0.0,0.0,0.0,6.8385,0.0,0.0,6.7871,6.7063,0.0,0.0,0.0,6.7577,6.5888,6.5411,0.0,0.0,0.0,0.0,0.0,0.0,0.0,0.0,0.0,0.0,0.0,0.0,0.0,6.4494,6.6696,6.9486,7.2496,7.5909,7.9433,8.2884,8.4829,8.6261,8.7252,8.7509,8.7802,8.8353,8.7435,8.6407,8.56,8.5196,8.5013,8.5013,8.4572,8.4278,8.4278,8.3104,8.2113,8.1452,8.0167,7.925,7.8772,7.8772,7.8772,7.8772,7.8295,7.8075,7.8075,7.7561,7.7304,7.7304,7.7304,7.7304,7.7304,7.7304,7.7304,7.7304,7.7304,7.7304,7.7304,7.7304,7.7304,7.7304,7.7304,7.771,7.8379,0.0,0.0,5.4399,5.4399,5.4399,5.473,5.5721,5.5713,5.5962,0.0,5.7997,5.9098,6.0639,6.1447,6.1557,6.075,6.0676,6.0309,5.9391,5.9355,5.8988,5.818,5.8033,5.7997,5.7997,5.7997,5.8033,5.8143,5.9648,6.086,6.1777,6.3429,6.5044,6.6512,6.6586,0.0,0.0,0.0,0.0,6.9926,6.9376,7.0991,0.0,0.0,7.2936,7.3377,7.1945,7.1394,7.0734,6.688,6.4897,0.0,0.0,0.0,0.0,0.0,6.5375,0.0,0.0,0.0,0.0,0.0,6.3503,0.0,6.4053,6.3135,6.2952,6.732,6.9596,7.2202,7.679,7.9103,8.0975,8.2957,8.303,8.3765,8.6261,8.5233,8.3911,8.3104,8.237,8.1929,8.1929,8.1929,8.1929,8.1929,8.1195,8.0057,7.8552,7.7745,7.7304,7.7304,7.7304,7.7304,7.7304,7.7304,7.7304,7.7304,7.7304,7.7304,7.7304,7.7304,7.7304,7.7304,7.7304,7.7304,7.7304,7.7304,7.7304,7.7304,7.7365,7.7426,7.7426,7.751,7.796,7.8588,0.0,5.4289,5.4399,5.4399,5.4399,5.5097,5.7189,5.6478,5.6661,5.9333,6.097,6.2254,6.3282,6.3503,6.3282,6.2438,6.2328,6.1741,6.0272,6.0162,5.9832,5.9024,5.8364,5.7997,5.7997,5.7997,5.8327,5.8988,5.9942,6.1153,6.2622,6.4273,6.5595,6.6512,6.7173,6.754,0.0,0.0,0.0,6.9229,7.0367,7.1982,7.3597,7.2826,7.2606,7.2679,7.2386,7.1872,7.0881,6.8164,6.5815,6.431,0.0,0.0,0.0,6.6512,0.0,0.0,0.0,0.0,0.0,0.0,6.3943,0.0,6.1006,6.152,6.2842,6.3796,6.5852,6.8311,7.1211,7.4147,7.5836,7.4992,7.7488,8.0608,8.3691,8.2737,8.1415,8.0608,8.0351,8.0241,8.0241,8.0241,8.0241,8.0241,7.9507,7.8626,7.7635,7.7414,7.7304,7.7304,7.7304,7.7304,7.7304,7.7304,7.7304,7.7304,7.7304,7.7304,7.7304,7.7304,7.7304,7.7304,7.7304,7.7304,7.7304,7.7304,7.7304,7.7365,7.7903,7.809,7.8146,7.8653,7.9244,7.9765,5.473,5.506,5.5464,5.506,5.5647,5.6621,5.7813,5.7695,5.828,6.0674,6.3152,6.4824,6.5228,6.5301,6.4971,6.4127,6.4053,6.3539,6.2328,6.1851,6.1263,6.0419,5.9648,5.9024,5.8621,5.8988,5.9208,5.9208,6.0823,6.2254,6.3466,6.5118,6.5888,6.5962,6.7136,6.7247,6.6549,0.0,6.8385,6.9633,7.1248,0.0,7.3744,7.4147,7.4294,7.4258,7.3854,7.2936,7.1468,6.8641,6.7136,0.0,6.5558,6.5007,6.4971,0.0,6.5962,6.4971,0.0,0.0,0.0,6.4163,6.3466,0.0,0.0,5.9538,6.0052,6.086,6.1998,6.3613,6.5999,6.8458,7.0257,7.066,7.2422,7.4625,7.7047,7.8405,7.8736,7.7488,7.7341,7.7341,7.7341,7.7708,7.8112,7.8516,7.8185,7.7781,7.7341,7.7304,7.7304,7.7304,7.7304,7.7304,7.7304,7.7304,7.7121,7.6717,7.7121,7.7121,7.6717,7.7121,7.7304,7.7304,7.7304,7.7304,7.7304,7.7304,7.751,7.7789,7.8146,7.8309,7.8379,7.8962,7.9556,8.0125,5.517,5.5904,5.6602,5.5941,5.6914,5.7911,5.8356,5.8771,5.9701,6.1774,6.5077,6.7136,6.699,6.6806,6.6549,6.6035,6.5264,6.4824,6.4787,6.3539,6.2365,6.141,6.0896,6.0126,5.8988,5.9905,6.0236,5.9905,6.1851,6.3392,6.4567,6.5888,6.6256,6.5815,6.6806,6.6696,0.0,0.0,0.0,7.0257,7.2018,7.312,7.3891,7.5506,7.6093,7.6019,7.5359,7.4111,7.2275,6.9192,6.8495,6.8421,6.5668,6.5448,0.0,0.0,0.0,0.0,0.0,0.0,0.0,0.0,0.0,6.163,0.0,0.0,0.0,5.9024,5.9098,5.9538,6.1337,6.3025,6.4604,6.6109,6.7247,6.8311,6.9302,7.2532,7.4515,7.3854,7.3744,7.3927,7.4404,7.4771,7.5542,7.6974,7.6497,7.6387,7.6827,7.7011,7.7011,7.6864,7.6864,7.6864,7.6864,7.6864,7.6533,7.5873,7.6533,7.6607,7.613,7.679,7.7157,7.7304,7.7304,7.7304,7.7304,7.7304,7.771,7.8309,7.8432,7.8536,7.8704,7.9335,7.9888,8.0315,5.6712,5.6675,5.6785,5.6675,5.6819,5.7634,5.9691,5.8895,5.9394,6.3215,6.723,6.9412,6.8715,0.0,0.0,0.0,0.0,0.0,6.71,6.4457,6.2144,6.0603,6.1117,6.0419,5.818,5.9612,6.1043,6.2401,6.2695,6.398,6.6219,6.6402,6.6843,6.7357,6.6145,6.6256,0.0,0.0,6.7981,7.0293,7.2642,7.3597,7.3891,7.5506,7.6093,7.6093,7.6019,7.4918,7.3193,7.066,6.9412,6.8715,0.0,6.6439,6.5852,6.8017,0.0,0.0,0.0,0.0,0.0,6.5999,6.6623,6.6769,6.2328,0.0,6.0713,5.9465,0.0,5.7997,5.7556,0.0,0.0,5.7409,6.1337,6.42,6.2879,6.4347,6.6586,6.9265,6.9596,7.044,7.2569,7.1578,7.2312,7.5946,7.3597,7.2936,7.5065,7.5873,7.5909,7.5212,7.5175,7.5175,7.5175,7.5175,7.5139,7.5065,7.5139,7.5506,7.6093,7.6203,7.6644,7.7304,7.7304,7.7304,7.7304,7.7304,7.771,7.8325,7.8865,7.9425,7.9969,8.0608,8.0926,8.0991,5.6969,5.7189,0.0,5.6895,5.8348,5.975,6.0269,6.2988,6.5447,6.6657,7.035,7.2936,0.0,0.0,0.0,0.0,0.0,6.6916,0.0,0.0,6.4163,6.3943,6.3833,6.3062,6.1557,6.2658,6.3356,6.3539,6.4494,6.5485,6.6512,6.699,6.7136,6.6953,6.5815,0.0,6.6329,0.0,6.7614,6.9596,7.2018,7.3266,7.3927,7.6019,7.6827,7.668,7.5763,7.4992,7.3964,7.1064,7.0183,7.0,6.8238,6.7247,0.0,6.7907,0.0,0.0,0.0,0.0,6.8274,6.6439,6.6072,6.5448,6.2879,6.1557,6.0713,6.0052,0.0,0.0,0.0,0.0,0.0,0.0,5.8621,5.9612,5.8914,5.9024,6.0896,6.5558,6.5264,6.5632,6.8091,6.8128,6.8898,7.1064,7.0403,7.077,7.2716,7.4037,7.4771,7.4918,7.4918,7.4918,7.4918,7.4918,7.4661,7.4221,7.4698,7.5102,7.5432,7.5909,7.6533,7.7304,7.7304,7.7304,7.7304,7.7304,7.7866,7.8853,7.9105,7.9556,8.0163,8.0855,8.1093,8.1093,0.0,0.0,0.0,5.7226,5.9249,6.0981,6.1019,6.5803,6.9379,6.9235,7.2376,0.0,7.6313,7.4478,0.0,0.0,7.1945,6.9743,0.0,0.0,6.5852,6.4861,6.5778,0.0,6.3135,6.4751,6.5448,6.5081,6.6256,6.6953,6.7173,6.776,6.7577,6.6769,6.5999,6.5888,6.6366,0.0,6.8531,7.0403,7.2606,7.3964,7.4845,7.6387,7.7121,7.7157,7.5983,7.5285,7.4515,7.1945,7.1321,7.1248,6.9045,6.8201,6.7981,6.776,0.0,0.0,6.7247,6.8017,6.8311,6.688,6.5632,6.4457,6.3392,6.2071,6.0933,6.0493,6.0126,0.0,0.0,0.0,5.6859,5.7005,0.0,5.6088,5.5831,5.4913,5.6051,6.086,6.1337,6.2254,6.4751,6.4677,6.5228,6.6916,6.6549,6.7357,6.9853,7.1505,7.2863,7.3891,7.4147,7.4258,7.4258,7.4258,7.3964,7.3377,7.3964,7.4368,7.4588,7.5395,7.6093,7.668,7.7121,7.7194,7.7011,7.7231,7.8053,7.9198,7.9198,7.9642,8.0463,8.0926,8.1093,8.1093,5.8107,5.796,0.0,0.0,5.871,5.9993,6.2284,6.5484,6.8233,6.9751,7.2134,0.0,0.0,0.0,0.0,0.0,0.0,7.1872,7.345,0.0,6.6329,6.086,6.5852,6.6182,0.0,6.442,6.6843,6.7577,6.7614,6.8054,6.8825,6.8862,6.8421,6.7614,6.6806,6.732,6.8862,6.9633,7.1358,7.367,7.5322,7.6497,7.7121,7.6423,7.6644,7.7304,7.7268,7.624,7.4771,7.3891,7.3083,7.2165,7.055,6.9486,6.8715,6.7907,6.765,6.7504,6.6733,6.8825,7.044,6.7283,6.6476,6.5999,6.442,6.3356,6.2291,6.0713,6.1006,6.0566,5.7409,5.6822,5.6308,0.0,5.4473,0.0,0.0,5.194,5.1903,5.4399,5.8107,6.141,6.3906,6.13,6.1117,6.5081,6.1741,6.163,6.6402,6.8201,6.9779,7.1394,7.2165,7.2569,7.2569,7.2569,7.2569,7.2532,7.2569,7.2973,7.378,7.4588,7.4955,7.5065,7.6644,7.6864,7.6203,7.7011,7.8053,7.9198,7.9198,7.9967,8.1061,8.1093,8.1093,8.1093,0.0,0.0,0.0,0.0,0.0,6.1995,6.5493,6.8757,7.2217,7.598,7.817,0.0,0.0,8.3728,8.2884,0.0,0.0,7.7268,7.6166,7.356,0.0,6.6953,6.8678,6.8531,0.0,0.0,6.9009,6.9265,6.9265,6.9412,6.9669,6.9155,6.9045,6.9155,6.6769,6.6916,0.0,0.0,0.0,7.2349,7.5028,7.6937,7.8075,7.7231,7.7084,7.7194,7.6093,7.5359,7.4698,7.3377,7.2716,7.2239,7.0624,6.9926,6.9412,6.8091,6.8091,6.8421,6.8164,6.9669,7.066,6.7981,6.7687,6.7393,6.4714,6.4714,6.4347,6.108,6.1484,6.141,5.818,5.7152,5.6455,5.5354,5.4289,5.3151,0.0,5.0178,5.0068,5.2527,5.495,5.6565,5.6859,5.5904,5.6014,5.796,5.7299,5.8474,6.2254,6.5558,6.8054,6.9669,7.1027,7.1982,7.2496,7.2496,7.2496,7.2496,7.2496,7.3193,7.4478,7.4221,7.4698,7.5689,7.5726,7.5579,7.5322,7.5616,7.6254,7.7042,7.7438,7.809,7.9006,8.0536,8.1093,8.1016,5.9685,0.0,0.0,0.0,0.0,0.0,6.7173,7.1394,0.0,0.0,8.2186,0.0,9.0519,0.0,8.7839,0.0,8.582,8.2333,7.8442,7.7011,0.0,6.9853,7.077,0.0,0.0,0.0,0.0,0.0,6.9963,7.0257,7.0513,6.9412,6.9192,6.9596,6.7504,6.743,6.8972,7.011,7.1211,7.2422,7.5359,7.7011,7.7635,7.7084,7.7084,7.7121,7.5506,7.4735,7.4331,7.3266,7.2569,7.1908,7.0844,6.9926,6.9045,6.7981,6.8274,6.8862,6.8568,6.9853,7.0807,6.8641,6.8531,6.8128,6.5191,6.5778,6.5852,6.2034,6.2108,6.2108,5.9722,5.7923,5.6638,5.6088,5.4436,5.2527,0.0,4.9664,4.9774,5.1389,5.2747,5.3445,5.3225,5.3225,5.3078,5.2711,5.3445,5.517,5.8107,6.2314,6.5557,6.7577,7.0182,7.1729,7.2092,7.2349,7.2496,7.2496,7.2496,7.3046,7.4037,7.3817,7.4111,7.4808,7.4882,7.4588,7.4074,7.4368,7.4996,7.5818,7.6157,7.6951,7.816,7.9614,8.0169,8.0092,6.0676,0.0,0.0,0.0,6.2695,0.0,0.0,0.0,7.8038,0.0,8.4278,8.85,9.1803,9.1363,9.1179,9.1987,9.0555,8.6921,8.0681,8.0865,0.0,0.0,7.2275,7.1651,6.6916,0.0,0.0,0.0,0.0,7.055,7.1284,6.9669,6.8898,6.8898,6.8862,6.8862,6.9045,7.2202,7.3597,7.3964,7.6313,7.6827,7.6203,7.6056,7.6533,7.7047,7.5432,7.4368,7.367,7.3597,7.2569,7.1321,7.1211,6.9596,6.776,6.776,6.8311,6.8788,6.8017,6.9522,7.0917,6.9302,6.8898,6.8274,6.5925,6.6549,6.6769,6.3503,6.2842,6.2585,6.163,5.8951,5.6822,5.6748,5.473,5.2307,4.9884,5.0288,5.0839,5.0912,5.1499,5.2197,5.3004,5.3041,5.205,4.9701,5.0251,5.172,5.4112,5.8656,6.2369,6.511,6.9595,7.1784,7.1397,7.2169,7.2573,7.261,7.2553,7.2553,7.2684,7.3361,7.323,7.27,7.4111,7.3854,7.2496,7.323,7.4227,7.5274,7.5274,7.6503,7.8246,7.84,7.84,7.8361,6.2108,6.3356,6.4677,0.0,6.6329,6.7393,6.9192,0.0,0.0,0.0,8.8316,9.2281,9.6759,9.5437,9.4336,9.4556,9.3088,0.0,0.0,0.0,0.0,7.635,7.6276,7.4698,7.1027,7.2129,0.0,7.1578,0.0,7.1101,7.1284,6.9669,6.8898,6.8862,6.8274,6.8017,6.8128,7.0146,7.2386,7.4698,7.5909,7.7047,7.7671,7.5249,7.5175,7.6203,7.4588,7.3891,7.3523,7.2312,7.1651,7.1101,6.9889,6.9082,6.8605,6.8605,6.9155,6.9743,6.9522,7.0367,7.0917,6.9302,6.8898,6.8421,6.6623,6.6953,6.6769,6.3503,6.3319,6.2952,6.0309,5.8657,5.7299,5.6088,5.3885,5.1867,5.0655,5.0655,5.1242,5.2454,5.1169,5.0508,5.1353,5.0839,4.9958,4.8746,4.882,4.9857,5.1973,5.7332,6.1338,6.3522,6.7696,7.078,7.2557,7.2782,7.3194,7.3841,7.3391,7.3727,7.4693,7.3406,7.3258,7.3972,7.276,7.2018,7.1578,7.1174,7.1463,7.2117,7.2573,7.3609,7.5014,7.6899,7.7207,7.6553,6.3282,6.5264,0.0,6.8531,0.0,7.2642,7.3193,7.69,8.1415,8.6371,9.0445,0.0,9.6685,9.6722,9.6428,9.6061,9.4556,0.0,8.9601,0.0,0.0,8.0351,7.8699,7.635,7.3083,7.2422,0.0,7.1468,0.0,7.0293,7.1284,6.9302,6.8568,6.8862,6.8054,6.7907,6.8348,7.033,7.2789,7.5432,7.5542,7.613,0.0,7.4551,7.4037,7.4404,7.3487,7.3193,7.3046,7.2129,7.1615,7.1211,7.066,7.0,6.9486,6.9853,7.0293,7.055,7.0183,7.0697,7.0917,6.9302,6.9155,6.8898,6.6953,6.6843,6.6549,6.4347,6.3135,6.2034,6.0529,5.8731,5.6969,5.5317,5.3628,5.2234,5.1426,5.1646,5.205,5.2601,5.1793,5.1059,5.0839,4.937,4.8122,4.7315,4.8089,4.9119,5.0184,5.6133,6.0109,6.1354,6.6711,7.0153,7.1346,7.2817,7.3652,7.3765,7.3747,7.4206,7.4928,7.3513,7.3326,7.3974,7.2134,7.1101,7.0734,6.9926,7.0036,7.0879,7.2092,7.2964,7.363,7.4668,7.5014,7.4861,6.453,0.0,0.0,0.0,0.0,7.8442,7.8442,8.0791,8.3838,8.7362,9.206,9.507,9.507,9.6759,9.7603,9.6906,9.529,9.3088,9.0262,8.9087,8.6775,8.2847,8.0571,7.7745,7.4258,7.1908,7.066,0.0,0.0,6.8972,7.1101,6.8678,6.7981,6.8715,6.7907,6.7907,6.8752,7.1174,7.3413,7.5285,7.4918,7.4808,7.4808,7.3891,7.3156,7.2642,7.2532,7.2496,7.2496,7.2386,7.1872,7.1431,7.2018,7.1211,7.0257,7.1064,7.1248,7.0991,7.0293,7.055,7.0624,6.9119,6.9265,6.9229,6.7136,6.6476,6.6145,6.5448,6.2768,6.075,6.1337,5.8804,5.6161,5.4656,5.3739,5.2968,5.227,5.2747,0.0,5.238,5.2564,0.0,5.1059,4.882,4.7058,4.614,4.7782,4.8758,4.8679,5.4836,5.8644,5.9148,6.5922,6.9541,6.9585,7.2538,7.3825,7.3408,7.3968,7.4351,7.4506,7.3747,7.3367,7.3268,7.182,7.0697,6.9889,6.9154,6.9543,7.0723,7.2448,7.3168,7.3091,7.2322,7.2514,7.3168,6.6806,0.0,0.0,0.0,0.0,7.9066,8.3618,8.8096,9.1253,9.195,9.6245,9.9255,9.9255,9.8447,9.7823,9.7676,9.5621,0.0,0.0,0.0,0.0,8.5306,8.4132,8.1379,7.679,7.4955,7.3744,0.0,7.0146,6.9265,7.0257,6.7834,6.7136,6.7871,6.7063,6.6769,6.7063,6.9486,7.077,7.1321,7.3156,7.4294,7.4735,7.3266,7.3046,7.3377,7.2753,7.2496,7.2422,7.1725,7.1431,7.1211,7.0697,7.033,7.0257,7.1064,7.0844,7.0293,7.0146,6.9706,6.9082,6.8128,6.8017,6.7981,6.7577,6.6476,6.5485,6.5338,6.3209,6.1227,6.0713,5.796,5.55,5.4546,5.3739,5.3151,5.3004,5.3115,5.3408,5.3922,5.1756,5.0618,5.1683,5.0141,4.8489,4.7021,4.7525,4.7735,4.7353,5.2672,5.6575,5.8399,6.377,6.8262,7.1658,7.2272,7.3538,7.5456,7.4476,7.4552,7.5654,7.4079,7.3276,7.2943,7.1109,6.9853,6.91,6.8716,6.9203,7.0255,7.1036,7.136,7.1321,7.1168,7.1206,7.136,7.0477,0.0,0.0,0.0,7.9653,8.3838,8.8243,9.3088,9.5474,9.3382,9.5474,9.7199,9.7199,9.7603,9.7897,9.7897,9.5694,9.4299,9.4299,9.1583,8.9124,8.7142,8.5086,8.2296,7.8699,7.5359,7.367,7.3707,6.9633,6.8274,6.9449,6.7871,6.688,6.6439,6.6035,6.6109,6.6623,6.8641,6.9963,7.0881,7.2459,7.356,7.4147,7.2936,7.2753,7.3046,7.2642,7.2496,7.2459,7.2055,7.1945,7.1872,7.1468,7.1064,7.0807,7.1211,7.0734,7.0,6.9596,6.9192,6.8715,6.7907,6.7687,6.7577,6.7173,6.6476,6.5705,6.4861,6.3025,6.108,5.9465,5.7189,5.5464,5.5097,5.4363,5.3702,5.3261,5.2858,5.2711,5.3115,5.1022,4.9884,5.0655,4.9627,4.8494,4.7496,4.8194,4.8286,4.7327,5.204,5.5455,5.6896,6.1897,6.6167,6.9513,7.1321,7.3053,7.4707,7.442,7.4746,7.548,7.393,7.2941,7.2482,7.066,6.9651,6.9346,6.9316,6.9664,7.0162,7.0681,7.0898,7.0898,7.0898,7.0629,7.036,0.0,7.5542,0.0,0.0,8.4792,8.8683,9.14,9.5951,9.8043,9.5034,9.5327,9.5768,9.5584,9.7126,9.808,9.7897,9.5694,9.4299,9.4299,9.1546,8.9417,8.8243,8.5783,8.3067,8.0094,7.5763,7.3487,7.345,6.9119,6.7467,6.8385,6.7724,6.6586,6.5081,6.5411,6.5705,6.6109,6.8091,6.9633,7.0917,7.2055,7.2899,7.334,7.2569,7.2349,7.2496,7.2312,7.2349,7.2459,7.2312,7.2349,7.2459,7.2092,7.1688,7.1284,7.1101,7.0477,6.9706,6.9082,6.8788,6.8495,6.7834,6.7687,6.7467,6.6659,6.6366,6.5852,6.4383,6.2622,6.0639,5.84,5.6822,5.5868,5.5868,5.5023,5.4179,5.3555,5.2747,5.2123,5.1793,5.0618,4.9627,4.9114,4.8453,4.7831,4.7341,4.8566,4.8764,4.7548,5.1595,5.4318,5.5126,6.0281,6.4359,6.7051,7.0129,7.236,7.3783,7.4207,7.4574,7.4786,7.3566,7.2515,7.1652,7.0262,6.9733,6.9791,7.0004,7.0162,7.033,7.0556,7.0629,7.0629,7.0437,6.9975,6.9513,0.0,0.0,8.1452,8.4682,8.8023,9.0629,9.1657,9.5951,9.9255,9.9585,10.0283,10.0503,9.9805,9.9292,9.8704,9.797,9.5694,9.4299,9.4299,9.2574,9.0555,8.8316,8.7912,8.56,8.1012,7.8259,7.5469,7.2606,6.9963,6.8017,6.6733,6.6659,6.5742,6.4273,6.5742,6.5632,6.453,6.7614,6.9009,6.9339,7.1578,7.2569,7.2532,7.1725,7.1872,7.2422,7.1688,7.1872,7.2386,7.1688,7.1908,7.2239,7.077,7.077,7.1174,7.044,6.9633,6.9009,6.8935,6.8385,6.7797,6.7724,6.7687,6.7467,6.6659,6.5925,6.5154,6.4273,6.2181,6.0015,5.8327,5.7299,5.6712,5.6712,5.539,5.4363,5.4289,5.3592,5.2564,5.1096,5.0765,4.9811,4.7572,4.7278,4.6868,4.6045,4.7438,4.8094,4.7548,5.0462,5.2549,5.3395,5.9127,6.3782,6.7051,6.8975,7.1514,7.4591,7.3937,7.373,7.402,7.3338,7.1876,7.0012,6.9778,6.9853,7.0068,7.0099,7.0362,7.0766,7.0063,6.9821,6.9706,6.8936,6.859,6.8552,8.2627,8.2851,8.3883,8.766,8.9366,9.137,9.4568,9.7356,9.9548,10.087,10.1274,10.098,9.9732,9.9292,9.8411,9.6612,9.5144,9.4079,9.3602,9.1546,8.9931,8.8977,8.7545,8.5159,8.1782,7.9323,7.624,7.2496,7.1064,6.9265,6.721,6.6733,6.5375,6.3392,6.453,6.4971,6.5007,6.776,6.9192,6.9779,7.1725,7.2496,7.2459,7.2165,7.1945,7.1762,7.1431,7.1211,7.0954,7.0146,7.0734,7.1578,7.044,7.0,6.9816,6.9486,6.8825,6.8164,6.8164,6.7944,6.7687,6.7687,6.7687,6.7357,6.6072,6.5888,6.5521,6.3686,6.1777,6.0052,5.8951,5.7666,5.6638,5.6161,5.5133,5.4216,5.3739,5.2564,5.1353,5.0141,4.8746,4.7462,4.6471,4.6397,4.6826,4.8004,4.7692,4.7403,4.7162,4.9221,5.1279,5.3126,5.7511,6.1666,6.5551,6.7821,7.0629,7.3976,7.3668,7.345,7.3342,7.2608,7.1266,6.9547,6.9844,7.0187,7.0593,7.0593,7.0412,7.0167,6.9821,6.9398,6.8898,6.8552,6.809,6.7552,8.639,8.613,8.6773,9.0264,9.0824,9.2216,9.6249,9.7585,9.8936,10.0943,10.0907,10.0393,9.9218,9.8704,9.7603,9.5694,9.4556,9.3712,9.3125,9.0996,8.9674,8.9417,8.7545,8.527,8.2627,8.0424,7.7304,7.323,7.1945,6.9963,6.732,6.6512,6.5228,6.3576,6.4677,6.5448,6.6145,6.8348,6.9706,7.0587,7.1945,7.2496,7.2459,7.2239,7.1945,7.1615,7.1138,7.0734,7.0293,6.9265,6.9669,7.0477,6.9633,6.9155,6.8862,6.8605,6.8128,6.7687,6.7687,6.7687,6.7687,6.7687,6.7504,6.699,6.5632,6.5558,6.5081,6.2622,6.1006,5.9795,5.9024,5.774,5.6602,5.6051,5.506,5.4216,5.3628,5.216,5.0839,4.9994,4.8379,4.7058,4.6324,4.636,4.6995,4.8372,4.7424,4.7044,4.7606,4.9009,5.0702,5.2741,5.6626,6.0589,6.4551,6.7128,7.0014,7.3129,7.3129,7.292,7.2503,7.1511,7.0529,6.955,6.9957,7.0394,7.0898,7.0629,7.0206,6.9667,6.9129,6.8552,6.7975,6.7744,6.7128,6.6282,8.8245,8.9347,9.0564,9.2481,9.2826,9.3577,9.5678,9.5997,9.7041,9.9902,9.9622,9.9145,9.9108,9.7676,9.6392,9.5584,9.4042,9.3125,9.3088,9.151,9.0225,8.9454,8.861,8.6664,8.3471,8.1819,7.8993,7.4882,7.2496,6.9669,6.6512,6.5705,6.5301,6.5338,6.6953,6.765,6.776,6.9376,7.055,7.1358,7.2165,7.2496,7.2422,7.1651,7.1798,7.2275,7.0697,7.0624,7.1064,6.9449,6.8898,6.8788,6.7981,6.8274,6.8752,6.7944,6.7687,6.7687,6.7687,6.7687,6.7687,6.7687,6.71,6.6292,6.5485,6.4677,6.3429,6.0933,5.9795,5.8988,5.8143,5.7336,5.6822,5.6785,5.5427,5.4399,5.4399,5.3004,5.1683,5.0875,5.0765,4.9774,4.7352,4.7455,4.718,4.594,4.6111,4.7193,4.926,5.0202,5.1048,5.1895,5.6857,6.1127,6.4589,6.7128,6.9667,7.2206,7.2206,7.1927,7.1357,6.9966,6.9588,7.0095,7.0095,7.0394,7.0821,7.0052,6.9706,6.9513,6.7782,6.7128,6.7013,6.6205,6.5397,6.4628,9.1666,9.0818,9.0353,9.2085,9.3131,9.4149,9.5307,9.7435,9.9038,9.9396,9.9255,9.8888,9.8337,9.7346,9.6171,9.4813,9.3712,9.2868,9.2244,9.0702,8.9674,8.9417,8.8096,8.6151,8.3471,8.237,7.9543,7.4918,7.4147,7.1835,6.8164,6.8458,6.7687,6.6219,6.8348,6.9339,6.9449,7.1064,7.1872,7.2165,7.2422,7.2496,7.2459,7.2239,7.1945,7.1541,7.0477,6.9926,6.9522,6.8421,6.8091,6.8017,6.776,6.7871,6.8017,6.776,6.7687,6.7687,6.7687,6.7687,6.7687,6.7687,6.71,6.6145,6.4787,6.2989,6.1337,6.0566,5.9758,5.9134,5.8877,5.7262,5.5978,5.5978,5.462,5.3408,5.2821,5.183,5.0655,4.926,4.8636,4.7755,4.6434,4.6875,4.7627,4.8334,4.8445,4.849,4.8529,4.9894,5.1856,5.4395,5.8319,6.2012,6.5436,6.8013,7.0283,7.2206,7.2206,7.1927,7.1353,7.0337,6.9918,7.009,6.9919,6.9903,7.0014,6.9167,6.8475,6.7821,6.6705,6.6282,6.609,6.4666,6.432,6.4436,9.2192,9.1116,9.04,9.0872,9.2337,9.3757,9.4605,9.7027,9.8737,9.9029,9.8594,9.8117,9.7897,9.6649,9.5401,9.4373,9.3272,9.2391,9.184,9.0592,8.9748,8.9417,8.8169,8.6334,8.3911,8.2774,8.0424,7.6754,7.4918,7.2422,6.9376,6.9559,6.9009,6.7944,7.0073,7.0991,7.1101,7.2386,7.2789,7.2496,7.2496,7.2496,7.2496,7.2496,7.2018,7.1248,7.0734,7.0036,6.9229,6.8421,6.8128,6.8091,6.7797,6.7687,6.7687,6.7687,6.7687,6.7687,6.7687,6.7687,6.7687,6.7687,6.688,6.5558,6.3576,6.1484,5.9942,5.9942,5.9318,5.8767,5.8767,5.7005,5.5574,5.5574,5.4252,5.2931,5.2087,5.1316,5.0508,4.9774,4.9003,4.8416,4.8196,4.8605,4.9094,4.9475,5.0388,5.0374,4.9202,5.0721,5.2895,5.5588,5.9319,6.2897,6.632,6.859,7.0398,7.1706,7.1398,7.1094,7.0707,6.9827,6.9444,6.9437,6.9289,6.9206,6.9129,6.8282,6.7398,6.6551,6.5743,6.5205,6.4782,6.3705,6.3435,6.3512,9.0319,9.0434,9.0569,8.9397,9.0971,9.2684,9.3846,9.5233,9.6738,9.846,9.7599,9.7016,9.7562,9.5658,9.4263,9.4226,9.2721,9.1803,9.1803,9.0996,9.0188,8.9454,8.8536,8.6958,8.4646,8.2957,8.1269,7.9543,7.4918,7.1872,7.033,6.9596,6.9633,7.0403,7.1982,7.2679,7.2716,7.3413,7.3266,7.2569,7.2569,7.2569,7.2569,7.2569,7.2129,7.1468,7.1358,7.0844,7.0036,6.9192,6.8898,6.8752,6.7944,6.7687,6.7687,6.7687,6.7724,6.776,6.776,6.7797,6.7834,6.7797,6.6439,6.453,6.2144,6.0309,5.9134,5.9134,5.851,5.7997,5.7997,5.6675,5.5574,5.5574,5.4252,5.2894,5.205,5.1316,5.1132,5.1756,5.1206,5.1096,5.183,5.1892,5.1224,4.9784,5.1849,5.2587,5.1222,5.2646,5.4241,5.5934,6.0089,6.3858,6.7167,6.8898,7.0129,7.0821,7.0052,6.9667,6.959,6.8783,6.8398,6.8398,6.8359,6.8282,6.8167,6.7282,6.6436,6.5628,6.4782,6.3974,6.3281,6.3166,6.2704,6.2089,9.0709,9.0113,8.9823,9.0674,9.1995,9.3103,9.3381,9.5925,9.6886,9.4696,9.623,9.6814,9.484,9.4427,9.4042,9.3455,9.2391,9.1803,9.1803,9.0482,8.9601,8.9417,8.7435,8.582,8.4646,8.2406,7.9874,7.6974,7.5212,7.3817,7.2826,7.2642,7.2679,7.2899,7.3891,7.4331,7.4294,7.3891,7.3597,7.3413,7.3413,7.3413,7.3413,7.3413,7.3303,7.2973,7.1762,7.1211,7.0807,6.9376,6.8898,6.8752,6.7944,6.7687,6.7687,6.7687,6.8128,6.8605,6.8605,6.9045,6.9376,6.8752,6.5999,6.3099,6.1851,5.9869,5.829,5.829,5.8143,5.7997,5.7997,5.6675,5.5574,5.5574,5.4252,5.2711,5.1279,5.1463,5.1316,5.0215,5.0508,5.0875,5.1059,5.1343,5.172,5.2265,5.2563,5.3024,5.3762,5.536,5.6994,5.8688,6.2267,6.5436,6.809,6.9783,7.0398,6.9975,6.9783,6.936,6.8706,6.8513,6.8398,6.8359,6.7705,6.7051,6.6436,6.5551,6.4705,6.382,6.3012,6.2935,6.3128,6.1858,6.1704,6.1973,9.0147,8.9559,8.9342,9.0154,9.1652,9.2616,9.2304,9.4614,9.5494,9.3203,9.4482,9.5216,9.4264,9.3679,9.3472,9.3601,9.2501,9.1803,9.1803,9.0629,8.9784,8.9454,8.7802,8.6187,8.4646,8.259,7.9947,7.6644,7.5836,7.5249,7.4771,7.4404,7.4258,7.4294,7.5102,7.5249,7.4918,7.4845,7.4368,7.3707,7.4111,7.3817,7.3193,7.356,7.323,7.2532,7.2055,7.1615,7.1138,6.9889,6.9706,6.9743,6.8164,6.8201,6.8641,6.7907,6.8274,6.8898,6.8898,6.9486,6.9743,6.8201,6.5595,6.3062,6.1851,6.0015,5.8547,5.8547,5.8253,5.7997,5.7997,5.6675,5.5574,5.5574,5.3922,5.2234,5.0986,5.1169,5.1242,5.0692,5.1389,5.2283,5.3188,5.3682,5.3945,5.4078,5.4778,5.5263,5.536,5.735,5.8906,5.9813,6.3081,6.5807,6.7936,6.9167,6.9744,6.9706,6.8898,6.8244,6.7782,6.7436,6.7051,6.6628,6.6167,6.5474,6.4666,6.4205,6.3512,6.2704,6.2281,6.2127,6.205,6.1127,6.1089,6.1358,8.9261,8.9072,8.9106,8.9241,9.0755,9.1608,9.0987,9.25,9.3396,9.2427,9.2706,9.32,9.3801,9.2963,9.2718,9.3557,9.2537,9.1803,9.1803,9.0922,9.0115,8.9454,8.839,8.6775,8.4462,8.259,8.0241,7.7304,7.6497,7.6093,7.6093,7.5395,7.5102,7.5139,7.5909,7.5909,7.5322,7.5873,7.5322,7.4111,7.4808,7.4258,7.312,7.367,7.3046,7.1908,7.2349,7.2055,7.1358,7.055,7.0734,7.0917,6.8752,6.9009,6.9816,6.8458,6.8641,6.9229,6.8972,6.9412,6.9412,6.721,6.5375,6.3686,6.2144,6.0529,5.9355,5.9245,5.8657,5.8143,5.8033,5.6675,5.5574,5.5574,5.3555,5.1761,5.0996,5.0996,5.1327,5.1989,5.2954,5.43,5.6105,5.6732,5.6664,5.5728,5.7311,5.7841,5.6767,5.8823,6.0077,6.0231,6.3226,6.5743,6.7552,6.8129,6.8706,6.9283,6.7821,6.6974,6.6705,6.6013,6.5243,6.4397,6.4397,6.3897,6.3128,6.3128,6.2627,6.1897,6.1897,6.1435,6.0781,6.0781,6.0781,6.0666,8.9184,8.9072,8.9275,8.9918,9.0313,9.0459,9.0357,9.1461,9.1749,8.9956,9.1565,9.2117,8.9885,9.1283,9.1882,9.0791,9.1319,9.1803,9.1803,9.0408,8.9564,8.9417,8.7325,8.5343,8.3618,8.0681,7.8552,7.7304,7.6497,7.6093,7.6093,7.5983,7.5909,7.5946,7.6754,7.7047,7.69,7.635,7.5946,7.5726,7.5873,7.5763,7.5469,7.4918,7.4588,7.4184,7.2936,7.2422,7.2202,7.1394,7.1211,7.1138,7.0073,6.9889,7.0036,6.9779,7.0293,7.066,6.9265,6.9009,6.8825,6.776,6.5778,6.3833,6.2842,6.1374,6.0015,5.9355,5.9098,5.8804,5.8143,5.6675,5.5574,5.5574,5.3555,5.1808,5.1306,5.1862,5.2345,5.2419,5.4123,5.5575,5.6257,5.7035,5.772,5.8262,5.8309,5.855,5.9111,5.9677,6.0395,6.1245,6.3834,6.6244,6.8385,6.8398,6.809,6.7513,6.7205,6.6359,6.4974,6.4859,6.432,6.3512,6.3512,6.3051,6.2281,6.2281,6.1781,6.1012,6.1012,6.0935,6.0781,6.0781,6.0781,6.0666,8.9072,8.9072,8.9207,8.9545,8.9613,8.9613,8.9613,9.007,9.0154,8.9218,9.0143,9.0469,8.9463,9.0564,9.1204,9.0764,9.1352,9.1803,9.1803,9.0298,8.9417,8.9417,8.7509,8.5306,8.281,8.0461,7.8626,7.7304,7.6937,7.6754,7.6754,7.6754,7.6754,7.679,7.7157,7.7304,7.7304,7.69,7.6497,7.613,7.657,7.624,7.5432,7.5065,7.4625,7.4111,7.2936,7.2496,7.2386,7.1578,7.1615,7.1725,7.0477,7.0697,7.1211,7.033,7.0367,7.0587,7.0293,6.9559,6.8605,6.7357,6.5888,6.442,6.3099,6.1887,6.0933,6.0566,5.9795,5.9098,5.8731,5.6969,5.5721,5.6161,5.4027,5.2381,5.2641,5.3225,5.377,5.4187,5.5894,5.7536,5.8925,5.8981,5.9196,5.9869,5.9326,5.9165,5.9727,5.992,6.046,6.1484,6.3441,6.5159,6.6538,6.5936,6.5705,6.5743,6.5282,6.4666,6.3897,6.3897,6.3435,6.2666,6.2666,6.2166,6.1396,6.1396,6.1166,6.0781,6.0781,6.0781,6.0781,6.0781,6.0781,6.0666,8.9038,8.9072,8.9072,8.9072,8.9072,8.9072,8.9072,8.9072,8.9072,8.9072,8.9237,8.9198,8.9225,8.9862,9.0356,9.0564,9.1079,9.1509,9.1803,9.0298,8.9417,8.9417,8.7142,8.4719,8.226,8.0241,7.8589,7.7304,7.7304,7.7304,7.7304,7.7304,7.7304,7.7304,7.7304,7.7304,7.7304,7.7304,7.6937,7.6423,7.7084,7.657,7.5469,7.5249,7.4808,7.4111,7.312,7.2789,7.2679,7.1872,7.1982,7.2275,7.1064,7.1505,7.2239,7.0807,7.011,7.0,7.0807,6.9853,6.8238,6.6623,6.5778,6.4861,6.3209,6.2328,6.1814,6.163,6.0639,5.9648,5.9281,5.7519,5.6235,5.6492,5.4637,5.3384,5.3904,5.4538,5.5314,5.6299,5.7839,5.9551,6.1476,6.1182,6.1004,6.1334,6.0589,6.0242,6.0612,6.0419,6.067,6.1523,6.287,6.3895,6.4561,6.3767,6.3666,6.4282,6.3628,6.3205,6.3012,6.3012,6.2551,6.1781,6.1589,6.1127,6.0473,6.0281,6.0204,6.0242,6.0435,6.0512,6.0512,6.0742,6.0781,6.0666,8.897,8.9072,8.9072,8.9072,8.9072,8.9072,8.9072,8.9072,8.9072,8.9072,8.9419,8.9087,8.7335,8.8544,8.9214,8.849,8.951,9.0637,9.173,9.0298,8.9417,8.9417,8.5013,8.2443,8.2186,7.9103,7.7451,7.7304,7.7304,7.7304,7.7304,7.7304,7.7304,7.7304,7.7304,7.7304,7.7304,7.7304,7.7304,7.7231,7.7304,7.7268,7.7047,7.6313,7.5983,7.5726,7.4147,7.3597,7.3487,7.2679,7.2459,7.2496,7.2349,7.2386,7.2349,7.1468,7.0183,6.9155,6.9963,6.9009,6.7393,6.5778,6.5338,6.4861,6.3209,6.2768,6.2511,6.1741,6.152,6.097,5.9501,5.8437,5.7336,5.5904,5.5269,5.48,5.45,5.5493,5.6823,5.8368,5.9805,6.1109,6.2413,6.2859,6.3103,6.3128,6.2358,6.2243,6.3012,6.1858,6.1352,6.1679,6.246,6.321,6.3877,6.3676,6.3537,6.3397,6.332,6.2897,6.2166,6.2166,6.1704,6.0858,6.005,5.9665,5.955,5.8781,5.8473,5.855,5.9319,5.9588,5.9704,6.0512,6.0781,6.0666,8.9038,8.9072,8.9072,8.9072,8.9072,8.9072,8.9072,8.9072,8.9203,8.9492,8.9674,8.9225,8.7539,8.8514,8.8742,8.7221,8.8841,8.9987,8.9947,9.0044,8.9491,8.7986,8.5196,8.3214,8.2223,7.9984,7.8332,7.7304,7.7304,7.7304,7.7304,7.7304,7.7304,7.7304,7.7304,7.7304,7.7304,7.7304,7.7304,7.7304,7.7304,7.7304,7.7231,7.6423,7.6093,7.5946,7.4845,7.4111,7.3634,7.334,7.2899,7.2496,7.2496,7.2496,7.2349,7.1541,7.0513,6.9596,6.9412,6.8531,6.743,6.6329,6.5668,6.5007,6.387,6.3209,6.2732,6.2401,6.1961,6.141,6.0786,5.9612,5.8649,5.8338,5.7526,5.7175,5.7894,5.8639,5.9536,6.0725,6.1747,6.2732,6.3756,6.3053,6.2743,6.3281,6.205,6.1666,6.2512,6.224,6.2168,6.25,6.2153,6.2075,6.2261,6.206,6.192,6.1743,6.1743,6.1589,6.1281,6.1281,6.1089,6.0742,5.9896,5.9511,5.9435,5.8627,5.8588,5.9088,5.9396,5.9511,5.9627,6.0473,6.0473,5.9935,8.9038,8.9072,8.9072,8.9072,8.9072,8.9072,8.9072,8.9483,8.9654,8.9778,8.994,8.9414,8.7765,8.813,8.7935,8.6547,8.7952,8.897,8.9167,8.982,8.9381,8.7472,8.5343,8.3581,8.2223,8.0388,7.8736,7.7304,7.7304,7.7304,7.7304,7.7304,7.7304,7.7304,7.7304,7.7304,7.7304,7.7304,7.7304,7.7304,7.7304,7.7304,7.7268,7.668,7.6497,7.6387,7.5579,7.4771,7.4037,7.378,7.3156,7.2496,7.2496,7.2165,7.1578,7.0807,7.0146,6.9559,6.8752,6.8311,6.7797,6.6769,6.6109,6.5485,6.464,6.3833,6.3209,6.3209,6.2548,6.1887,6.163,6.0713,5.9946,5.9934,5.9591,5.9564,6.0379,6.1121,6.1897,6.2781,6.3358,6.4051,6.4936,6.3705,6.3089,6.3666,6.2166,6.1512,6.2204,6.2491,6.2704,6.2914,6.2004,6.1404,6.119,6.1057,6.0935,6.0781,6.0781,6.0781,6.0781,6.0781,6.0781,6.0742,5.9627,5.9127,5.905,5.8242,5.805,5.8357,5.8896,5.8973,5.8858,5.9973,6.0012,5.9511,8.8937,8.9072,8.9072,8.9072,8.9072,8.9072,8.9072,9.0143,9.0745,8.9948,9.0301,8.9812,8.7795,8.6899,8.6414,8.6414,8.6414,8.7398,8.9842,8.9602,8.905,8.8243,8.5123,8.303,8.2223,7.9837,7.8185,7.7341,7.7304,7.7304,7.7304,7.7304,7.7304,7.7304,7.7304,7.7304,7.7304,7.7304,7.7304,7.7304,7.7304,7.7304,7.7304,7.7304,7.7304,7.7194,7.6387,7.5579,7.4808,7.3964,7.3156,7.2496,7.2496,7.1394,6.9926,6.9155,6.8898,6.8752,6.7907,6.8274,6.8531,6.6916,6.6512,6.6292,6.5485,6.4677,6.409,6.409,6.3429,6.2585,6.1741,6.1594,6.1282,6.0199,6.1093,6.1792,6.1476,6.2502,6.3628,6.4512,6.4628,6.4936,6.582,6.5128,6.4589,6.4589,6.3051,6.2243,6.2565,6.2708,6.2809,6.2814,6.1982,6.1343,6.0973,6.0973,6.0935,6.0781,6.0781,6.0781,6.0781,6.0781,6.0781,6.0704,5.905,5.8319,5.8242,5.7357,5.6472,5.5895,5.7627,5.7742,5.7203,5.8858,5.9473,5.9473,8.8937,8.9072,8.9072,8.9072,8.9072,8.9072,8.9072,8.9697,9.0218,9.0265,8.9964,8.9279,8.8135,8.7135,8.6087,8.524,8.5852,8.7398,8.9842,8.9602,8.9307,8.905,8.5967,8.3875,8.3067,8.0681,7.9029,7.8222,7.7598,7.7304,7.7304,7.7304,7.7304,7.7304,7.7304,7.7304,7.7304,7.7304,7.7304,7.7268,7.668,7.646,7.646,7.646,7.646,7.6423,7.6203,7.5579,7.4808,7.3964,7.3156,7.2496,7.2496,7.1394,7.0146,7.0513,6.9779,6.8862,6.8605,6.8715,6.8641,6.7577,6.6916,6.6439,6.6219,6.5521,6.4787,6.42,6.387,6.3466,6.2622,6.2751,6.2798,6.2257,6.2776,6.3352,6.3602,6.3962,6.4551,6.5397,6.5513,6.559,6.5859,6.4551,6.3935,6.4551,6.3705,6.3012,6.2767,6.3218,6.3295,6.2814,6.2305,6.1704,6.1012,6.0973,6.0935,6.0781,6.0781,6.0781,6.0781,6.0781,6.0781,6.0742,5.9627,5.8819,5.8242,5.7357,5.6857,5.6665,5.7165,5.7242,5.7126,5.8242,5.8665,5.8588,8.8125,8.8463,8.8632,8.8632,8.8903,8.9072,8.9072,8.9766,9.0117,8.9792,8.9458,8.8756,8.7632,8.6449,8.5481,8.4713,8.6152,8.7769,8.9221,8.9338,8.9417,8.9417,8.6628,8.4535,8.3434,8.1048,7.9396,7.8589,7.7745,7.7304,7.7304,7.7304,7.7304,7.7304,7.7304,7.7304,7.7304,7.7304,7.7304,7.7268,7.6423,7.6093,7.6093,7.6093,7.5909,7.5689,7.5983,7.5395,7.4368,7.3854,7.3156,7.2386,7.1762,7.0881,7.0073,6.9926,6.9412,6.8898,6.8898,6.8898,6.8788,6.8311,6.7577,6.6953,6.6953,6.6366,6.5558,6.4751,6.4567,6.4301,6.3331,6.3622,6.4037,6.3911,6.4139,6.4526,6.5039,6.5128,6.532,6.582,6.5897,6.5897,6.5897,6.432,6.3281,6.3166,6.2871,6.272,6.2814,6.2858,6.2858,6.2728,6.2089,6.1512,6.0935,6.0896,6.0858,6.0781,6.0781,6.0781,6.0781,6.0781,6.0589,6.0242,5.9396,5.855,5.7742,5.7203,5.678,5.6511,5.6857,5.678,5.6588,5.7473,5.778,5.7703,8.6907,8.7482,8.7989,8.7989,8.8598,8.9072,8.9072,9.0074,9.0399,8.8943,8.8701,8.8077,8.6587,8.5344,8.464,8.464,8.6803,8.8223,8.8223,8.903,8.9491,8.9417,8.7105,8.5086,8.3544,8.1122,7.9507,7.8699,7.7781,7.7304,7.7304,7.7304,7.7304,7.7304,7.7304,7.7304,7.7304,7.7304,7.7268,7.7157,7.6313,7.5946,7.5873,7.5873,7.5432,7.4918,7.5616,7.4955,7.367,7.3523,7.2936,7.2018,7.055,7.011,6.9816,6.8311,6.8385,6.8935,6.9009,6.8898,6.8825,6.8898,6.8311,6.7687,6.7687,6.7063,6.6256,6.5485,6.5264,6.488,6.3795,6.4271,6.4841,6.5047,6.513,6.5321,6.5808,6.5897,6.5897,6.5897,6.5897,6.5897,6.5897,6.4397,6.2743,6.1127,6.1259,6.1788,6.2644,6.1959,6.182,6.2449,6.1589,6.0973,6.0781,6.0781,6.0781,6.0781,6.0781,6.0742,6.0666,6.0666,6.0204,5.9358,5.8627,5.7819,5.6973,5.6973,5.6472,5.578,5.6549,5.6395,5.578,5.6588,5.6934,5.6973,8.6805,8.7482,8.7989,8.7989,8.8598,8.9072,8.9072,8.9629,8.9673,8.8773,8.825,8.7523,8.6518,8.5344,8.464,8.464,8.6803,8.8223,8.8223,8.9573,9.0078,8.9454,8.7105,8.5343,8.4352,8.1966,8.0351,7.9543,7.8038,7.7304,7.7304,7.7304,7.7304,7.7304,7.7304,7.7304,7.7304,7.7304,7.6937,7.6276,7.5506,7.4771,7.4221,7.4221,7.4111,7.3964,7.4147,7.4001,7.3487,7.2275,7.1284,7.055,7.022,7.011,7.0036,6.9669,6.9265,6.9045,6.9669,6.8898,6.8091,6.8752,6.8311,6.7687,6.7687,6.7063,6.6256,6.5485,6.4787,6.418,6.3684,6.4125,6.4596,6.5035,6.5446,6.5781,6.5897,6.5897,6.5897,6.5897,6.5897,6.5897,6.5897,6.4936,6.3474,6.1381,6.1774,6.2022,6.179,6.1997,6.1897,6.1358,6.1666,6.1512,6.0819,6.0781,6.0781,6.0781,6.0781,6.0435,5.9781,5.9781,5.9319,5.855,5.8396,5.7819,5.6973,5.6973,5.6472,5.5703,5.5895,5.5857,5.5703,5.5895,5.6395,5.6973,8.6298,8.6974,8.7482,8.7482,8.8361,8.9072,8.9072,8.9328,8.9077,8.7981,8.7501,8.6816,8.5652,8.4995,8.464,8.464,8.6803,8.8082,8.7692,8.9138,8.9674,8.8867,8.7252,8.582,8.4646,8.2627,8.0975,7.98,7.8112,7.7304,7.7304,7.7304,7.7304,7.7304,7.7304,7.7304,7.7304,7.7304,7.7084,7.657,7.5395,7.4661,7.4221,7.3854,7.345,7.3193,7.356,7.3193,7.2386,7.1138,7.044,7.011,7.011,7.011,7.0,6.9633,6.9229,6.9009,6.9412,6.8641,6.7871,6.8715,6.8311,6.7687,6.7687,6.7063,6.6256,6.5485,6.4971,6.4537,6.4075,6.4516,6.5082,6.5397,6.5717,6.5897,6.5897,6.5897,6.5897,6.5897,6.5897,6.5551,6.4743,6.4243,6.3205,6.1304,6.1485,6.1599,6.1405,6.1589,6.1473,6.1012,6.132,6.1243,6.0781,6.0781,6.0589,6.0165,6.0165,5.9742,5.8934,5.8934,5.8473,5.7665,5.7665,5.7203,5.6357,5.6357,5.6088,5.5703,5.5703,5.5703,5.5703,5.5703,5.5972,5.6357,8.5993,8.6569,8.711,8.711,8.8192,8.9072,8.9072,8.897,8.8429,8.7076,8.6805,8.6196,8.4776,8.464,8.464,8.464,8.6803,8.7905,8.7002,8.8522,8.905,8.8243,8.7288,8.6114,8.4646,8.303,8.1415,7.98,7.8112,7.7304,7.7304,7.7304,7.7304,7.7304,7.7304,7.7304,7.7304,7.7304,7.7231,7.7011,7.5652,7.5028,7.4808,7.4001,7.3303,7.2789,7.3303,7.2459,7.0991,7.033,6.9926,6.9706,6.9853,7.0,6.9926,6.9155,6.9009,6.9082,6.8935,6.8311,6.7871,6.8715,6.8311,6.7687,6.7687,6.7063,6.6256,6.5485,6.5367,6.5223,6.4556,6.5124,6.579,6.587,6.5897,6.5859,6.5705,6.5667,6.5628,6.5474,6.5474,6.4897,6.3435,6.3166,6.2512,6.1089,6.0964,6.1041,6.1251,6.105,6.0973,6.0973,6.0858,6.0781,6.0781,6.0781,6.0358,5.9511,5.9511,5.9011,5.8088,5.8088,5.7588,5.678,5.678,5.6357,5.5703,5.5703,5.5703,5.5703,5.5703,5.5703,5.5703,5.5703,5.5703,5.5703,8.6771,8.7347,8.7854,8.7854,8.8531,8.9072,8.9072,8.8531,8.7854,8.7008,8.6332,8.5587,8.4708,8.464,8.464,8.464,8.6803,8.7905,8.7002,8.8522,8.905,8.8243,8.6775,8.5527,8.4609,8.303,8.1415,7.98,7.8112,7.7304,7.7304,7.7304,7.7304,7.7304,7.7304,7.7304,7.7304,7.7304,7.69,7.624,7.6019,7.5542,7.4808,7.4001,7.3634,7.345,7.2863,7.1615,7.0257,7.0146,6.9155,6.8128,6.8825,6.9522,6.9926,6.9155,6.9376,6.9779,6.9082,6.8311,6.7871,6.8715,6.8311,6.7687,6.7687,6.7063,6.6256,6.5485,6.5693,6.5657,6.4633,6.5452,6.6192,6.5961,6.5897,6.5628,6.4897,6.4782,6.4512,6.3743,6.3666,6.3551,6.332,6.2666,6.1897,6.105,6.0866,6.0888,6.1035,6.0896,6.0819,6.0819,6.0819,6.0781,6.0781,6.0781,6.0358,5.9511,5.9511,5.8665,5.7165,5.7165,5.6703,5.5857,5.5857,5.5818,5.5703,5.5703,5.5703,5.5703,5.5703,5.5703,5.5703,5.5703,5.5703,5.5703,8.7516,8.7786,8.7989,8.7989,8.8598,8.9072,8.9072,8.8463,8.7753,8.7008,8.6264,8.5486,8.4708,8.464,8.4437,8.4031,8.6142,8.7055,8.5764,8.7616,8.839,8.7582,8.6848,8.5894,8.4646,8.303,8.1415,7.98,7.8626,7.7781,7.7304,7.7304,7.7304,7.7304,7.7304,7.7304,7.7304,7.7304,7.7121,7.6754,7.6276,7.5909,7.5469,7.4698,7.4074,7.3523,7.2275,7.1394,7.0697,7.0257,6.9339,6.8605,6.9853,6.9889,6.9449,6.9522,6.9486,6.9265,6.8458,6.7944,6.7797,6.8128,6.7944,6.7687,6.7687,6.776,6.7467,6.6219,6.6038,6.5902,6.5197,6.579,6.6292,6.5961,6.5897,6.559,6.4705,6.4589,6.4282,6.3397,6.332,6.3128,6.2666,6.232,6.1743,6.0935,6.0819,6.0819,6.0896,6.0819,6.0781,6.0781,6.0319,6.0089,6.0089,5.9627,5.9204,5.8819,5.8819,5.8204,5.6973,5.6973,5.678,5.6395,5.5895,5.5972,5.6395,5.5895,5.5703,5.5703,5.5703,5.5703,5.5703,5.5703,5.5703,5.5703]},{"header":{"parameterUnit":"m.s-1","parameterCategory":1,"la1":30.6,"la2":28.766,"lo1":-90.7593,"lo2":-88.6598,"dy":0.0162,"dx":0.0183,"nx":116,"ny":114,"refTime":"2023-10-06T06:00:00:Z","depth":0,"parameterNumber":3,"parameterNumberName":"V-component_of_WINDS"},"data":[0.0,0.0,0.0,0.0,0.0,0.0,0.0,0.0,0.0,0.0,0.0,0.0,0.0,0.0,0.0,0.0,0.0,0.0,0.0,0.0,0.0,0.0,0.0,0.0,0.0,0.0,0.0,0.0,0.0,0.0,0.0,0.0,0.0,0.0,0.0,0.0,0.0,0.0,0.0,0.0,0.0,0.0,0.0,0.0,0.0,0.0,0.0,0.0,0.0,0.0,0.0,0.0,0.0,0.0,0.0,0.0,0.0,0.0,0.0,0.0,0.0,0.0,0.0,0.0,0.0,0.0,0.0,0.0,0.0,0.0,0.0,0.0,0.0,0.0,0.0,0.0,0.0,0.0,0.0,0.0,0.0,0.0,0.0,0.0,0.0,0.0,0.0,0.0,0.0,0.0,0.0,0.0,0.0,0.0,0.0,0.0,0.0,0.0,0.0,0.0,0.0,0.0,0.0,0.0,0.0,0.0,0.0,0.0,0.0,0.0,0.0,0.0,0.0,0.0,0.0,0.0,0.0,0.0,0.0,0.0,0.0,0.0,0.0,0.0,0.0,0.0,0.0,0.0,0.0,0.0,0.0,0.0,0.0,0.0,0.0,0.0,0.0,0.0,0.0,0.0,0.0,0.0,0.0,0.0,0.0,0.0,0.0,0.0,0.0,0.0,0.0,0.0,0.0,0.0,0.0,0.0,0.0,0.0,0.0,0.0,0.0,0.0,0.0,0.0,0.0,0.0,0.0,0.0,0.0,0.0,0.0,0.0,0.0,0.0,0.0,0.0,0.0,0.0,0.0,0.0,0.0,0.0,0.0,0.0,0.0,0.0,0.0,0.0,0.0,0.0,0.0,0.0,0.0,0.0,0.0,0.0,0.0,0.0,0.0,0.0,0.0,0.0,0.0,0.0,0.0,0.0,0.0,0.0,0.0,0.0,0.0,0.0,0.0,0.0,0.0,0.0,0.0,0.0,0.0,0.0,0.0,0.0,0.0,0.0,0.0,0.0,0.0,0.0,0.0,0.0,0.0,0.0,0.0,0.0,0.0,0.0,0.0,0.0,0.0,0.0,0.0,0.0,0.0,0.0,0.0,0.0,0.0,0.0,0.0,0.0,0.0,0.0,0.0,0.0,0.0,0.0,0.0,0.0,0.0,0.0,0.0,0.0,0.0,0.0,0.0,0.0,0.0,0.0,0.0,0.0,0.0,0.0,0.0,0.0,0.0,0.0,0.0,0.0,0.0,0.0,0.0,0.0,0.0,0.0,0.0,0.0,0.0,0.0,0.0,0.0,0.0,0.0,0.0,0.0,0.0,0.0,0.0,0.0,0.0,0.0,0.0,0.0,0.0,0.0,0.0,0.0,0.0,0.0,0.0,0.0,0.0,0.0,0.0,0.0,0.0,0.0,0.0,0.0,0.0,0.0,0.0,0.0,0.0,0.0,0.0,0.0,0.0,0.0,0.0,0.0,0.0,0.0,0.0,0.0,0.0,0.0,0.0,0.0,0.0,0.0,0.0,0.0,0.0,0.0,0.0,0.0,0.0,0.0,0.0,0.0,0.0,0.0,0.0,0.0,0.0,0.0,0.0,0.0,0.0,0.0,0.0,0.0,0.0,0.0,0.0,0.0,0.0,0.0,0.0,0.0,0.0,0.0,0.0,0.0,0.0,0.0,0.0,0.0,0.0,0.0,0.0,0.0,0.0,0.0,0.0,0.0,0.0,0.0,0.0,0.0,0.0,0.0,0.0,0.0,0.0,0.0,0.0,0.0,0.0,0.0,0.0,0.0,0.0,0.0,0.0,0.0,0.0,0.0,0.0,0.0,0.0,0.0,0.0,0.0,0.0,0.0,0.0,0.0,0.0,0.0,0.0,0.0,0.0,0.0,0.0,0.0,0.0,0.0,0.0,0.0,0.0,0.0,0.0,0.0,0.0,0.0,0.0,0.0,0.0,0.0,0.0,0.0,0.0,0.0,0.0,0.0,0.0,0.0,0.0,0.0,0.0,0.0,0.0,0.0,0.0,0.0,0.0,0.0,0.0,0.0,0.0,0.0,0.0,0.0,0.0,0.0,0.0,0.0,0.0,0.0,0.0,0.0,0.0,0.0,0.0,0.0,0.0,0.0,0.0,0.0,0.0,0.0,0.0,0.0,0.0,0.0,0.0,0.0,0.0,0.0,0.0,0.0,0.0,0.0,0.0,0.0,0.0,0.0,0.0,0.0,0.0,0.0,0.0,0.0,0.0,0.0,0.0,0.0,0.0,0.0,0.0,0.0,0.0,0.0,0.0,0.0,0.0,0.0,0.0,0.0,0.0,0.0,0.0,0.0,0.0,0.0,0.0,0.0,0.0,0.0,0.0,0.0,0.0,0.0,0.0,0.0,0.0,0.0,0.0,0.0,0.0,0.0,0.0,0.0,0.0,0.0,0.0,0.0,0.0,0.0,0.0,0.0,0.0,0.0,0.0,0.0,0.0,0.0,0.0,0.0,0.0,0.0,0.0,0.0,0.0,0.0,0.0,0.0,0.0,0.0,0.0,0.0,0.0,0.0,0.0,0.0,0.0,0.0,0.0,0.0,0.0,0.0,0.0,0.0,0.0,0.0,0.0,0.0,0.0,0.0,0.0,0.0,0.0,0.0,0.0,0.0,0.0,0.0,0.0,0.0,0.0,0.0,0.0,0.0,0.0,0.0,0.0,0.0,0.0,0.0,0.0,0.0,0.0,0.0,0.0,0.0,0.0,0.0,0.0,0.0,0.0,0.0,0.0,0.0,0.0,0.0,0.0,0.0,0.0,0.0,0.0,0.0,0.0,0.0,0.0,0.0,0.0,0.0,0.0,0.0,0.0,0.0,0.0,0.0,0.0,0.0,0.0,0.0,0.0,0.0,0.0,0.0,0.0,0.0,0.0,0.0,0.0,0.0,0.0,0.0,0.0,0.0,0.0,0.0,0.0,0.0,0.0,0.0,0.0,0.0,0.0,0.0,0.0,0.0,0.0,0.0,0.0,0.0,0.0,0.0,0.0,0.0,0.0,0.0,0.0,0.0,0.0,0.0,0.0,0.0,0.0,0.0,0.0,0.0,0.0,0.0,0.0,0.0,0.0,0.0,0.0,0.0,0.0,0.0,0.0,0.0,0.0,0.0,0.0,0.0,0.0,0.0,0.0,0.0,0.0,0.0,0.0,0.0,0.0,0.0,0.0,0.0,0.0,0.0,0.0,0.0,0.0,0.0,0.0,0.0,0.0,0.0,0.0,0.0,0.0,0.0,0.0,0.0,0.0,0.0,0.0,0.0,0.0,0.0,0.0,0.0,0.0,0.0,0.0,0.0,0.0,0.0,0.0,0.0,0.0,0.0,0.0,0.0,0.0,0.0,0.0,0.0,0.0,0.0,0.0,0.0,0.0,0.0,0.0,0.0,0.0,0.0,0.0,0.0,0.0,0.0,0.0,0.0,0.0,0.0,0.0,0.0,0.0,0.0,0.0,0.0,0.0,0.0,0.0,0.0,0.0,0.0,0.0,0.0,0.0,0.0,0.0,0.0,0.0,0.0,0.0,0.0,0.0,0.0,0.0,0.0,0.0,0.0,0.0,0.0,0.0,0.0,0.0,0.0,0.0,0.0,0.0,0.0,0.0,0.0,0.0,0.0,0.0,0.0,0.0,0.0,0.0,0.0,0.0,0.0,0.0,0.0,0.0,0.0,0.0,0.0,0.0,0.0,0.0,0.0,0.0,0.0,0.0,0.0,0.0,0.0,0.0,0.0,0.0,0.0,0.0,0.0,0.0,0.0,0.0,0.0,0.0,0.0,0.0,0.0,0.0,0.0,0.0,0.0,0.0,0.0,0.0,0.0,0.0,0.0,0.0,0.0,0.0,0.0,0.0,0.0,0.0,0.0,0.0,0.0,0.0,0.0,0.0,0.0,0.0,0.0,0.0,0.0,0.0,0.0,0.0,0.0,0.0,0.0,0.0,0.0,0.0,0.0,0.0,0.0,0.0,0.0,0.0,0.0,0.0,0.0,0.0,0.0,0.0,0.0,0.0,0.0,0.0,0.0,0.0,0.0,0.0,0.0,0.0,0.0,0.0,0.0,0.0,0.0,0.0,0.0,0.0,0.0,0.0,0.0,0.0,0.0,0.0,0.0,0.0,0.0,0.0,0.0,0.0,0.0,0.0,0.0,0.0,0.0,0.0,0.0,0.0,0.0,0.0,0.0,0.0,0.0,0.0,0.0,0.0,0.0,0.0,0.0,0.0,0.0,0.0,0.0,0.0,0.0,0.0,0.0,0.0,0.0,0.0,0.0,0.0,0.0,0.0,0.0,0.0,0.0,0.0,0.0,0.0,0.0,0.0,0.0,0.0,0.0,0.0,0.0,0.0,0.0,0.0,0.0,0.0,0.0,0.0,0.0,0.0,0.0,0.0,0.0,0.0,0.0,0.0,0.0,0.0,0.0,0.0,0.0,0.0,0.0,0.0,0.0,0.0,0.0,0.0,0.0,0.0,0.0,0.0,0.0,0.0,0.0,0.0,0.0,0.0,0.0,0.0,0.0,0.0,0.0,0.0,0.0,0.0,0.0,0.0,0.0,0.0,0.0,0.0,0.0,0.0,0.0,0.0,0.0,0.0,0.0,0.0,0.0,0.0,0.0,0.0,0.0,0.0,0.0,0.0,0.0,0.0,0.0,0.0,0.0,0.0,0.0,0.0,0.0,0.0,0.0,0.0,0.0,0.0,0.0,0.0,0.0,0.0,0.0,0.0,0.0,0.0,0.0,0.0,0.0,0.0,0.0,0.0,0.0,0.0,0.0,0.0,0.0,0.0,0.0,0.0,0.0,0.0,0.0,0.0,0.0,0.0,0.0,0.0,0.0,0.0,0.0,0.0,0.0,0.0,0.0,0.0,0.0,0.0,0.0,0.0,0.0,0.0,0.0,0.0,0.0,0.0,0.0,0.0,0.0,0.0,0.0,0.0,0.0,0.0,0.0,0.0,0.0,0.0,0.0,0.0,0.0,0.0,0.0,0.0,0.0,0.0,0.0,0.0,0.0,0.0,0.0,0.0,0.0,0.0,0.0,0.0,0.0,0.0,0.0,0.0,0.0,0.0,0.0,0.0,0.0,0.0,0.0,0.0,0.0,0.0,0.0,0.0,0.0,0.0,0.0,0.0,0.0,0.0,0.0,0.0,0.0,0.0,0.0,0.0,0.0,0.0,0.0,0.0,0.0,0.0,0.0,0.0,0.0,0.0,0.0,0.0,0.0,0.0,0.0,0.0,0.0,0.0,0.0,0.0,0.0,0.0,0.0,0.0,0.0,0.0,0.0,0.0,0.0,0.0,0.0,0.0,0.0,0.0,0.0,0.0,0.0,0.0,0.0,0.0,0.0,0.0,0.0,0.0,0.0,0.0,0.0,0.0,0.0,0.0,0.0,0.0,0.0,0.0,0.0,0.0,0.0,0.0,0.0,0.0,0.0,0.0,0.0,0.0,0.0,0.0,0.0,0.0,0.0,0.0,0.0,0.0,0.0,0.0,0.0,0.0,0.0,0.0,0.0,0.0,0.0,0.0,0.0,0.0,0.0,0.0,0.0,0.0,0.0,0.0,0.0,0.0,0.0,0.0,0.0,0.0,0.0,0.0,0.0,0.0,0.0,0.0,0.0,0.0,0.0,0.0,0.0,0.0,0.0,0.0,0.0,0.0,0.0,0.0,0.0,0.0,0.0,0.0,0.0,0.0,0.0,0.0,0.0,0.0,0.0,0.0,0.0,0.0,0.0,0.0,0.0,0.0,0.0,0.0,0.0,0.0,0.0,0.0,0.0,0.0,0.0,0.0,0.0,0.0,0.0,0.0,0.0,0.0,0.0,0.0,0.0,0.0,0.0,0.0,0.0,0.0,0.0,0.0,0.0,0.0,0.0,0.0,0.0,0.0,0.0,0.0,0.0,0.0,0.0,0.0,0.0,0.0,0.0,0.0,0.0,0.0,0.0,0.0,0.0,0.0,0.0,0.0,0.0,0.0,0.0,0.0,0.0,0.0,0.0,0.0,0.0,0.0,0.0,0.0,0.0,0.0,0.0,0.0,0.0,0.0,0.0,0.0,0.0,0.0,0.0,0.0,0.0,0.9829,0.989,0.0,0.0,0.0,0.0,0.0,0.0,0.0,0.0,0.0,0.0,0.0,0.0,0.0,0.0,0.0,0.0,0.0,0.0,0.0,0.0,0.0,0.0,0.0,0.0,0.0,0.0,0.0,0.0,0.0,0.0,0.0,0.0,0.0,0.0,0.0,0.0,0.0,0.0,1.2459,1.3309,1.429,1.4658,1.4343,1.356,0.0,0.0,0.0,0.0,0.0,0.0,0.0,0.0,0.0,0.0,0.0,0.0,0.0,0.0,0.0,0.0,0.0,0.0,0.0,0.0,0.0,0.0,0.0,0.0,0.0,0.0,0.0,0.0,0.0,0.0,0.0,0.0,0.0,0.0,0.0,0.0,0.0,0.0,0.0,0.0,0.0,0.0,0.0,0.0,0.0,0.0,0.0,0.0,0.0,0.0,0.0,0.0,0.0,0.0,0.0,0.0,0.0,0.0,0.0,0.0,0.0,0.0,0.0,0.0,0.0,0.0,0.0,0.0,0.0,0.0,1.0561,1.0263,0.0,0.0,0.0,0.0,0.0,0.0,0.0,0.0,0.0,0.0,0.0,0.0,0.0,0.0,0.0,0.0,0.0,0.0,0.0,0.0,0.0,0.0,0.0,1.1341,1.143,1.1796,1.1999,1.2081,0.0,0.0,0.0,0.0,0.0,0.0,0.0,1.1796,1.199,1.2226,1.3945,1.5666,1.7592,1.808,1.7722,1.6379,1.6481,0.0,0.0,0.0,0.0,0.0,0.0,0.0,0.0,0.0,0.0,0.0,0.0,0.0,0.0,0.0,0.0,0.0,0.0,0.0,0.0,0.0,0.0,0.0,0.0,0.0,0.0,0.0,0.0,0.0,0.0,0.0,0.0,0.0,0.0,0.0,0.0,0.0,0.0,0.0,0.0,0.0,0.0,0.0,0.0,0.0,0.0,0.0,0.0,0.0,0.0,0.0,0.0,0.0,0.0,0.0,0.0,0.0,0.0,0.0,0.0,0.0,0.0,0.0,1.1945,1.221,1.2535,1.2447,1.2338,1.2189,1.1721,1.1043,1.0317,1.0765,0.0,0.0,0.0,0.0,0.0,0.0,0.0,0.0,0.0,0.0,0.0,0.0,0.0,0.0,0.0,0.0,0.0,0.0,0.0,0.0,0.0,1.1681,1.1769,1.1823,1.2094,1.2149,1.1877,0.0,0.0,0.0,0.0,0.0,1.1803,1.1952,1.2633,1.3912,1.5858,1.7086,1.7735,1.8057,1.9139,2.0738,1.8984,1.902,2.0485,0.0,0.0,0.0,0.0,0.0,0.0,0.0,0.0,0.0,0.0,0.0,0.0,0.0,0.0,0.0,0.0,0.0,0.0,0.0,0.0,0.0,0.0,0.0,0.0,0.0,0.0,0.0,0.0,0.0,0.0,0.0,0.0,0.0,0.0,0.0,0.0,0.0,0.0,0.0,0.0,0.0,0.9768,0.9788,0.0,0.0,0.0,0.0,0.0,0.0,0.0,0.0,0.0,0.0,0.0,0.0,0.0,1.1667,1.2081,1.2379,1.2474,1.2386,1.2678,1.2773,1.2705,1.282,1.2861,1.2847,1.2888,0.0,1.1199,1.1023,0.0,0.0,0.0,0.0,0.0,0.0,0.0,0.0,0.0,0.0,0.0,0.0,0.0,0.0,0.0,0.0,0.0,0.0,0.0,0.0,0.0,1.1525,1.1558,1.1809,1.1877,1.1925,1.1959,1.1945,0.0,0.0,0.0,1.1748,1.183,1.2823,1.4601,1.7388,1.8496,1.99,2.133,2.1702,2.2325,2.3248,2.2311,2.2311,2.3113,2.2645,0.0,0.0,0.0,0.0,0.0,0.0,0.0,0.0,0.0,0.0,0.0,0.0,0.0,0.0,0.0,0.0,0.0,0.0,0.0,0.0,0.0,0.0,0.0,0.0,0.0,0.0,0.0,0.0,0.0,0.0,0.0,0.0,0.0,0.0,0.0,0.0,0.0,0.0,0.0,1.111,1.2123,1.1705,1.2366,1.2673,0.0,0.0,0.0,0.0,0.0,0.0,0.0,0.0,0.0,1.4183,1.572,1.6751,1.7134,1.7476,1.7801,1.7946,1.6664,1.6223,1.6175,1.4871,1.4211,1.4211,1.419,1.3695,1.284,1.2121,1.1586,1.1199,0.0,0.0,0.0,0.0,1.0914,1.1124,0.0,0.0,0.0,0.0,0.0,0.0,0.0,0.0,0.0,0.0,0.0,0.0,1.1531,1.1423,1.145,1.1748,1.1748,1.1823,1.2047,1.1884,1.1911,1.2216,1.187,1.2025,1.2611,1.4745,1.7218,1.997,2.1078,2.2476,2.4315,2.4609,2.4783,2.4863,2.4863,2.4823,2.4703,2.4048,2.3848,2.3928,0.0,0.0,0.0,0.0,0.0,0.0,0.0,0.0,0.0,0.0,0.0,0.0,0.0,0.0,0.0,0.0,0.0,0.0,0.0,0.0,0.0,0.0,0.0,0.0,0.0,0.0,0.0,0.0,0.0,0.0,0.0,0.0,0.0,0.0,0.0,0.0,0.0,1.2298,1.3936,1.3274,1.445,1.4955,0.0,0.0,0.0,0.0,0.0,0.0,1.1708,1.431,1.6028,1.6854,1.9524,2.0994,2.1573,2.198,2.2305,2.2538,2.0886,1.9754,1.9347,1.7291,1.6124,1.5296,1.5187,1.4841,1.4272,1.322,1.244,1.1877,1.1613,1.1416,1.1307,1.1409,1.1525,1.1667,0.0,0.0,0.0,0.0,0.0,0.0,0.0,0.0,0.0,0.0,0.0,1.107,1.1369,1.164,1.1748,1.164,1.1884,1.2047,1.206,1.1789,1.1762,1.206,1.1911,1.2758,1.4826,1.8391,2.039,2.0647,2.2729,2.3917,2.4623,2.4917,2.5211,2.5464,2.5464,2.4863,2.3834,2.3794,2.3621,2.342,2.3928,0.0,0.0,0.0,0.0,0.0,0.0,0.0,0.0,0.0,0.0,0.0,0.0,0.0,0.0,0.0,0.0,0.0,0.0,0.0,0.0,0.0,0.0,0.0,0.0,0.0,0.0,0.0,0.0,0.0,0.0,0.0,0.0,0.0,0.0,0.0,0.0,0.0,0.0,1.3585,1.5875,0.0,0.0,0.0,0.0,1.1674,1.183,1.2189,1.2637,1.5301,1.7252,1.8049,2.0865,2.2736,2.3446,2.3717,2.3769,2.3997,2.3827,2.2616,2.0124,1.9928,1.8395,1.5615,1.5608,1.5425,1.5045,1.4,1.322,1.2657,1.2494,1.2345,1.2223,1.223,1.2237,1.225,0.0,0.0,0.0,0.0,0.0,0.0,0.0,0.0,1.0962,1.1212,1.1151,1.1233,1.1633,1.1599,1.1606,1.1742,1.1681,1.1626,1.1626,1.1531,1.1647,1.2047,1.322,1.5254,1.8201,1.9526,2.112,2.2742,2.3839,2.473,2.5491,2.5598,2.5705,2.5785,2.5598,2.5184,2.4583,2.4209,2.4102,2.4142,2.3781,2.3848,0.0,0.0,0.0,0.0,0.0,0.0,0.0,0.0,0.0,0.0,0.0,0.0,0.0,0.0,0.0,0.0,0.0,0.0,0.0,0.0,0.0,0.0,0.0,0.0,0.0,0.0,0.0,0.0,0.0,0.0,0.0,0.0,0.0,0.0,0.0,0.0,0.0,1.9151,2.0841,0.0,1.9867,1.6825,1.4922,1.4557,1.496,1.548,1.6365,2.0577,2.3369,2.4398,2.6997,2.8582,2.914,2.9425,2.9611,2.9504,2.7926,2.6593,2.55,2.2121,1.9875,1.8765,1.6892,1.59,1.576,1.6649,1.5697,1.3546,1.3105,1.2786,1.2583,1.2684,1.2779,1.2888,0.0,0.0,0.0,0.0,0.0,0.0,0.0,0.0,1.0907,1.1002,1.1104,1.1294,1.1647,1.2402,1.275,1.2912,1.3244,1.3555,1.3666,1.3459,1.3587,1.4175,1.5922,1.7969,2.0063,2.112,2.2355,2.4062,2.4649,2.5291,2.5959,2.5959,2.6012,2.6092,2.5892,2.5651,2.5344,2.4957,2.4676,2.4449,2.3968,2.3995,2.4262,0.0,0.0,0.0,0.0,0.0,0.0,0.0,0.0,0.0,0.0,0.0,0.0,0.0,0.0,0.0,0.0,0.0,0.0,0.0,0.0,0.0,0.0,0.0,0.0,0.0,0.0,0.0,0.0,0.0,0.0,0.0,0.0,0.0,0.0,1.7743,2.0803,2.2793,2.4566,2.5037,2.3478,2.0479,1.8416,1.8219,1.873,1.9401,2.0336,2.4541,2.7265,2.8117,3.0767,3.2251,3.2545,3.2732,3.2839,3.2839,3.1024,2.9809,2.8814,2.5163,2.2903,2.1828,1.9041,1.8213,1.8694,1.9046,1.8408,1.6928,1.5546,1.4788,1.4401,1.37,1.3437,1.3505,0.0,0.0,0.0,0.0,0.0,0.0,0.0,1.0724,1.0724,1.0717,1.0989,1.124,1.1537,1.3969,1.5501,1.518,1.6711,1.7908,1.8326,1.7541,1.7449,1.8326,1.9904,2.0722,2.0261,2.3156,2.4649,2.469,2.5277,2.5705,2.5999,2.5999,2.6146,2.6413,2.6413,2.6239,2.5985,2.5972,2.5317,2.4289,2.4543,2.4302,2.3861,0.0,0.0,0.0,0.0,0.0,0.0,0.0,0.0,0.0,0.0,0.0,0.0,0.0,0.0,0.0,0.0,0.0,0.0,0.0,0.0,0.0,0.0,0.0,0.0,0.0,0.0,0.0,0.0,0.0,0.0,0.0,0.0,0.0,1.5356,1.8932,2.22,2.4148,2.6955,2.7552,2.4735,2.4351,2.3695,2.2309,2.2789,2.3567,2.4291,2.6873,2.862,2.895,3.1642,3.3146,3.344,3.3427,3.3427,3.3427,3.3414,3.1982,2.9522,2.9319,2.775,2.4871,2.2039,2.2031,2.3966,2.0834,2.1044,2.2808,1.959,1.8109,1.778,1.5344,1.4204,1.4082,0.0,0.0,0.0,0.0,0.0,0.0,1.0717,1.0812,1.0846,1.0731,1.1172,1.2302,1.4156,1.5193,1.642,1.7873,1.7849,1.7776,1.8032,1.7368,1.7938,2.015,2.0071,2.1136,2.3391,2.4169,2.505,2.5905,2.6279,2.6613,2.6907,2.6907,2.6947,2.7014,2.68,2.6653,2.6573,2.636,2.6079,2.5718,2.4943,2.4543,2.4369,0.0,0.0,0.0,0.0,0.0,0.0,0.0,0.0,0.0,0.0,0.0,0.0,0.0,0.0,0.0,0.0,0.0,0.0,0.0,0.0,0.0,0.0,0.0,0.0,0.0,0.0,0.0,0.0,0.0,0.0,0.0,1.558,1.7419,1.9143,2.2766,2.6163,2.8691,3.0172,3.0425,2.9325,2.7497,2.6276,2.6064,2.6432,2.6938,2.7582,3.0253,3.1879,3.2462,3.3184,3.3774,3.4068,3.3855,3.3761,3.3748,3.3521,3.3,3.2183,3.0141,2.8866,2.7975,2.5053,2.4204,2.4426,2.5246,2.5725,2.547,2.2141,1.9719,1.8117,1.712,1.566,1.4238,0.0,0.0,0.0,0.0,0.0,0.0,1.0717,1.0799,1.0778,1.0561,1.2102,1.3688,1.5044,1.7397,1.908,2.0005,2.0286,2.0434,2.0329,2.0144,2.0568,2.1815,2.1852,2.2802,2.481,2.5184,2.5758,2.6573,2.6867,2.7094,2.7268,2.7268,2.7268,2.7268,2.7215,2.7121,2.7001,2.6961,2.68,2.6507,2.5825,2.5331,2.4957,2.4489,2.4142,2.3834,2.3527,2.3153,2.2806,2.2846,0.0,0.0,0.0,0.0,0.0,0.0,0.0,0.0,0.0,0.0,0.0,0.0,0.0,0.0,0.0,0.0,0.0,0.0,0.0,0.0,0.0,0.0,0.0,0.0,1.9023,2.2065,2.423,2.6089,2.8369,3.1049,3.1864,3.2051,3.1637,3.038,2.9645,2.9617,3.0173,3.0587,3.1039,3.2559,3.3708,3.4055,3.4068,3.4148,3.4322,3.4148,3.4002,3.3881,3.3694,3.3534,3.3414,3.1768,3.0962,3.095,2.7975,2.7303,2.7904,2.7949,2.8236,2.8383,0.0,0.0,0.0,0.0,1.644,1.4299,0.0,0.0,0.0,0.0,0.0,0.0,1.0717,1.0717,1.0616,1.0572,1.3367,1.5386,1.5406,1.9747,2.2484,2.1751,2.3228,2.3995,2.3741,2.3955,2.3915,2.35,2.4249,2.4877,2.5264,2.6079,2.664,2.6974,2.7268,2.7415,2.7415,2.7455,2.7482,2.7522,2.7789,2.7776,2.7575,2.7843,2.7642,2.7161,2.7094,2.6466,2.5531,2.5277,2.497,2.4649,2.4356,2.3901,2.338,2.3113,0.0,0.0,0.0,0.0,0.0,0.0,0.0,0.0,0.0,0.0,0.0,0.0,0.0,0.0,0.0,0.0,0.0,0.0,0.0,0.0,0.0,0.0,0.0,0.0,2.3292,2.7549,2.9591,2.9347,2.9966,3.2177,3.2826,3.2933,3.2398,3.2585,3.2746,3.2746,3.3227,3.3641,3.3921,3.4175,0.0,0.0,0.0,3.4416,3.4416,3.4416,3.4269,3.3988,3.3948,3.3788,3.3507,3.348,3.3467,3.324,3.0714,3.0838,3.235,2.9467,2.9467,3.0996,2.7646,2.6222,2.5368,2.0112,1.6711,1.4666,0.0,0.0,0.0,0.0,0.0,0.0,1.0717,1.0717,1.1126,1.2067,1.3796,1.5988,1.8428,2.0416,2.2271,2.3559,2.3509,2.3474,2.342,2.346,2.3754,2.4356,2.477,2.5464,2.6466,2.6881,2.7362,2.7883,2.819,2.835,2.835,2.8591,2.8831,2.9058,2.9112,2.9232,2.9406,2.9459,2.9419,2.9272,2.8804,2.7509,2.5865,2.5812,2.5451,2.4957,2.4663,2.4329,2.4022,2.3968,2.3554,2.3113,2.3354,2.2926,0.0,0.0,0.0,0.0,0.0,0.0,0.0,0.0,0.0,0.0,0.0,0.0,0.0,0.0,0.0,0.0,0.0,0.0,0.0,2.3824,2.6735,2.9636,3.2598,3.3507,3.4016,3.4269,3.4135,3.4015,3.3908,3.3948,3.3975,3.3975,3.4082,3.4175,3.4229,3.4295,3.4429,3.4656,3.4897,3.503,3.503,3.503,3.4883,3.4589,3.4349,0.0,3.4135,3.3895,3.3801,3.3774,3.2851,3.2749,3.2879,3.2169,3.1878,3.1274,2.772,2.6115,2.5136,2.0055,1.784,1.7089,0.0,0.0,0.0,0.0,0.0,0.0,1.0609,1.067,1.1286,1.2689,1.5046,1.7359,1.9558,2.1759,2.3184,2.3665,2.322,2.306,2.3514,2.3688,2.4155,2.5037,2.5785,2.6587,2.7468,2.807,2.8524,2.8818,2.9112,2.9259,2.9259,2.9406,2.9633,2.9927,3.0074,3.0221,3.0368,3.0515,3.0488,3.0314,2.9873,2.9085,2.8043,2.7014,2.6333,2.5892,2.5451,2.501,2.4623,2.4476,2.4128,2.3741,2.3594,2.3233,2.2899,0.0,0.0,0.0,0.0,0.0,0.0,0.0,0.0,0.0,0.0,0.0,0.0,0.0,0.0,1.8696,1.9385,0.0,2.465,2.7292,2.9879,3.2428,3.4794,3.5578,3.5578,3.4857,3.4629,3.4482,3.4336,3.4322,3.4322,3.4322,3.4589,3.4763,3.4763,3.503,3.5271,3.5404,3.5551,3.5631,3.5631,3.5485,3.5271,3.4977,3.4683,3.4469,3.4309,3.4015,3.3881,3.3868,3.3547,3.324,3.2973,3.2826,3.2332,3.161,2.9679,2.7903,2.5815,2.1951,1.9581,1.7965,0.0,0.0,0.0,0.0,0.0,0.0,0.0,1.0857,1.1796,1.3319,1.639,1.8938,2.0197,2.2717,2.4008,2.33,2.2739,2.2846,2.3875,2.4209,2.4836,2.5892,2.7014,2.7909,2.8564,2.9285,2.9686,2.974,3.0034,3.0167,3.0167,3.0234,3.0408,3.0715,3.0942,3.1076,3.1156,3.1383,3.1343,3.1102,3.0822,3.0662,3.0421,2.8631,2.7655,2.7175,2.652,2.5852,2.5197,2.4903,2.4543,2.4128,2.3714,2.35,2.3447,2.3621,2.2832,0.0,0.0,0.0,0.0,0.0,0.0,0.0,0.0,0.0,1.9228,1.9327,2.0575,2.1749,2.2721,2.5747,2.8347,2.9898,3.2799,3.511,3.6393,3.6647,3.6313,3.5297,3.5137,3.4963,3.4603,3.4629,3.4643,3.4576,3.507,3.5364,3.5364,3.5819,3.6099,3.6153,3.6206,3.6219,3.6153,3.5979,3.5685,3.5284,3.5044,3.4776,3.4482,3.4135,3.3975,3.3948,3.3574,3.328,3.304,3.2746,3.2318,3.1837,3.177,3.0123,2.7349,2.3977,2.1384,1.8862,0.0,0.0,0.0,0.0,0.0,0.0,0.0,0.0,1.3448,1.5081,1.773,2.0002,2.0824,2.2204,2.302,2.2926,2.2605,2.302,2.4449,2.481,2.5718,2.7375,2.8337,2.9245,3.01,3.0207,3.0394,3.0648,3.0929,3.1076,3.1089,3.1356,3.1623,3.1904,3.1944,3.2104,3.2358,3.2385,3.2385,3.2318,3.2024,3.1757,3.1436,3.0688,2.9726,2.8684,2.7816,2.68,2.5812,2.5518,2.4877,2.4235,2.4436,2.4142,2.3875,2.4649,2.4048,2.2881,2.1946,1.9469,1.7097,1.7323,1.8666,2.0133,0.0,0.0,2.4736,2.5244,2.6449,2.7564,2.8509,3.0267,3.1838,3.3118,3.4727,3.6112,3.6794,3.7128,3.7128,3.6754,3.6473,3.6099,3.5538,3.5725,3.5765,3.5498,3.5792,3.5979,3.5979,3.6032,3.6193,3.6433,3.6727,3.6727,3.6473,3.6687,3.638,3.5578,3.5551,3.5378,3.5084,3.4523,3.4269,3.4242,3.3668,3.3387,3.3334,3.3053,3.2746,3.2425,3.2158,3.1646,3.0428,2.4899,2.2576,2.139,0.0,0.0,0.0,0.0,0.0,0.0,0.0,0.0,0.0,1.5505,1.7795,1.9952,2.15,2.2365,2.2792,2.2619,2.2485,2.3126,2.4783,2.5491,2.6707,2.8657,2.9753,3.0488,3.0849,3.1196,3.1436,3.1557,3.1851,3.1998,3.1998,3.2118,3.2332,3.2612,3.2612,3.2772,3.3053,3.3053,3.3053,3.3026,3.2732,3.2545,3.2318,3.1209,3.006,2.8965,2.843,2.7575,0.0,2.5985,2.5531,2.513,2.4569,2.4329,2.4315,2.4516,2.3981,2.3147,2.2128,2.1554,2.1136,0.0,2.2406,2.3779,2.4457,2.5896,2.7428,2.7843,2.9138,3.0421,3.1129,3.2572,3.3988,3.499,3.5819,3.6647,3.7569,3.7382,3.7008,3.6727,3.658,3.634,3.5925,3.6006,3.6019,3.5899,3.6153,3.6393,3.658,3.6727,3.6981,3.7261,3.7382,3.7301,3.7021,3.6981,3.658,3.5885,3.5712,3.5471,3.5177,3.4589,3.4122,3.3774,3.3521,3.3414,3.34,3.328,3.3053,3.2786,3.2666,3.2332,3.1429,2.7169,2.4398,2.2372,0.0,0.0,0.0,0.0,0.0,0.0,0.0,0.0,0.0,0.0,1.8075,2.0354,2.1925,2.2418,2.2565,2.2432,2.2352,2.306,2.4836,2.5785,2.7268,2.9499,3.0648,3.141,3.1824,3.2251,3.2545,3.2719,3.2933,3.304,3.304,3.304,3.3146,3.3347,3.3347,3.3467,3.3668,3.3668,3.3668,3.3641,3.3347,3.3133,3.2812,3.1263,2.9993,2.8965,2.843,2.7509,2.6466,2.5999,2.5785,2.5598,2.4903,2.4836,2.4957,2.4743,2.4275,2.3688,2.3113,2.3741,0.0,2.4703,2.5651,2.676,2.7509,2.8537,2.9459,2.9913,3.1089,3.2211,3.2812,3.3855,3.495,3.5912,3.638,3.6981,3.7996,3.7448,3.6754,3.6313,3.6046,3.5819,3.5605,3.5952,3.6219,3.6313,3.65,3.6794,3.7155,3.7301,3.7569,3.7929,3.7929,3.7849,3.7635,3.7342,3.6901,3.6313,3.5925,3.5605,3.5297,3.4616,3.4042,3.3534,3.3454,3.3414,3.3414,3.3414,3.324,3.2973,3.2893,3.2155,3.0664,2.8439,2.6171,2.3778,0.0,0.0,0.0,0.0,0.0,0.0,0.0,0.0,0.0,0.0,0.0,0.0,0.0,2.2164,2.2124,2.2392,2.2164,2.2752,2.4529,2.5478,2.7148,2.9793,3.0755,3.1891,3.3307,3.3387,3.3681,3.4255,3.4255,3.4269,3.4269,3.4269,3.4269,3.4282,3.4282,3.4282,3.4295,3.4295,3.4295,3.4269,3.3975,3.3507,3.2786,3.1036,2.982,2.8885,2.7722,2.6186,2.4796,2.5344,2.5344,2.5197,2.5732,2.5905,2.5919,2.5905,2.5491,2.5077,2.5331,2.5438,2.5745,2.6881,2.7615,2.839,2.9553,3.0515,3.1396,3.2265,3.2706,3.312,3.3734,3.4108,3.471,3.5885,3.654,3.7128,3.7742,3.7301,3.6607,3.5752,3.491,3.4376,3.4376,3.5658,3.662,3.6901,3.6901,3.7195,3.7742,3.7529,3.7635,3.8223,3.825,3.825,3.8223,3.7929,3.7489,3.6901,3.6326,3.5899,3.5591,3.471,3.4162,3.3855,3.3547,3.3414,3.3414,3.3414,3.324,3.2946,3.2666,3.0776,2.8327,2.7862,2.7275,2.6007,0.0,0.0,0.0,0.0,0.0,0.0,0.0,0.0,0.0,0.0,0.0,0.0,0.0,0.0,0.0,0.0,2.1937,2.2579,2.3968,2.5438,2.7081,2.8965,3.0822,3.2777,3.4981,3.6028,3.6378,3.6594,3.6795,3.6111,3.4322,3.4322,3.4322,3.4322,3.4322,3.4322,3.4309,3.4108,3.4148,3.4229,3.3133,3.2692,3.2452,3.0301,2.8804,2.7709,0.0,2.5852,2.5451,2.5064,2.4997,2.505,2.485,2.5197,2.5705,2.5892,2.5678,2.5518,2.6199,2.6814,2.7589,2.8978,2.99,3.0795,3.1971,3.2625,3.308,3.3374,3.304,3.2692,3.2706,3.3106,3.3761,3.475,3.5885,3.6941,3.7702,3.7301,3.6393,3.4937,3.4843,3.4509,3.3521,3.4416,3.5498,3.658,3.6647,3.7088,3.8076,3.801,3.8143,3.8544,3.8584,3.8477,3.8263,3.7969,3.7529,3.6941,3.6153,3.5525,3.5044,3.4549,3.4162,3.3868,3.3547,3.3414,3.3414,3.3414,3.336,3.3253,3.316,3.2222,3.1192,3.1089,3.0522,2.8818,0.0,0.0,0.0,0.0,0.0,0.0,0.0,0.0,0.0,0.0,0.0,0.0,0.0,0.0,0.0,0.0,0.0,2.2178,2.3367,2.4703,2.6213,2.7896,2.9606,3.1491,3.3857,3.5424,3.6208,3.655,3.7852,3.7493,3.5863,3.6292,3.6063,3.518,3.5304,3.5021,3.4295,3.3895,3.3761,3.3708,3.2225,3.1557,3.1196,2.8831,2.7402,0.0,2.5184,2.4917,2.5117,2.4756,2.4756,2.4917,2.485,2.5224,2.5732,2.6026,2.6119,2.636,2.7348,2.8417,2.9606,3.1089,3.1971,3.2706,3.3681,3.3895,3.3801,3.348,3.2692,3.1917,3.141,3.1543,3.2131,3.3334,3.4496,3.5738,3.7155,3.6647,3.5778,3.475,3.4496,3.4068,3.3227,3.3561,3.4576,3.6366,3.6607,3.7168,3.837,3.833,3.8437,3.8865,3.8758,3.8624,3.8437,3.8116,3.7635,3.6941,3.6153,3.5538,3.5057,3.4656,3.4376,3.4175,3.3761,3.3574,3.3574,3.3454,3.3414,3.34,3.3293,3.2353,3.1138,3.1035,3.0587,2.9243,0.0,0.0,0.0,0.0,0.0,0.0,0.0,0.0,0.0,0.0,0.0,0.0,0.0,0.0,0.0,0.0,0.0,0.0,2.2739,2.3394,2.4636,2.6627,2.7335,2.8337,2.9945,3.194,3.3457,3.4359,3.6892,3.8127,3.8264,3.9159,3.8509,3.653,3.6868,3.6006,3.4055,3.3467,3.3053,3.2692,3.1223,3.014,2.9138,2.6814,2.5745,2.5277,2.3861,2.3527,2.3861,2.4422,2.4649,2.4823,2.5665,2.5959,2.6052,2.64,2.6907,2.7629,2.8885,3.0274,3.1717,3.3187,3.3774,3.4135,3.467,3.4322,3.3627,3.2692,3.173,3.0808,0.0,0.0,3.0034,3.1797,3.2679,3.3948,3.6273,3.5645,3.5017,0.0,0.0,0.0,0.0,0.0,3.4108,3.638,3.6754,3.7448,3.8691,3.8477,3.8584,3.9159,3.8905,3.8758,3.8758,3.8437,3.7823,3.6941,3.6366,3.5939,3.5605,3.503,3.4763,3.4736,3.4148,3.3881,3.3855,3.3547,3.3414,3.3387,3.3106,3.1406,2.8938,2.8493,2.8232,2.7972,0.0,0.0,0.0,0.0,0.0,0.0,0.0,0.0,0.0,0.0,0.0,0.0,0.0,0.0,0.0,0.0,0.0,0.0,2.2164,2.2979,2.3968,2.5144,2.66,2.862,3.1028,3.2684,3.3354,3.3369,3.4472,3.3977,3.1911,3.2534,3.2379,3.1716,3.2019,3.1715,3.1009,3.0648,3.0568,3.0568,2.9085,2.835,2.7963,2.6266,2.5304,2.4756,2.3941,2.3714,2.3821,2.4195,2.4743,2.5331,2.5558,2.5932,2.6507,2.7696,2.8297,2.9032,3.1089,3.2412,3.3507,3.4763,3.5297,3.5444,3.5151,3.4469,3.3507,3.2171,3.0314,2.8724,2.807,2.8604,2.9726,3.149,3.3748,3.5872,3.7569,3.7569,0.0,3.6273,0.0,3.5618,3.483,3.5271,0.0,3.7088,3.662,3.7088,3.8945,3.8972,3.9092,3.9493,3.9199,3.9052,3.9052,3.8504,3.7823,3.6941,3.658,3.6126,3.5605,3.503,3.4763,3.4736,3.4148,3.3881,3.3855,3.3547,3.3414,3.34,3.3334,3.2722,3.1853,3.1775,3.1568,3.1283,0.0,0.0,0.0,0.0,0.0,0.0,0.0,0.0,0.0,0.0,0.0,0.0,0.0,0.0,0.0,0.0,0.0,0.0,0.0,2.2579,2.3327,2.4222,2.5077,2.6543,2.8487,3.0136,3.1052,3.1158,3.2639,3.2561,3.1076,3.1896,3.1495,3.0479,3.093,3.0599,2.9499,2.9072,2.8845,0.0,0.0,2.6587,2.6226,2.501,2.4356,2.3995,2.3541,2.3621,2.4048,0.0,0.0,2.5985,2.6507,2.7255,2.8177,2.9406,3.0327,3.1356,3.3213,3.4549,3.5605,3.6393,3.6433,3.6006,3.503,3.3921,3.2532,3.0528,2.8657,2.7148,2.644,2.7161,2.8497,3.0408,0.0,0.0,3.7422,3.7676,3.7635,0.0,3.7275,0.0,3.6393,3.6687,3.7195,3.7929,3.7382,3.7716,3.9265,3.9346,3.9493,3.9786,3.9372,3.9078,3.8972,3.8357,3.7823,3.7301,3.6754,3.6259,3.5805,3.5351,3.507,3.4923,3.4469,3.4202,3.4055,3.3748,3.3534,3.3414,3.3414,3.324,3.2973,3.2973,3.2799,3.2505,0.0,0.0,0.0,0.0,0.0,0.0,0.0,0.0,0.0,0.0,2.1136,0.0,0.0,0.0,0.0,0.0,0.0,0.0,0.0,0.0,2.2806,2.3674,2.346,2.3701,2.4502,2.6228,2.7479,2.8,3.0251,3.1432,3.186,3.2736,3.1983,3.026,3.1018,3.0122,2.8364,2.7802,2.7268,2.6707,2.5692,2.4957,2.4382,0.0,2.33,2.3247,2.3046,2.3434,2.4209,0.0,2.6199,2.6881,2.8016,2.9219,3.0408,3.1396,3.2625,3.3921,3.5204,3.654,3.7595,3.7823,3.7195,3.6153,3.4563,3.2959,3.1076,2.8444,2.6947,2.5852,2.505,2.5692,2.7068,2.9339,0.0,3.4042,3.6901,3.7235,3.7595,3.8758,3.8183,3.7782,3.8036,3.7823,3.7996,3.8838,3.8651,3.8838,3.9599,3.9666,3.9746,3.996,3.9479,3.9052,3.8718,3.821,3.7889,3.7809,3.7008,3.6433,3.6059,3.5765,3.5471,3.5177,3.4897,3.4589,3.4295,3.4002,3.3694,3.3414,3.3414,3.3253,3.304,3.304,3.2879,3.2612,0.0,0.0,0.0,0.0,0.0,0.0,0.0,0.0,0.0,0.0,2.1256,2.1109,0.0,0.0,0.0,0.0,0.0,0.0,0.0,0.0,0.0,2.338,2.3354,2.3514,2.3915,2.4344,2.4405,2.4255,2.4985,2.517,2.4974,2.559,2.5764,2.539,2.5499,2.5432,2.5024,2.4676,2.4476,2.4356,2.4155,2.3861,2.3541,2.338,0.0,0.0,2.3447,2.3394,0.0,2.636,2.7722,2.839,2.9312,3.0581,3.2038,3.3668,3.4496,3.5244,3.6901,3.7916,3.8437,3.8223,3.7529,3.6286,3.4095,3.1891,0.0,2.7188,2.5571,2.4462,2.4075,2.5117,2.7108,3.0394,3.2291,3.471,3.8584,3.8718,3.8758,0.0,3.9452,3.9239,3.9279,3.9239,0.0,3.9773,3.9746,3.9786,3.996,3.996,3.988,3.9666,3.9559,3.9265,3.8731,3.8611,3.8317,3.7809,3.7422,3.6834,3.6059,3.5765,3.5471,3.5177,3.4897,3.4589,3.4295,3.4002,3.3694,3.3414,3.3414,3.3374,3.3334,3.3334,3.3307,3.3187,0.0,0.0,0.0,0.0,0.0,0.0,0.0,2.0361,2.0775,2.1657,2.179,2.167,2.1376,2.1203,2.1229,0.0,0.0,0.0,0.0,0.0,0.0,0.0,2.302,2.3073,2.3527,2.3541,2.3474,2.3327,0.0,2.3474,2.334,2.3621,2.3741,2.3754,2.3915,2.3981,2.3968,2.3834,2.3688,2.3541,2.3541,2.3354,2.3086,0.0,0.0,0.0,0.0,0.0,0.0,0.0,2.8257,2.9726,3.0915,3.2398,3.3975,3.5284,3.6206,3.7088,3.8584,3.9519,3.992,3.9346,3.7929,3.6019,3.3347,0.0,0.0,2.5732,2.4449,2.3701,2.3567,2.4743,2.648,2.8791,3.0541,3.3,3.6981,3.7422,3.8076,4.004,4.0147,4.004,4.004,4.004,4.0107,4.0254,4.0254,4.0254,4.0254,4.0107,3.9893,3.9599,3.9452,3.9159,3.8718,3.8584,3.825,3.7809,3.7529,3.6914,3.6072,3.5925,3.5618,3.5191,3.5044,3.4736,3.4309,3.4162,3.3828,3.3414,3.3414,3.3414,3.3414,3.3414,3.3414,3.3334,0.0,0.0,0.0,0.0,0.0,0.0,0.0,2.0535,2.1109,2.2058,2.2311,2.2245,2.179,2.147,2.1363,0.0,0.0,0.0,0.0,0.0,0.0,0.0,0.0,0.0,2.322,0.0,0.0,2.322,2.3166,0.0,0.0,0.0,0.0,0.0,2.35,2.3621,2.3674,2.3607,2.3447,0.0,0.0,2.3086,0.0,0.0,0.0,0.0,0.0,0.0,0.0,0.0,2.8096,3.0034,3.145,3.3454,3.5444,3.6259,3.7382,3.8624,3.9893,4.0762,4.1122,4.0254,3.817,3.5565,3.2666,2.9633,0.0,2.4569,2.3634,2.322,2.322,2.4222,2.5504,0.0,2.8497,3.0942,3.4977,3.5899,3.7208,0.0,4.0441,0.0,4.0481,4.0481,4.0481,4.0481,4.0481,4.0481,4.0481,4.0254,3.996,3.9599,3.9372,3.9078,3.8718,3.8397,3.8116,3.7809,3.7529,3.6941,3.6166,3.6099,3.5792,3.5284,3.5217,3.487,3.4322,3.4322,3.3961,3.3414,3.3414,3.3414,3.3414,3.3414,3.3414,3.3334,0.0,0.0,0.0,0.0,0.0,0.0,0.0,2.0708,2.1483,2.2632,2.2565,2.2392,2.2352,2.2084,2.1804,0.0,0.0,0.0,0.0,0.0,0.0,0.0,0.0,0.0,0.0,0.0,0.0,2.2899,2.2632,0.0,0.0,0.0,0.0,0.0,0.0,2.31,2.3354,2.3073,0.0,0.0,0.0,0.0,0.0,0.0,0.0,0.0,0.0,0.0,2.3714,0.0,0.0,2.8163,2.9379,3.2438,3.5712,3.6326,0.0,0.0,4.0441,4.1082,4.1122,4.0254,3.7849,3.5004,3.2318,0.0,2.5999,2.4182,2.3327,2.2899,2.2899,2.3247,2.4262,2.6493,2.7682,2.9927,3.4576,3.5939,3.7382,3.9773,0.0,0.0,4.0481,4.0481,4.0481,4.0481,4.0481,4.0481,4.0481,4.0441,4.0187,3.9599,3.9559,3.9306,3.8731,3.8397,3.8116,3.7809,3.7529,3.7048,3.6473,3.6193,3.5899,3.5578,3.5311,3.487,3.4322,3.4322,3.3961,3.3414,3.3414,3.3414,3.3414,3.3414,3.3414,3.3334,0.0,0.0,0.0,0.0,0.0,0.0,1.9734,2.0615,2.1537,2.2712,2.2926,2.2899,2.2712,2.2418,2.2058,2.159,0.0,0.0,0.0,0.0,0.0,0.0,0.0,0.0,0.0,0.0,2.2472,2.2592,2.2472,0.0,0.0,0.0,0.0,0.0,0.0,2.2766,2.3033,2.2913,0.0,0.0,0.0,0.0,0.0,0.0,0.0,0.0,0.0,0.0,2.3487,2.4476,0.0,0.0,2.7054,2.9312,0.0,0.0,3.65,3.8143,4.0321,4.1376,4.1603,4.0548,3.7676,3.4496,3.2198,0.0,2.5251,2.4022,2.3287,2.2859,2.2859,2.2966,2.342,2.4543,2.4863,2.6373,3.0408,3.1423,3.328,3.7408,3.833,3.9092,4.0361,4.0481,4.0481,4.0481,4.0481,4.0481,4.0481,4.0294,4.0107,3.9853,3.9519,3.9225,3.8972,3.8691,3.829,3.7809,3.7702,3.7155,3.6246,3.6126,3.5819,3.5351,3.5057,3.4696,3.4309,3.4135,3.3801,3.3414,3.3414,3.3414,3.3414,3.3414,3.3414,3.336,0.0,0.0,0.0,0.0,0.0,1.8542,1.9575,2.0548,2.1496,2.2592,2.2926,2.2979,2.2752,2.2392,2.1991,2.159,2.155,0.0,0.0,0.0,0.0,0.0,0.0,0.0,0.0,0.0,2.2298,2.2298,2.2298,2.2338,0.0,0.0,2.2579,2.2846,0.0,0.0,0.0,0.0,0.0,0.0,0.0,0.0,0.0,0.0,0.0,0.0,0.0,0.0,0.0,0.0,0.0,0.0,0.0,0.0,0.0,0.0,3.4923,3.7048,3.9372,4.0949,4.167,4.0508,3.7342,3.3975,0.0,0.0,2.473,2.3928,2.3287,2.2859,2.2859,2.2859,2.2939,2.3153,2.3233,2.4409,2.7709,2.8577,3.0541,3.5057,3.6032,3.7168,3.9239,4.008,4.0481,4.0481,4.0481,4.0481,4.0481,4.0294,4.0067,3.992,3.9493,3.9199,3.9012,3.8731,3.833,3.7809,3.7742,3.7168,3.6206,3.6112,3.5792,3.5311,3.4923,3.4589,3.4295,3.4002,3.3694,3.3414,3.3414,3.3414,3.3414,3.3414,3.3414,3.336,0.0,0.0,0.0,0.0,0.0,0.0,1.9417,2.0548,2.143,2.2311,2.2432,2.2432,2.2418,2.1911,2.1563,2.155,2.155,0.0,0.0,0.0,0.0,0.0,0.0,0.0,0.0,0.0,2.1991,2.1991,2.1991,2.2138,2.2418,2.2418,2.2579,2.2846,0.0,0.0,0.0,0.0,0.0,0.0,0.0,0.0,0.0,0.0,0.0,0.0,0.0,0.0,0.0,0.0,0.0,0.0,0.0,0.0,0.0,2.9459,3.2893,3.5965,3.7448,3.9559,4.1082,3.9893,3.6727,3.3427,3.1637,2.7816,2.4476,2.3888,2.3287,2.2859,2.2859,2.2859,2.2859,2.2859,2.3607,2.5117,2.7802,2.8925,3.0461,3.3133,3.3721,3.4723,3.6794,3.9092,4.0481,4.0481,4.0481,4.0481,4.0481,4.0481,4.0214,3.964,3.9599,3.9306,3.8731,3.8397,3.8116,3.7809,3.7529,3.7088,3.65,3.6206,3.5912,3.5591,3.5017,3.4589,3.4295,3.4002,3.3694,3.3414,3.3414,3.3414,3.3414,3.3414,3.3414,3.3334,0.0,0.0,0.0,0.0,0.0,0.0,0.0,2.012,2.1056,2.1737,2.2004,2.2205,2.2392,2.1897,2.155,2.155,2.1363,0.0,0.0,0.0,0.0,0.0,0.0,0.0,0.0,0.0,2.179,2.1991,2.1991,2.2138,2.2418,2.2418,2.2579,2.2846,2.2552,2.2579,0.0,0.0,0.0,0.0,0.0,0.0,0.0,0.0,0.0,0.0,0.0,0.0,0.0,0.0,0.0,0.0,0.0,0.0,0.0,2.6333,2.9259,3.2398,3.4055,3.5645,3.6607,3.5631,3.3267,3.0862,2.97,2.6787,2.4235,2.3848,2.3287,2.2859,2.2859,2.2859,2.306,2.3674,2.4022,2.4703,2.6146,2.8163,3.0381,3.2826,3.6233,3.8651,3.9306,4.004,4.0481,4.0481,4.0481,4.0481,4.0481,4.0294,4.0067,3.9893,3.9706,3.9412,3.9012,3.8504,3.8116,3.7809,3.7529,3.6981,3.6206,3.6112,3.5805,3.5311,3.4923,3.4589,3.4295,3.4002,3.3694,3.3414,3.3414,3.3414,3.3414,3.3414,3.328,3.3093,0.0,0.0,0.0,0.0,0.0,0.0,0.0,1.9826,2.0681,2.1162,2.147,2.1764,2.2058,2.167,2.143,2.1537,2.1283,0.0,0.0,0.0,0.0,0.0,0.0,0.0,2.2098,2.1737,2.1697,2.1991,2.2205,2.2472,2.2766,2.2766,2.2859,2.302,2.2605,2.2579,0.0,0.0,0.0,0.0,0.0,0.0,2.2539,0.0,0.0,0.0,0.0,0.0,0.0,0.0,0.0,0.0,0.0,0.0,0.0,0.0,2.6466,2.8845,3.1062,3.2759,3.3734,3.2973,3.1089,0.0,2.8444,2.6079,2.3995,2.3808,2.3287,2.2859,2.2859,2.2859,2.3046,2.3607,2.3701,2.4195,2.5638,2.7655,0.0,3.2973,3.6874,3.9306,3.9306,4.0,4.0481,4.0481,4.0481,4.0481,4.0481,4.0187,4.0,3.988,3.9599,3.9306,3.9012,3.8504,3.8116,3.7809,3.7408,3.6794,3.6072,3.5952,3.5645,3.5177,3.4776,3.4496,0.0,3.3881,3.3587,3.3414,3.3414,3.3414,3.34,3.3293,3.3133,3.2946,0.0,0.0,0.0,0.0,0.0,0.0,0.0,1.9639,2.0307,2.0601,2.0909,2.1216,2.1496,2.1269,2.1216,2.1496,0.0,0.0,0.0,0.0,0.0,0.0,0.0,0.0,2.1563,2.1537,2.167,2.1951,2.2539,2.2993,2.33,2.334,2.334,2.33,2.2739,2.2619,0.0,0.0,0.0,0.0,0.0,0.0,0.0,0.0,0.0,0.0,0.0,0.0,0.0,0.0,0.0,0.0,0.0,0.0,0.0,0.0,0.0,0.0,0.0,3.0555,3.1944,3.137,2.9766,2.8177,2.7615,2.5545,0.0,2.3741,2.3273,2.2873,2.2886,2.2873,2.2886,2.2979,2.3006,2.3821,2.6092,2.7682,0.0,3.3748,3.6233,3.7595,3.7489,3.9306,4.0481,4.0481,4.0481,4.0481,4.0481,4.0174,3.9893,3.9599,3.9306,3.8972,3.8691,3.837,3.8076,3.7782,3.7195,3.662,3.6059,3.5765,3.5458,3.5137,3.4589,3.4322,3.4242,3.3681,3.3427,3.3414,3.3414,3.3414,3.3374,3.3093,3.2946,3.2839,0.0,0.0,0.0,0.0,0.0,0.0,0.0,0.0,0.0,0.0,2.0788,2.1136,2.1203,2.1149,2.1136,0.0,0.0,0.0,0.0,0.0,0.0,0.0,0.0,0.0,2.155,2.1336,2.1363,2.1657,2.2231,2.2672,2.2979,2.3447,2.3541,2.3313,2.318,2.2899,0.0,0.0,0.0,0.0,0.0,0.0,0.0,0.0,0.0,0.0,2.2418,2.2525,0.0,0.0,0.0,0.0,0.0,0.0,0.0,0.0,2.3794,2.4275,2.5197,0.0,2.7415,2.7054,2.6253,2.5531,0.0,2.4356,2.3434,2.3434,0.0,2.2939,2.318,2.302,2.3153,2.4075,2.4409,2.5064,2.652,3.0461,0.0,3.6914,3.8905,3.964,3.8504,3.9666,4.0481,4.0481,4.0481,4.0481,4.0481,4.0,3.9666,3.9599,3.9092,3.8691,3.837,3.8076,3.7782,3.7489,3.6901,3.6433,3.6059,3.5765,3.5351,3.4857,3.4723,3.4402,3.3975,3.3841,3.3627,3.3414,3.3414,3.3414,3.3374,3.3093,3.2692,3.2251,0.0,0.0,0.0,0.0,0.0,0.0,0.0,0.0,0.0,0.0,0.0,2.1109,2.1109,2.1109,0.0,0.0,0.0,0.0,0.0,0.0,0.0,0.0,0.0,2.1349,2.1349,2.1189,2.139,2.1951,2.2405,2.2913,2.3487,2.3821,2.3808,2.3514,2.31,2.2726,0.0,0.0,0.0,0.0,2.179,0.0,0.0,0.0,0.0,0.0,2.2271,2.2418,0.0,2.3273,2.3447,2.338,0.0,0.0,0.0,0.0,2.3647,2.3834,2.4128,2.4663,2.5144,2.5117,2.477,2.4436,2.4436,0.0,0.0,0.0,0.0,2.2913,2.3086,2.3086,2.3327,2.4115,2.4596,2.5798,0.0,0.0,3.5832,3.8183,3.9559,4.0107,3.9559,4.0107,4.0481,4.0481,4.0481,4.0481,4.0481,3.9933,3.9599,3.9599,3.9012,3.8584,3.8263,3.7969,3.7595,3.7155,3.658,3.6086,3.5658,3.5364,3.499,3.4549,3.4416,3.4175,3.3881,3.3734,3.3574,3.3414,3.3414,3.3334,3.3173,3.2893,3.2412,3.1864,0.0,0.0,0.0,0.0,0.0,0.0,0.0,0.0,0.0,0.0,0.0,0.0,0.0,0.0,0.0,0.0,0.0,0.0,0.0,0.0,0.0,0.0,2.1109,2.1109,2.1109,2.1109,2.1496,2.2285,2.2766,2.3394,2.4142,2.4315,2.4155,2.3661,2.2971,2.2552,0.0,0.0,0.0,0.0,2.1483,0.0,0.0,0.0,0.0,0.0,0.0,0.0,0.0,2.346,2.3607,2.3487,2.4035,0.0,0.0,0.0,0.0,0.0,2.4182,2.4302,2.4382,2.4583,2.4356,2.4088,2.4128,0.0,0.0,0.0,0.0,0.0,0.0,2.326,0.0,2.3968,2.4863,2.7001,3.1289,3.4028,3.638,3.8464,3.9346,3.9893,4.0187,4.0361,4.0481,4.0481,4.0481,4.0441,4.0401,3.9893,3.9559,3.9533,3.8945,3.8504,3.8183,3.7889,3.7448,3.6861,3.6233,3.5672,3.5191,3.4843,3.4536,3.4242,3.4002,3.3855,3.3788,3.3521,3.3387,3.3347,3.3347,3.3173,3.2866,3.2532,3.2064,3.1543,0.0,0.0,0.0,0.0,0.0,0.0,0.0,0.0,0.0,0.0,0.0,0.0,0.0,0.0,0.0,0.0,0.0,0.0,0.0,0.0,0.0,2.1109,2.1109,2.1109,2.1109,2.1109,2.1296,2.1683,2.2993,2.3701,2.3861,2.485,2.4623,2.334,2.3619,2.295,2.167,2.1376,0.0,0.0,2.1176,0.0,0.0,0.0,0.0,0.0,0.0,0.0,0.0,2.346,2.3741,2.3768,2.4102,0.0,0.0,0.0,0.0,0.0,2.4422,2.4756,2.489,2.469,2.4048,2.3527,2.3781,0.0,0.0,0.0,0.0,0.0,0.0,2.3875,2.4329,0.0,0.0,3.0755,3.4429,3.6366,3.7742,3.8611,3.9893,4.0254,3.9092,3.9893,4.0481,4.0481,4.0481,4.0361,4.0107,3.9786,3.9493,3.9225,3.8651,3.8183,3.7889,3.7595,3.7155,3.658,3.5725,3.5284,3.5177,3.4629,3.4229,3.3948,3.3908,3.3734,3.348,3.3427,3.3267,3.304,3.304,3.2866,3.2545,3.2011,3.1583,3.1142,0.0,0.0,0.0,0.0,0.0,0.0,0.0,0.0,0.0,0.0,0.0,0.0,0.0,0.0,0.0,0.0,0.0,0.0,0.0,0.0,2.1109,2.1109,2.1109,2.1109,2.1109,2.1416,2.1884,2.2512,2.3514,2.4898,2.6686,2.7583,2.6142,2.3171,2.3666,2.3049,2.1537,2.1229,0.0,0.0,0.0,0.0,0.0,0.0,0.0,0.0,0.0,0.0,0.0,0.0,2.3661,2.3634,2.4249,0.0,0.0,0.0,0.0,0.0,2.3861,2.4142,2.4449,2.4796,2.4449,2.3901,2.3394,0.0,0.0,0.0,0.0,0.0,0.0,0.0,2.6373,2.8698,3.0996,3.324,3.5338,3.6607,3.7676,3.8611,3.9452,3.9893,3.968,4.0147,4.0401,4.0254,4.0254,4.0107,3.9813,3.9519,3.9225,3.8945,3.8477,3.8036,3.7595,3.7128,3.6687,3.6259,3.5538,3.503,3.471,3.4282,3.3921,3.3627,3.3627,3.3547,3.3414,3.3414,3.324,3.2973,3.2973,3.2612,3.1957,3.1062,3.0635,3.0394,0.0,0.0,0.0,0.0,0.0,0.0,0.0,0.0,0.0,0.0,0.0,0.0,0.0,0.0,0.0,0.0,0.0,0.0,0.0,2.1109,2.1082,2.1015,2.1069,2.1149,2.1216,2.1857,2.2632,2.3527,2.4329,2.6154,2.9078,2.9377,2.743,2.3378,2.4124,2.3315,2.143,2.1203,2.1109,0.0,0.0,0.0,0.0,0.0,0.0,0.0,0.0,0.0,0.0,0.0,0.0,0.0,0.0,0.0,0.0,2.3821,2.3768,2.3541,2.3621,2.3848,2.4195,2.4663,2.4596,2.4315,2.3888,0.0,0.0,0.0,0.0,0.0,0.0,2.652,0.0,3.1797,3.3788,3.5297,3.6313,3.7155,3.8036,3.9012,3.9346,3.9746,4.0401,4.0401,4.0294,4.004,3.996,3.9813,3.9519,3.9225,3.8905,3.8611,3.825,3.7823,3.7275,3.6687,3.6286,3.6059,3.5338,3.475,3.4309,3.3948,3.3641,3.3414,3.3414,3.3374,3.3307,3.3307,3.3093,3.2772,3.2692,3.2091,3.1156,3.0327,2.9847,2.9553,0.0,0.0,0.0,0.0,0.0,0.0,0.0,0.0,0.0,0.0,0.0,0.0,0.0,0.0,0.0,0.0,0.0,0.0,0.0,2.1109,2.0989,2.0722,2.0962,2.1243,2.151,2.2365,2.3233,2.4142,2.5545,2.7056,2.8635,2.8711,2.7358,2.5024,2.5641,2.407,2.1136,2.1122,2.1109,2.1109,0.0,0.0,0.0,0.0,0.0,0.0,0.0,0.0,0.0,0.0,0.0,0.0,0.0,0.0,2.4168,2.4476,2.4369,2.4195,2.4476,2.4756,2.481,2.4048,2.3848,0.0,2.6119,2.5905,0.0,2.6747,0.0,0.0,0.0,2.8551,3.0728,3.2612,3.5084,3.7275,3.8691,3.9412,3.996,4.0294,4.0361,4.0401,4.0481,4.0214,4.0067,4.0027,3.9786,3.9493,3.9199,3.8905,3.8611,3.829,3.7742,3.7301,3.6981,3.6393,3.6099,3.6059,3.4923,3.4362,3.4295,3.3708,3.3427,3.3414,3.3414,3.3253,3.3013,3.3013,3.2679,3.2144,3.1864,3.1062,3.006,3.0261,2.9633,2.8738,0.0,0.0,0.0,0.0,0.0,0.0,0.0,0.0,0.0,0.0,0.0,0.0,0.0,0.0,0.0,0.0,0.0,0.0,0.0,2.1109,2.1056,2.0949,2.1056,2.1256,2.155,2.2966,2.5194,2.8366,3.1873,3.1729,2.8477,3.016,2.8028,2.3004,2.4064,2.3186,2.1109,2.1109,2.1109,2.1109,2.1109,0.0,0.0,0.0,0.0,0.0,0.0,0.0,0.0,0.0,2.3915,2.3834,2.4235,2.4035,2.3674,2.3794,2.3741,2.3647,2.3554,2.4155,2.4716,2.4396,2.473,0.0,0.0,2.6039,2.6386,2.7575,2.8016,0.0,0.0,0.0,3.3066,3.4643,3.6834,3.8718,3.9813,4.0187,4.0361,4.0468,4.0481,4.0401,4.0214,4.0107,3.988,3.9519,3.9372,3.9118,3.8624,3.8504,3.8223,3.7716,3.7315,3.6981,3.6687,3.6086,3.5712,3.5511,3.471,3.4322,3.4295,3.3694,3.3414,3.34,3.3213,3.308,3.2959,3.2786,3.2372,3.177,3.1116,3.0581,3.0167,2.9913,2.9419,2.8871,0.0,0.0,0.0,0.0,0.0,0.0,0.0,0.0,0.0,0.0,0.0,0.0,0.0,0.0,0.0,0.0,0.0,0.0,2.0975,2.1056,2.1029,2.0842,2.1015,2.1336,2.1817,2.3474,2.629,3.0263,3.4357,3.372,2.894,3.0292,2.7933,2.2424,2.3325,2.286,2.1256,2.1256,2.1256,2.1243,2.1149,2.1162,0.0,0.0,0.0,0.0,0.0,0.0,0.0,0.0,2.3875,2.3688,2.3981,2.3728,2.334,2.3434,2.3327,2.314,2.2926,2.346,2.4142,2.4436,0.0,0.0,2.6881,2.7281,2.7963,2.9619,2.9913,0.0,3.0782,0.0,0.0,3.5698,3.7809,3.9559,4.0361,4.0481,4.0481,4.0481,4.0481,4.0361,4.0067,3.9853,3.9559,3.9052,3.8838,3.8504,3.801,3.7889,3.7595,3.7128,3.6834,3.654,3.6233,3.5738,3.5351,3.5057,3.4469,3.4189,3.4162,3.3654,3.336,3.3267,3.3066,3.2866,3.2692,3.2492,3.1957,3.1183,3.0488,3.0047,2.9766,2.9459,2.9098,2.8738,0.0,0.0,0.0,0.0,0.0,0.0,0.0,0.0,0.0,0.0,0.0,0.0,0.0,0.0,0.0,0.0,0.0,0.0,2.0695,2.0949,2.0855,2.0267,2.0802,2.151,2.2392,2.3861,2.5931,2.8777,3.1437,3.1942,3.026,2.8705,2.6679,2.4179,2.4052,2.3064,2.155,2.155,2.155,2.1537,2.1229,2.1296,2.159,0.0,0.0,0.0,0.0,0.0,0.0,0.0,2.3581,2.338,2.3674,2.3567,2.338,2.3674,2.334,2.2873,2.2859,2.2859,2.3086,0.0,0.0,0.0,2.9713,3.014,3.0688,3.3347,3.2732,3.1784,3.2064,3.2839,0.0,3.5391,3.7849,3.9813,4.0401,4.0481,4.0481,4.0481,4.0481,4.0361,4.0067,3.9493,3.9052,3.8731,3.8143,3.7676,3.7382,3.7088,3.6794,3.65,3.6219,3.5925,3.5631,3.5338,3.5044,3.475,3.4162,3.3881,3.3881,3.3561,3.3253,3.2973,3.2973,3.2639,3.2104,3.2091,3.141,3.0327,3.0034,2.9379,2.8644,2.8938,2.8657,2.819,0.0,0.0,0.0,0.0,0.0,0.0,0.0,0.0,0.0,0.0,0.0,0.0,0.0,0.0,0.0,0.0,0.0,0.0,2.0989,2.1069,2.1029,2.0855,2.1015,2.1229,2.1496,2.4189,2.7387,3.1134,3.2353,3.1626,2.906,2.7057,2.477,2.2438,2.2531,2.2367,2.1844,2.1643,2.167,2.183,2.1537,2.1603,2.1884,0.0,0.0,0.0,0.0,0.0,0.0,0.0,0.0,0.0,2.3434,2.3541,2.3567,2.3233,2.33,2.3407,2.2979,2.318,0.0,2.5117,0.0,0.0,0.0,3.1343,0.0,0.0,3.4295,3.3814,3.3681,3.4549,3.5498,3.6139,3.7956,3.9559,4.0361,4.0481,4.0401,4.0187,4.0174,3.996,3.9452,3.9265,3.8945,3.8437,3.8036,3.7595,3.7088,3.6794,3.65,3.6206,3.5712,3.5418,3.5324,3.483,3.4429,3.4148,3.3975,3.3881,3.3881,3.3561,3.3253,3.2973,3.2759,3.2452,3.2051,3.1436,3.0728,3.002,2.9726,2.9325,2.8925,2.9005,2.8804,2.8484,0.0,0.0,0.0,0.0,0.0,0.0,0.0,0.0,0.0,0.0,0.0,0.0,0.0,0.0,0.0,0.0,0.0,0.0,0.0,2.0869,2.0882,2.0762,2.0989,2.1269,2.1617,2.3742,2.6235,2.9281,3.071,3.0086,2.7293,2.5905,2.3985,2.175,2.2285,2.2445,2.2325,2.2151,2.2111,2.2138,2.1844,2.1897,2.2178,0.0,0.0,0.0,0.0,0.0,0.0,0.0,0.0,0.0,2.318,2.3354,2.35,2.3006,2.2953,2.3033,2.2899,2.322,0.0,2.5999,2.7535,2.9459,3.2826,0.0,0.0,0.0,3.5725,3.5297,3.5351,3.5845,3.6473,3.7088,3.8504,3.9746,4.0401,4.0481,4.0361,4.0067,4.0027,3.9746,3.9052,3.8865,3.8544,3.7969,3.7529,3.7088,3.662,3.6206,3.5859,3.5565,3.5097,3.4843,3.4843,3.4389,3.4055,3.3881,3.3761,3.3641,3.3521,3.344,3.3187,3.2772,3.2251,3.1917,3.169,3.0942,3.0274,2.9713,2.9419,2.9058,2.8684,2.8684,2.8577,2.8417,0.0,0.0,0.0,0.0,0.0,0.0,0.0,0.0,0.0,0.0,0.0,0.0,0.0,0.0,0.0,0.0,0.0,0.0,0.0,2.0535,2.0575,2.0321,2.0828,2.1483,2.2285,2.2539,2.3333,2.451,2.7334,2.7451,2.5282,2.5024,2.3865,2.2071,2.2993,2.322,2.2899,2.2899,2.2726,2.2432,2.2164,2.2231,2.2458,2.2458,0.0,0.0,0.0,0.0,0.0,0.0,0.0,0.0,2.2953,2.3073,2.326,2.2953,2.2485,2.2205,2.2819,0.0,0.0,2.6867,2.9045,0.0,3.4616,3.6433,3.7489,3.7702,0.0,3.6433,3.6941,3.6834,3.7021,3.8116,3.9239,4.0067,4.0361,4.0401,4.0294,3.996,3.992,3.9599,3.8718,3.837,3.7929,3.7382,3.6794,3.6326,3.6006,3.5458,3.5017,3.4736,3.4429,3.4282,3.4282,3.3988,3.3841,3.3841,3.3547,3.3253,3.2986,3.3253,3.304,3.2425,3.1583,3.1196,3.1102,3.0541,2.9967,2.9419,2.9112,2.8644,2.8136,2.8136,2.8136,2.8136,0.0,0.0,0.0,0.0,0.0,0.0,0.0,0.0,0.0,0.0,0.0,0.0,0.0,0.0,0.0,0.0,0.0,0.0,0.0,2.0762,2.0748,2.0909,2.1042,2.1203,2.139,2.1229,2.1484,2.1888,2.349,2.4113,2.4029,2.3511,2.3011,2.2378,2.3514,2.3728,2.322,2.322,2.3046,2.2766,2.2699,2.2712,2.2766,2.2766,2.2806,0.0,0.0,0.0,0.0,0.0,0.0,0.0,2.2886,2.3073,2.326,2.2953,2.2766,2.2859,2.3688,2.4128,0.0,0.0,3.2412,3.5351,3.634,3.7155,3.7595,3.7195,3.7489,3.7742,3.7635,3.7782,3.8036,3.8544,3.9012,3.9452,3.9746,3.9786,3.9599,3.9052,3.9012,3.8758,3.8076,3.7742,3.7422,3.7048,3.65,3.5939,3.5418,3.5044,3.4723,3.4429,3.4135,3.3975,3.3975,3.3668,3.3507,3.3507,3.344,3.3253,3.2986,3.304,3.2625,3.1837,3.141,3.0969,3.0515,3.0154,2.9659,2.9112,2.8818,2.847,2.8136,2.8136,2.8136,2.8136,0.0,0.0,0.0,0.0,0.0,0.0,0.0,0.0,0.0,0.0,0.0,0.0,0.0,0.0,0.0,0.0,0.0,0.0,0.0,0.0,2.0588,2.0895,2.1029,2.1109,2.1109,2.0962,2.0962,2.1109,2.1724,2.2298,2.2596,2.2767,2.2859,2.2899,2.3794,2.4035,2.3741,2.3594,2.3367,2.31,2.3233,2.3207,2.3086,2.3086,2.3086,2.3046,2.2739,0.0,0.0,0.0,0.0,0.0,0.0,0.0,2.3073,2.2913,2.2766,2.2913,2.4088,0.0,0.0,3.0795,0.0,3.658,3.6861,3.7155,3.7301,3.7008,3.7635,3.8223,3.8076,3.8397,3.8731,3.8905,3.9159,3.9412,3.9559,3.9493,3.9225,3.8758,3.8464,3.8063,3.7448,3.7128,3.6834,3.654,3.5979,3.5511,3.5217,3.4656,3.4269,3.4122,3.3814,3.3654,3.3654,3.3494,3.3347,3.32,3.32,3.2973,3.2559,3.2412,3.2104,3.1623,3.0915,3.0421,3.0114,2.9673,2.9232,2.8818,2.8671,2.8417,2.8136,2.8136,2.8136,2.8136,0.0,0.0,0.0,0.0,0.0,0.0,0.0,0.0,0.0,0.0,0.0,0.0,0.0,0.0,0.0,0.0,0.0,0.0,0.0,0.0,0.0,2.0735,2.0975,2.1109,2.1109,2.1056,2.1056,2.1109,2.1109,2.1363,2.1871,2.2552,2.306,2.342,2.3968,2.4168,2.4115,2.3928,2.3647,2.3354,2.3701,2.3674,2.3407,2.3407,2.3367,2.3287,2.2979,2.2859,2.2859,2.2806,0.0,0.0,0.0,0.0,2.2873,2.2926,2.2726,2.2819,2.4315,0.0,2.8537,3.2505,3.4977,0.0,3.6727,3.6794,3.6794,3.6794,3.7489,3.8076,3.8036,3.8504,3.8931,3.8931,3.9159,3.9346,3.9306,3.9118,3.8865,3.8464,3.7956,3.7408,3.6754,3.65,3.6206,3.5872,3.5391,3.5084,3.4977,3.4282,3.3855,3.3801,3.3494,3.3334,3.3334,3.3293,3.3146,3.2906,3.2799,3.2492,3.2011,3.1623,3.145,3.1383,3.0368,2.986,2.9726,2.9192,2.8818,2.8604,2.8551,2.8364,2.8136,2.8136,2.8136,2.8136,0.0,0.0,0.0,0.0,0.0,0.0,0.0,0.0,0.0,0.0,0.0,0.0,0.0,0.0,0.0,0.0,0.0,0.0,2.0214,0.0,0.0,2.1042,2.1082,2.1109,2.1109,2.0869,2.0855,2.1109,2.1109,2.179,2.3086,2.2926,2.3166,2.3728,2.4062,2.4062,2.3848,2.4062,2.3834,2.338,2.3928,2.3968,2.3714,2.3714,2.3554,2.3287,2.2979,2.2859,2.2819,2.2565,2.2672,0.0,0.0,0.0,2.2913,2.318,2.3046,2.3126,2.4623,0.0,3.1156,0.0,3.499,3.6139,0.0,0.0,3.6193,3.6193,3.6874,3.7422,3.7155,3.7595,3.7996,3.7996,3.825,3.8357,3.8103,3.825,3.8076,3.7261,3.7114,3.6727,3.5885,3.5765,3.5525,3.4977,3.487,3.4603,3.4095,3.3948,3.3761,3.348,3.3187,3.304,3.304,3.2786,3.2639,3.2599,3.2091,3.1797,3.1704,3.0902,3.0528,3.0515,3.01,2.9633,2.9125,2.8804,2.8644,2.8577,2.831,2.8177,2.8136,2.8136,2.8136,2.8136,0.0,0.0,0.0,0.0,0.0,0.0,0.0,0.0,0.0,0.0,0.0,0.0,0.0,0.0,0.0,2.0454,2.0508,2.0521,2.0481,2.0441,2.0561,2.0855,2.1029,2.1109,2.1109,2.0989,2.0989,2.1109,2.1269,2.2124,0.0,2.3434,2.3781,2.4502,2.4636,2.4529,2.4249,2.4222,2.4048,2.3861,2.4275,2.4075,2.3554,2.3888,2.3728,2.3313,2.318,2.3126,2.3073,2.2766,2.2752,2.2859,2.2859,0.0,0.0,0.0,2.31,2.3701,2.6346,2.8738,3.0996,0.0,3.4362,3.5177,3.5511,3.5458,3.5431,3.5752,3.6006,3.6273,3.662,3.7048,3.7342,3.7342,3.7448,3.7489,3.7342,3.7301,3.7128,3.6754,3.6259,3.5805,3.5418,3.5084,3.479,3.4536,3.4362,3.4162,3.3895,3.3721,3.3561,3.3414,3.3133,3.2973,3.2973,3.2692,3.2385,3.2051,3.1463,3.1183,3.1156,3.0434,3.0114,3.0087,2.9619,2.9192,2.8778,2.847,2.835,2.8337,2.819,2.8136,2.8136,2.8136,2.8136,2.8136,0.0,0.0,0.0,0.0,0.0,0.0,0.0,0.0,0.0,0.0,0.0,0.0,0.0,0.0,0.0,0.0,2.0802,2.0828,2.0681,2.0468,2.0481,2.0775,2.0989,2.1109,2.1109,2.1109,2.1109,2.1109,2.1483,2.2458,2.3995,2.4142,2.477,0.0,2.5277,2.4957,2.473,2.4436,2.4356,2.4422,2.4422,2.4022,2.3474,2.3754,2.3541,2.3113,2.3273,0.0,0.0,0.0,2.2926,2.2859,2.2859,2.2712,0.0,0.0,0.0,2.4182,0.0,0.0,2.9753,3.1877,3.3146,3.4028,3.4616,3.4696,3.4776,3.5204,3.5124,3.5177,3.5832,3.6366,3.6687,3.6607,3.6727,3.6794,3.6727,3.654,3.634,3.6193,3.5538,3.503,3.487,3.4536,3.4255,3.4095,3.3961,3.3814,3.3668,3.3427,3.3267,3.32,3.2906,3.2759,3.2759,3.2398,3.1957,3.1436,3.0929,3.0648,3.0555,3.0047,2.9726,2.9553,2.9125,2.8764,2.847,2.8243,2.8136,2.8136,2.8136,2.8136,2.8136,2.8136,2.8136,2.8136,0.0,0.0,0.0,0.0,0.0,0.0,0.0,0.0,0.0,0.0,0.0,0.0,2.0575,2.0401,2.0374,2.0655,2.0428,2.0388,2.0655,2.0655,2.0788,2.1069,2.1096,0.0,2.1109,2.1109,2.1109,2.1109,2.1683,2.2859,2.4609,2.5157,2.6186,2.7495,2.5825,2.5077,2.5037,0.0,0.0,0.0,0.0,0.0,0.0,0.0,0.0,2.2539,2.3113,0.0,0.0,0.0,0.0,0.0,0.0,2.2846,2.2953,0.0,0.0,0.0,0.0,2.652,2.7776,2.9299,3.1169,3.2786,3.3374,3.3935,3.4349,3.4376,3.4376,3.4376,3.4429,3.5351,3.6032,3.5738,3.6166,3.6433,3.6153,3.6099,3.5885,3.5338,3.4977,3.4563,3.4015,3.4175,3.4082,3.3507,3.3721,3.3641,3.3053,3.3013,3.2879,3.2599,3.2305,3.2144,3.2144,3.1583,3.1142,3.0835,3.0528,3.0234,2.9953,2.9646,2.9205,2.8671,2.8644,2.8457,2.8163,2.815,2.8136,2.8136,2.8136,2.8136,2.8136,2.8136,2.8136,2.8136,0.0,0.0,0.0,0.0,0.0,0.0,0.0,0.0,0.0,0.0,0.0,0.0,0.0,2.0748,2.0842,2.0949,2.0508,2.0361,2.0655,2.0494,2.0521,2.0815,2.1002,2.1109,2.1109,2.1109,2.1109,2.1109,2.151,2.2432,2.3808,2.4396,2.5251,2.6293,2.6226,2.5985,2.5611,2.513,0.0,0.0,0.0,0.0,0.0,0.0,0.0,0.0,0.0,0.0,0.0,0.0,0.0,0.0,0.0,0.0,0.0,0.0,0.0,0.0,0.0,0.0,2.6266,2.7923,2.9472,3.0688,3.1076,3.2358,3.3467,3.3467,3.3774,3.4042,3.4042,3.4536,3.491,3.4803,3.4963,3.507,3.4963,3.495,3.487,3.4656,3.4376,3.4122,3.3908,3.3627,3.3374,3.3146,3.3066,3.2933,3.2706,3.2519,3.2372,3.2265,3.1797,3.145,3.1263,3.0675,3.0327,3.0221,2.974,2.9459,2.9339,2.9058,2.8804,2.8591,2.839,2.8243,2.8136,2.8136,2.8136,2.8136,2.8136,2.8136,2.8136,2.8136,2.8136,2.7968,0.0,0.0,0.0,0.0,0.0,0.0,0.0,0.0,0.0,1.9893,0.0,0.0,0.0,0.0,2.1069,2.0975,2.0695,2.0575,2.0668,2.0588,2.0615,2.0815,2.1002,2.1109,2.1109,2.1109,2.1109,2.1109,2.151,2.2258,2.334,2.3928,2.4783,2.5825,2.6213,2.6226,0.0,0.0,0.0,2.5264,0.0,0.0,2.3714,0.0,0.0,0.0,0.0,0.0,0.0,0.0,0.0,0.0,0.0,0.0,0.0,0.0,0.0,0.0,2.4596,0.0,0.0,2.6694,2.7709,2.8564,2.9553,3.0755,3.1797,3.2291,3.2786,3.3227,3.3521,3.3734,3.3935,3.4148,3.4255,3.4322,3.4322,3.4148,3.4028,3.4028,3.3681,3.344,3.344,3.3066,3.2839,3.2839,3.2559,3.2305,3.2118,3.1824,3.157,3.137,3.0996,3.0648,3.0354,2.9967,2.9726,2.9619,2.9232,2.8991,2.8885,2.8698,2.8551,2.8444,2.823,2.8136,2.8136,2.8136,2.8136,2.8136,2.8136,2.8136,2.8136,2.8136,2.8136,2.7799,0.0,0.0,0.0,0.0,0.0,0.0,0.0,0.0,1.9586,2.0174,0.0,0.0,0.0,0.0,0.0,2.0722,2.0949,2.0975,2.0695,2.0935,2.1096,2.1096,2.1109,2.1109,2.1109,2.1109,2.1109,2.1109,2.1697,2.2418,2.33,2.3901,2.4943,2.6306,2.5758,2.5665,2.5932,0.0,2.5945,2.5798,0.0,2.3875,2.4556,0.0,0.0,0.0,2.4062,2.3808,0.0,2.2993,0.0,0.0,0.0,0.0,0.0,0.0,0.0,0.0,0.0,0.0,0.0,2.5504,2.5879,2.6507,2.8778,2.9125,2.9379,3.0822,3.1396,3.1904,3.2772,3.2959,3.316,3.3748,3.4095,3.4282,3.4269,3.3774,3.34,3.3387,3.2879,3.2519,3.2519,3.2519,3.2505,3.2505,3.2225,3.1797,3.1236,3.0915,3.0488,2.9913,2.9887,2.9753,2.9472,2.9459,2.9312,2.9032,2.9018,2.8871,2.8591,2.8591,2.843,2.8136,2.8136,2.8136,2.8136,2.8136,2.8136,2.8136,2.8136,2.8136,2.8136,2.8136,2.8136,2.7799,0.0,0.0,0.0,0.0,0.0,1.9439,1.9653,1.9679,1.9893,0.0,0.0,0.0,2.1363,2.143,2.1403,2.1323,2.1002,2.0762,2.0681,2.0748,2.0802,2.0802,2.1002,2.1109,2.1109,2.1109,2.1109,2.1109,2.1483,2.1911,2.2378,2.3193,2.4008,2.4836,2.5304,2.5438,2.5317,2.5317,0.0,2.5838,2.4502,2.4356,0.0,0.0,0.0,0.0,0.0,2.3407,2.3634,0.0,2.3607,2.3674,0.0,0.0,0.0,0.0,0.0,0.0,2.3407,0.0,0.0,0.0,0.0,0.0,2.4983,2.6279,2.7669,2.8497,2.9766,3.0996,3.1864,3.2385,3.2719,3.2893,3.316,3.328,3.3066,3.2706,3.2398,3.2185,3.2011,3.1917,3.1917,3.1717,3.1597,3.1597,3.1129,3.0768,3.0608,3.0127,2.9673,2.9299,2.9285,2.9245,2.9165,2.8951,2.8804,2.8724,2.8497,2.835,2.827,2.827,2.823,2.8136,2.8136,2.8136,2.8136,2.8136,2.8136,2.8136,2.8136,2.8136,2.8136,2.8136,2.7109,2.5373,0.0,0.0,0.0,1.9546,1.9546,1.9639,1.9933,1.9987,2.0147,0.0,0.0,0.0,2.167,2.1844,2.1871,2.175,2.1416,2.1176,2.1042,2.1042,2.0989,2.0869,2.1015,2.1109,2.1109,2.1109,2.1109,2.1109,2.1523,2.1884,2.2178,2.2966,2.3634,2.4222,2.4743,0.0,0.0,0.0,0.0,0.0,2.489,0.0,0.0,2.4703,2.4409,0.0,0.0,0.0,2.4596,2.3981,2.3808,0.0,0.0,0.0,0.0,0.0,0.0,0.0,0.0,0.0,0.0,0.0,0.0,0.0,2.3474,2.4275,2.5291,2.6386,2.7629,2.8911,3.0167,3.0875,3.1396,3.1757,3.1851,3.1957,3.2158,3.1824,3.145,3.1156,3.1009,3.0942,3.0942,3.0782,3.0675,3.0675,3.0247,2.9887,2.9646,2.9179,2.8845,2.8671,2.8671,2.8671,2.8671,2.8497,2.8417,2.8417,2.823,2.8136,2.8136,2.8136,2.8136,2.8136,2.8136,2.8136,2.8136,2.8136,2.8136,2.8136,2.8136,2.8136,2.8136,2.8136,2.6758,2.4337,0.0,0.0,1.98,1.98,1.98,1.992,2.0281,2.0416,2.0645,0.0,2.1109,2.151,2.2071,2.2365,2.2405,2.2111,2.2084,2.1951,2.1617,2.1603,2.147,2.1176,2.1122,2.1109,2.1109,2.1109,2.1122,2.1162,2.171,2.2151,2.2485,2.3086,2.3674,2.4209,2.4235,0.0,0.0,0.0,0.0,2.5451,2.5251,2.5838,0.0,0.0,2.6547,2.6707,2.6186,2.5985,2.5745,2.4342,2.3621,0.0,0.0,0.0,0.0,0.0,2.3794,0.0,0.0,0.0,0.0,0.0,2.3113,0.0,2.3313,2.2979,2.2913,2.4502,2.5331,2.6279,2.7949,2.8791,2.9472,3.0194,3.0221,3.0488,3.1396,3.1022,3.0541,3.0247,2.998,2.982,2.982,2.982,2.982,2.982,2.9553,2.9138,2.8591,2.8297,2.8136,2.8136,2.8136,2.8136,2.8136,2.8136,2.8136,2.8136,2.8136,2.8136,2.8136,2.8136,2.8136,2.8136,2.8136,2.8136,2.8136,2.8136,2.8136,2.8136,2.7968,2.7799,2.7799,2.7448,2.5896,2.3652,0.0,1.976,1.98,1.98,1.98,2.0054,2.0815,2.1821,2.2319,2.1889,2.2191,2.2659,2.3033,2.3113,2.3033,2.2726,2.2686,2.2472,2.1937,2.1897,2.1777,2.1483,2.1243,2.1109,2.1109,2.1109,2.1229,2.147,2.1817,2.2258,2.2792,2.3394,2.3875,2.4209,2.4449,2.4583,0.0,0.0,0.0,2.5197,2.5611,2.6199,2.6787,2.6507,2.6426,2.6453,2.6346,2.6159,2.5798,2.481,2.3955,2.3407,0.0,0.0,0.0,2.4209,0.0,0.0,0.0,0.0,0.0,0.0,2.3273,0.0,2.2205,2.2392,2.2873,2.322,2.3968,2.4863,2.5919,2.6987,2.7602,2.7295,2.8203,2.9339,3.0461,3.0114,2.9633,2.9339,2.9245,2.9205,2.9205,2.9205,2.9205,2.9205,2.8938,2.8617,2.8257,2.8177,2.8136,2.8136,2.8136,2.8136,2.8136,2.8136,2.8136,2.8136,2.8136,2.8136,2.8136,2.8136,2.8136,2.8136,2.8136,2.8136,2.8136,2.8136,2.8136,2.7968,2.6066,2.5373,2.5203,2.3298,2.1048,1.915,1.992,2.004,2.0187,2.004,2.0254,2.0889,2.2482,2.331,2.3843,2.3747,2.3612,2.3594,2.3741,2.3768,2.3647,2.334,2.3313,2.3126,2.2686,2.2512,2.2298,2.1991,2.171,2.1483,2.1336,2.147,2.155,2.155,2.2138,2.2659,2.31,2.3701,2.3981,2.4008,2.4436,2.4476,2.4222,0.0,2.489,2.5344,2.5932,0.0,2.6841,2.6987,2.7041,2.7028,2.6881,2.6547,2.6012,2.4983,2.4436,0.0,2.3861,2.3661,2.3647,0.0,2.4008,2.3647,0.0,0.0,0.0,2.3354,2.31,0.0,0.0,2.167,2.1857,2.2151,2.2565,2.3153,2.4022,2.4917,2.5571,2.5718,2.636,2.7161,2.8043,2.8537,2.8657,2.8203,2.815,2.815,2.815,2.8283,2.843,2.8577,2.8457,2.831,2.815,2.8136,2.8136,2.8136,2.8136,2.8136,2.8136,2.8136,2.807,2.7923,2.807,2.807,2.7923,2.807,2.8136,2.8136,2.8136,2.8136,2.8136,2.8136,2.7448,2.6406,2.5203,2.4691,2.4337,2.2084,1.9836,1.7763,2.008,2.0347,2.0601,2.0361,2.0997,2.223,2.4172,2.5098,2.5804,2.6222,2.5144,2.4436,2.4382,2.4315,2.4222,2.4035,2.3754,2.3594,2.3581,2.3126,2.2699,2.2352,2.2164,2.1884,2.147,2.1804,2.1924,2.1804,2.2512,2.3073,2.35,2.3981,2.4115,2.3955,2.4315,2.4275,0.0,0.0,0.0,2.5571,2.6213,2.6613,2.6894,2.7482,2.7696,2.7669,2.7428,2.6974,2.6306,2.5184,2.493,2.4903,2.3901,2.3821,0.0,0.0,0.0,0.0,0.0,0.0,0.0,0.0,0.0,2.2432,0.0,0.0,0.0,2.1483,2.151,2.167,2.2325,2.2939,2.3514,2.4062,2.4476,2.4863,2.5224,2.64,2.7121,2.6881,2.6841,2.6907,2.7081,2.7215,2.7495,2.8016,2.7843,2.7802,2.7963,2.803,2.803,2.7976,2.7976,2.7976,2.7976,2.7976,2.7856,2.7615,2.7856,2.7883,2.7709,2.7949,2.8083,2.8136,2.8136,2.8136,2.8136,2.8136,2.6758,2.4691,2.4166,2.3824,2.3126,2.0702,1.8627,1.7071,2.0641,2.0628,2.0668,2.0628,2.2238,2.3873,2.503,2.7777,2.9613,2.9143,2.6822,2.5264,2.501,0.0,0.0,0.0,0.0,0.0,2.4422,2.346,2.2619,2.2058,2.2245,2.1991,2.1176,2.1697,2.2218,2.2712,2.2819,2.3287,2.4102,2.4168,2.4329,2.4516,2.4075,2.4115,0.0,0.0,2.4743,2.5585,2.644,2.6787,2.6894,2.7482,2.7696,2.7696,2.7669,2.7268,2.664,2.5718,2.5264,2.501,0.0,2.4182,2.3968,2.4756,0.0,0.0,0.0,0.0,0.0,2.4022,2.4249,2.4302,2.2686,0.0,2.2098,2.1643,0.0,2.1109,2.0949,0.0,0.0,2.0895,2.2325,2.3367,2.2886,2.342,2.4235,2.5211,2.5331,2.5638,2.6413,2.6052,2.6319,2.7642,2.6787,2.6547,2.7321,2.7615,2.7629,2.7375,2.7362,2.7362,2.7362,2.7362,2.7348,2.7321,2.7348,2.7482,2.7696,2.7736,2.7896,2.8136,2.8136,2.8136,2.8136,2.8136,2.6758,2.4508,2.2428,2.0356,1.8279,1.6034,1.4999,1.4646,2.0735,2.0815,0.0,2.0708,2.1961,2.3536,2.4964,2.7551,2.9139,2.8811,2.7535,2.6547,0.0,0.0,0.0,0.0,0.0,2.4356,0.0,0.0,2.3354,2.3273,2.3233,2.2953,2.2405,2.2806,2.306,2.3126,2.3474,2.3834,2.4209,2.4382,2.4436,2.4369,2.3955,0.0,2.4142,0.0,2.4609,2.5331,2.6213,2.6667,2.6907,2.7669,2.7963,2.7909,2.7575,2.7295,2.6921,2.5865,2.5545,2.5478,2.4836,2.4476,0.0,2.4716,0.0,0.0,0.0,0.0,2.485,2.4182,2.4048,2.3821,2.2886,2.2405,2.2098,2.1857,0.0,0.0,0.0,0.0,0.0,0.0,2.1336,2.1697,2.1443,2.1483,2.2164,2.3861,2.3754,2.3888,2.4783,2.4796,2.5077,2.5865,2.5625,2.5758,2.6466,2.6947,2.7215,2.7268,2.7268,2.7268,2.7268,2.7268,2.7175,2.7014,2.7188,2.7335,2.7455,2.7629,2.7856,2.8136,2.8136,2.8136,2.8136,2.8136,2.6054,2.2611,2.1566,1.9836,1.7588,1.5168,1.4299,1.4299,0.0,0.0,0.0,2.0828,2.2005,2.3714,2.5901,2.7425,2.8384,2.8325,2.7602,0.0,2.7776,2.7108,0.0,0.0,2.6186,2.5384,0.0,0.0,2.3968,2.3607,2.3941,0.0,2.2979,2.3567,2.3821,2.3688,2.4115,2.4369,2.4449,2.4663,2.4596,2.4302,2.4022,2.3981,2.4155,0.0,2.4943,2.5625,2.6426,2.6921,2.7241,2.7802,2.807,2.8083,2.7655,2.7402,2.7121,2.6186,2.5959,2.5932,2.513,2.4823,2.4743,2.4663,0.0,0.0,2.4476,2.4756,2.4863,2.4342,2.3888,2.346,2.3073,2.2592,2.2178,2.2017,2.1884,0.0,0.0,0.0,2.0695,2.0748,0.0,2.0414,2.0321,1.9987,2.0401,2.2151,2.2325,2.2659,2.3567,2.3541,2.3741,2.4356,2.4222,2.4516,2.5424,2.6026,2.652,2.6894,2.6987,2.7028,2.7028,2.7028,2.6921,2.6707,2.6921,2.7068,2.7148,2.7442,2.7696,2.7909,2.807,2.8096,2.803,2.811,2.5361,2.1221,2.1221,1.9488,1.6553,1.4999,1.4299,1.4299,2.1149,2.1096,0.0,0.0,2.2979,2.562,2.8549,2.8473,2.8089,2.8714,2.7689,0.0,0.0,0.0,0.0,0.0,0.0,2.6159,2.6734,0.0,2.4142,2.2151,2.3968,2.4088,0.0,2.3447,2.4329,2.4596,2.4609,2.477,2.505,2.5064,2.4903,2.4609,2.4315,2.4502,2.5064,2.5344,2.5972,2.6814,2.7415,2.7843,2.807,2.7816,2.7896,2.8136,2.8123,2.7749,2.7215,2.6894,2.66,2.6266,2.5678,2.5291,2.501,2.4716,2.4623,2.4569,2.4289,2.505,2.5638,2.4489,2.4195,2.4022,2.3447,2.306,2.2672,2.2098,2.2205,2.2044,2.0895,2.0681,2.0494,0.0,1.9826,0.0,0.0,1.8905,1.8891,1.98,2.1149,2.2352,2.326,2.2311,2.2245,2.3688,2.2472,2.2432,2.4168,2.4823,2.5398,2.5985,2.6266,2.6413,2.6413,2.6413,2.6413,2.64,2.6413,2.656,2.6854,2.7148,2.7281,2.7321,2.7896,2.7976,2.7736,2.803,2.5361,2.1221,2.1221,1.8462,1.4476,1.4299,1.4299,1.4299,0.0,0.0,0.0,0.0,0.0,2.3798,2.5798,2.6566,2.7361,2.8786,2.8839,0.0,0.0,3.0474,3.0167,0.0,0.0,2.8123,2.7722,2.6774,0.0,2.4369,2.4997,2.4943,0.0,0.0,2.5117,2.5211,2.5211,2.5264,2.5358,2.517,2.513,2.517,2.4302,2.4356,0.0,0.0,0.0,2.6333,2.7308,2.8003,2.8417,2.811,2.8056,2.8096,2.7696,2.7428,2.7188,2.6707,2.6466,2.6293,2.5705,2.5451,2.5264,2.4783,2.4783,2.4903,2.481,2.5358,2.5718,2.4743,2.4636,2.4529,2.3554,2.3554,2.342,2.2231,2.2378,2.2352,2.1176,2.0802,2.0548,2.0147,1.976,1.9345,0.0,1.8263,1.8223,1.9118,2.0,2.0588,2.0695,2.0347,2.0388,2.1096,2.0855,2.1283,2.2659,2.3861,2.477,2.5358,2.5852,2.6199,2.6386,2.6386,2.6386,2.6386,2.6386,2.664,2.7108,2.7014,2.7188,2.7549,2.7562,2.7509,2.7415,2.7522,2.5699,2.2821,2.1294,1.8928,1.6074,1.4745,1.4299,1.4285,2.1724,0.0,0.0,0.0,0.0,0.0,2.4449,2.5985,0.0,0.0,2.9913,0.0,3.2946,0.0,3.1971,0.0,3.1236,2.9967,2.8551,2.803,0.0,2.5424,2.5758,0.0,0.0,0.0,0.0,0.0,2.5464,2.5571,2.5665,2.5264,2.5184,2.5331,2.4569,2.4543,2.5104,2.5518,2.5919,2.636,2.7428,2.803,2.8257,2.8056,2.8056,2.807,2.7482,2.7201,2.7054,2.6667,2.6413,2.6172,2.5785,2.5451,2.513,2.4743,2.485,2.5064,2.4957,2.5424,2.5772,2.4983,2.4943,2.4796,2.3728,2.3941,2.3968,2.2579,2.2605,2.2605,2.1737,2.1082,2.0615,2.0414,1.9813,1.9118,0.0,1.8076,1.8116,1.8704,1.9199,1.9452,1.9372,1.9372,1.9319,1.9185,1.9452,2.008,2.1149,2.1914,2.3054,2.4596,2.4853,2.5401,2.6239,2.6333,2.6386,2.6386,2.6386,2.6587,2.6947,2.6867,2.6974,2.7228,2.7255,2.7148,2.6961,2.7068,2.5275,2.2278,2.0942,1.8652,1.5724,1.4576,1.4136,1.4122,2.2084,0.0,0.0,0.0,2.2819,0.0,0.0,0.0,2.8404,0.0,3.0675,3.2211,3.3414,3.3253,3.3187,3.348,3.2959,3.1637,2.9366,2.9432,0.0,0.0,2.6306,2.6079,2.4356,0.0,0.0,0.0,0.0,2.5678,2.5945,2.5358,2.5077,2.5077,2.5064,2.5064,2.513,2.6279,2.6787,2.6921,2.7776,2.7963,2.7736,2.7682,2.7856,2.8043,2.7455,2.7068,2.6814,2.6787,2.6413,2.5959,2.5919,2.5331,2.4663,2.4663,2.4863,2.5037,2.4756,2.5304,2.5812,2.5224,2.5077,2.485,2.3995,2.4222,2.4302,2.3113,2.2873,2.2779,2.2432,2.1456,2.0681,2.0655,1.992,1.9038,1.8156,1.8303,1.8504,1.8531,1.8744,1.8998,1.9292,1.9305,1.8945,1.809,1.829,1.8824,1.9561,1.92,2.0415,2.3377,2.2949,2.3671,2.5634,2.5911,2.6056,2.607,2.6228,2.6228,2.6096,2.652,2.6653,2.6281,2.6974,2.6881,2.6386,2.6653,2.4118,2.017,2.017,1.7486,1.3797,1.3824,1.3824,1.3817,2.2605,2.306,2.3541,0.0,2.4142,2.4529,2.5184,0.0,0.0,0.0,3.2144,3.3587,3.5217,3.4736,3.4336,3.4416,3.3881,0.0,0.0,0.0,0.0,2.7789,2.7762,2.7188,2.5852,2.6253,0.0,2.6052,0.0,2.5879,2.5945,2.5358,2.5077,2.5064,2.485,2.4756,2.4796,2.5531,2.6346,2.7188,2.7629,2.8043,2.827,2.7388,2.7362,2.7736,2.7148,2.6894,2.676,2.6319,2.6079,2.5879,2.5438,2.5144,2.497,2.497,2.517,2.5384,2.5304,2.5611,2.5812,2.5224,2.5077,2.4903,2.4249,2.4369,2.4302,2.3113,2.3046,2.2913,2.1951,2.1349,2.0855,2.0414,1.9613,1.8878,1.8437,1.8437,1.8651,1.9092,1.8624,1.8384,1.8691,1.8504,1.8183,1.7742,1.7769,1.7655,1.7264,1.8214,1.8753,1.8816,1.9572,2.0296,2.132,2.1386,2.1508,2.1523,2.314,2.3246,2.1948,2.5097,2.5762,2.4392,2.5766,2.6213,2.6052,2.5905,2.4259,2.1705,2.0126,1.6825,1.3227,1.3559,1.3614,1.3498,2.3033,2.3754,0.0,2.4943,0.0,2.644,2.664,2.7989,2.9633,3.1436,3.2919,0.0,3.5191,3.5204,3.5097,3.4963,3.4416,0.0,3.2612,0.0,0.0,2.9245,2.8644,2.7789,2.66,2.636,0.0,2.6012,0.0,2.5585,2.5945,2.5224,2.4957,2.5064,2.477,2.4716,2.4877,2.5598,2.6493,2.7455,2.7495,2.7709,0.0,2.7134,2.6947,2.7081,2.6747,2.664,2.6587,2.6253,2.6066,2.5919,2.5718,2.5478,2.5291,2.5424,2.5585,2.5678,2.5545,2.5732,2.5812,2.5224,2.517,2.5077,2.4369,2.4329,2.4222,2.342,2.2979,2.2579,2.2031,2.1376,2.0735,2.0134,1.9519,1.9011,1.8718,1.8798,1.8945,1.9145,1.8851,1.8584,1.8504,1.7969,1.7515,1.7221,1.6794,1.6316,1.5944,1.5964,1.6247,1.6727,1.7253,1.8143,1.9284,1.9682,1.9735,1.9765,2.1147,2.1103,2.0252,2.3532,2.4357,2.3501,2.519,2.5879,2.5745,2.5451,2.3604,2.0659,1.7641,1.5011,1.2983,1.3166,1.3227,1.32,2.3487,0.0,0.0,0.0,0.0,2.8551,2.8551,2.9406,3.0515,3.1797,3.3507,3.4603,3.4603,3.5217,3.5525,3.5271,3.4683,3.3881,3.2853,3.2425,3.1583,3.0154,2.9325,2.8297,2.7028,2.6172,2.5718,0.0,0.0,2.5104,2.5879,2.4997,2.4743,2.501,2.4716,2.4716,2.5024,2.5905,2.672,2.7402,2.7268,2.7228,2.7228,2.6894,2.6627,2.644,2.64,2.6386,2.6386,2.6346,2.6159,2.5999,2.6213,2.5919,2.5571,2.5865,2.5932,2.5838,2.5585,2.5678,2.5705,2.5157,2.5211,2.5197,2.4436,2.4195,2.4075,2.3821,2.2846,2.2111,2.2325,2.1403,2.0441,1.9893,1.9559,1.9279,1.9025,1.9199,0.0,1.9065,1.9132,0.0,1.8584,1.7769,1.7128,1.6794,1.5756,1.514,1.4999,1.3545,1.3404,1.5297,1.5219,1.6215,1.7996,1.8591,1.8921,1.8814,1.9302,1.9228,1.9095,2.1845,2.2957,2.275,2.4905,2.5732,2.5438,2.4829,2.2094,1.7961,1.4411,1.2901,1.2888,1.2752,1.2786,1.2901,2.4315,0.0,0.0,0.0,0.0,2.8778,3.0434,3.2064,3.3213,3.3467,3.503,3.6126,3.6126,3.5832,3.5605,3.5551,3.4803,0.0,0.0,0.0,0.0,3.1049,3.0621,2.9619,2.7949,2.7281,2.6841,0.0,2.5531,2.5211,2.5571,2.469,2.4436,2.4703,2.4409,2.4302,2.4409,2.5291,2.5758,2.5959,2.6627,2.7041,2.7201,2.6667,2.6587,2.6707,2.648,2.6386,2.636,2.6106,2.5999,2.5919,2.5732,2.5598,2.5571,2.5865,2.5785,2.5585,2.5531,2.5371,2.5144,2.4796,2.4756,2.4743,2.4596,2.4195,2.3834,2.3781,2.3006,2.2285,2.2098,2.1096,2.0201,1.9853,1.9559,1.9345,1.9292,1.9332,1.9439,1.9626,1.8838,1.8424,1.8811,1.825,1.7649,1.7114,1.5786,1.448,1.3132,1.2524,1.1896,1.1352,1.1963,1.2806,1.3767,1.3885,1.4128,1.4496,1.617,1.6187,1.4706,2.0544,2.2054,2.04,2.3965,2.5424,2.498,2.2992,1.9844,1.5897,1.3487,1.2583,1.2576,1.2549,1.2556,1.2583,2.5651,0.0,0.0,0.0,2.8991,3.0515,3.2118,3.3881,3.475,3.3988,3.475,3.5378,3.5378,3.5525,3.5631,3.5631,3.483,3.4322,3.4322,3.3334,3.2438,3.1717,3.0969,2.9953,2.8644,2.7428,2.6814,2.6827,2.5344,2.485,2.5277,2.4703,2.4342,2.4182,2.4035,2.4062,2.4249,2.4983,2.5464,2.5798,2.6373,2.6774,2.6987,2.6547,2.648,2.6587,2.644,2.6386,2.6373,2.6226,2.6186,2.6159,2.6012,2.5865,2.5772,2.5919,2.5745,2.5478,2.5331,2.5184,2.501,2.4716,2.4636,2.4596,2.4449,2.4195,2.3915,2.3607,2.2939,2.2231,2.1643,2.0815,2.0187,2.0054,1.9786,1.9546,1.9386,1.9239,1.9185,1.9332,1.8571,1.8156,1.8437,1.8063,1.7292,1.6238,1.4849,1.3277,1.169,1.1062,1.0528,1.0032,1.0914,1.1667,1.2257,1.2576,1.2881,1.3173,1.4297,1.4868,1.5185,1.9292,2.126,2.1298,2.2959,2.3643,2.3203,1.9876,1.7208,1.5234,1.3259,1.2501,1.2501,1.2501,1.2454,1.2406,0.0,2.7495,0.0,0.0,3.0862,3.2278,3.3267,3.4923,3.5685,3.4589,3.4696,3.4857,3.479,3.5351,3.5698,3.5631,3.483,3.4322,3.4322,3.332,3.2545,3.2118,3.1223,3.0234,2.9152,2.7575,2.6747,2.6734,2.5157,2.4556,2.489,2.4649,2.4235,2.3688,2.3808,2.3915,2.4062,2.4783,2.5344,2.5812,2.6226,2.6533,2.6694,2.6413,2.6333,2.6386,2.6319,2.6333,2.6373,2.6319,2.6333,2.6373,2.6239,2.6092,2.5945,2.5879,2.5651,2.5371,2.5144,2.5037,2.493,2.469,2.4636,2.4556,2.4262,2.4155,2.3968,2.3434,2.2792,2.2071,2.1256,2.0681,2.0334,2.0334,2.0027,1.972,1.9492,1.9199,1.8971,1.8851,1.8424,1.8063,1.7876,1.7635,1.6703,1.47,1.3583,1.2385,1.0759,0.9912,0.9578,0.972,1.0629,1.1348,1.1823,1.2366,1.2759,1.301,1.3085,1.4327,1.658,1.8513,2.0622,2.242,2.2154,2.1486,2.0342,1.6968,1.5234,1.4629,1.3077,1.2454,1.2454,1.242,1.2338,1.2257,0.0,0.0,2.9646,3.0822,3.2038,3.2986,3.336,3.4923,3.6126,3.6246,3.65,3.658,3.6326,3.6139,3.5925,3.5658,3.483,3.4322,3.4322,3.3694,3.2959,3.2144,3.1998,3.1156,2.9486,2.8484,2.7468,2.6426,2.5464,2.4756,2.4289,2.4262,2.3928,2.3394,2.3928,2.3888,2.3487,2.4609,2.5117,2.5237,2.6052,2.6413,2.64,2.6106,2.6159,2.636,2.6092,2.6159,2.6346,2.6092,2.6172,2.6293,2.5758,2.5758,2.5905,2.5638,2.5344,2.5117,2.509,2.489,2.4676,2.4649,2.4636,2.4556,2.4262,2.3995,2.3714,2.3394,2.2632,2.1844,2.1229,2.0855,2.0641,2.0641,2.016,1.9786,1.976,1.9506,1.9132,1.8597,1.8477,1.813,1.7315,1.7208,1.6024,1.2878,1.2822,1.2326,1.0759,0.9809,0.9266,0.9415,1.0426,1.1246,1.1823,1.2162,1.261,1.3152,1.3037,1.4165,1.6241,1.8455,2.0441,2.1907,2.2001,1.9701,1.6015,1.5701,1.4475,1.2797,1.2512,1.2311,1.2291,1.2155,1.2094,1.2088,3.0074,3.1596,3.3466,3.4751,3.5428,3.5991,3.7251,3.6642,3.6233,3.6714,3.6861,3.6754,3.6299,3.6139,3.5819,3.5164,3.4629,3.4242,3.4068,3.332,3.2732,3.2385,3.1864,3.0996,2.9766,2.8871,2.7749,2.6386,2.5865,2.5211,2.4462,2.4289,2.3794,2.3073,2.3487,2.3647,2.3661,2.4663,2.5184,2.5398,2.6106,2.6386,2.6373,2.6266,2.6186,2.6119,2.5999,2.5919,2.5825,2.5531,2.5745,2.6052,2.5638,2.5478,2.5411,2.5291,2.505,2.481,2.481,2.473,2.4636,2.4636,2.4636,2.4516,2.4048,2.3981,2.3848,2.318,2.2485,2.1857,2.1456,2.0989,2.0615,2.0441,2.0067,1.9733,1.9559,1.9132,1.8691,1.825,1.7742,1.7275,1.6914,1.6887,1.5781,1.2975,1.2779,1.1709,0.9381,0.9012,0.9042,0.9367,1.0141,1.0873,1.1558,1.1959,1.2454,1.3044,1.299,1.4777,1.8116,1.8947,1.9429,1.9778,1.8551,1.6365,1.3722,1.3722,1.3209,1.2372,1.2311,1.2237,1.2149,1.2088,1.2006,1.1911,3.273,3.458,3.661,3.878,3.9256,3.9381,3.9868,3.844,3.6991,3.674,3.6727,3.654,3.6112,3.5925,3.5525,3.483,3.4416,3.4108,3.3895,3.312,3.2639,3.2545,3.1864,3.1036,3.0074,2.9272,2.8136,2.6653,2.6186,2.5464,2.4502,2.4209,2.3741,2.314,2.3541,2.3821,2.4075,2.4877,2.5371,2.5692,2.6186,2.6386,2.6373,2.6293,2.6186,2.6066,2.5892,2.5745,2.5585,2.5211,2.5358,2.5651,2.5344,2.517,2.5064,2.497,2.4796,2.4636,2.4636,2.4636,2.4636,2.4636,2.4569,2.4382,2.3888,2.3861,2.3688,2.2792,2.2205,2.1764,2.1483,2.1015,2.0601,2.0401,2.004,1.9733,1.9519,1.8985,1.8504,1.8196,1.7609,1.7128,1.686,1.6531,1.527,1.2961,1.2265,1.0861,0.8501,0.8642,0.894,0.93,0.9985,1.0683,1.1382,1.1837,1.2345,1.2895,1.2895,1.4836,1.8413,1.8661,1.8404,1.7663,1.6151,1.4322,1.2501,1.2454,1.2379,1.2284,1.2189,1.2088,1.1986,1.1945,1.1837,1.1687,3.6327,3.7237,3.8675,4.2635,4.3285,4.2399,4.0121,3.9763,3.8961,3.6856,3.6259,3.6086,3.6072,3.5551,3.5084,3.479,3.4229,3.3895,3.3881,3.3307,3.2839,3.2559,3.2251,3.1543,3.0381,2.978,2.8751,2.7255,2.6386,2.5358,2.4209,2.3915,2.3768,2.3781,2.4369,2.4623,2.4663,2.5251,2.5678,2.5972,2.6266,2.6386,2.636,2.6079,2.6132,2.6306,2.5732,2.5705,2.5865,2.5277,2.5077,2.5037,2.4743,2.485,2.5024,2.473,2.4636,2.4636,2.4636,2.4636,2.4636,2.4636,2.4422,2.4128,2.3834,2.3541,2.3086,2.2178,2.1764,2.147,2.1162,2.0869,2.0681,2.0668,2.0174,1.98,1.98,1.9292,1.8811,1.8517,1.8477,1.8116,1.7235,1.5994,1.4424,1.2525,1.107,0.9816,0.8797,0.8852,0.9001,0.915,1.0025,1.0778,1.1389,1.1837,1.2284,1.2732,1.2732,1.3818,1.5983,1.7769,1.7512,1.554,1.554,1.4322,1.2488,1.2352,1.2291,1.2257,1.1952,1.1837,1.1816,1.1674,1.1531,1.1396,3.7969,4.1388,4.4557,4.6163,4.4921,4.3403,4.2933,3.9862,3.7275,3.6423,3.6126,3.5992,3.5792,3.5431,3.5004,3.4509,3.4108,3.3801,3.3574,3.3013,3.2639,3.2545,3.2064,3.1356,3.0381,2.998,2.8951,2.7268,2.6987,2.6146,2.481,2.4917,2.4636,2.4102,2.4877,2.5237,2.5277,2.5865,2.6159,2.6266,2.636,2.6386,2.6373,2.6293,2.6186,2.6039,2.5651,2.5451,2.5304,2.4903,2.4783,2.4756,2.4663,2.4703,2.4756,2.4663,2.4636,2.4636,2.4636,2.4636,2.4636,2.4636,2.4422,2.4075,2.3581,2.2926,2.2325,2.2044,2.175,2.1523,2.143,2.0842,2.0374,2.0374,1.988,1.9439,1.9225,1.8865,1.8437,1.7929,1.7702,1.7382,1.6901,1.6714,1.5475,1.2951,1.2529,1.1195,0.8666,0.8798,0.9144,0.9591,1.0283,1.0934,1.1538,1.1993,1.2393,1.2732,1.2732,1.3818,1.5819,1.6239,1.6142,1.5378,1.3908,1.2956,1.2345,1.2196,1.2074,1.1959,1.1762,1.1687,1.1653,1.1402,1.1341,1.1362,4.1288,4.4687,4.7562,4.9083,4.7048,4.4971,4.4367,4.0438,3.7408,3.6288,3.5885,3.5712,3.5631,3.5177,3.4723,3.4349,3.3948,3.3627,3.3427,3.2973,3.2666,3.2545,3.2091,3.1423,3.0541,3.0127,2.9272,2.7936,2.7268,2.636,2.5251,2.5317,2.5117,2.473,2.5504,2.5838,2.5879,2.6346,2.6493,2.6386,2.6386,2.6386,2.6386,2.6386,2.6213,2.5932,2.5745,2.5491,2.5197,2.4903,2.4796,2.4783,2.4676,2.4636,2.4636,2.4636,2.4636,2.4636,2.4636,2.4636,2.4636,2.4636,2.4342,2.3861,2.314,2.2378,2.1817,2.1817,2.159,2.139,2.139,2.0748,2.0227,2.0227,1.9746,1.9265,1.8958,1.8677,1.8384,1.8116,1.7836,1.7622,1.7542,1.6617,1.5244,1.3372,1.233,1.0822,0.8676,0.883,0.9327,0.9802,1.046,1.109,1.1694,1.2094,1.2413,1.2644,1.2589,1.3176,1.4546,1.4365,1.4286,1.4127,1.2842,1.2203,1.2189,1.204,1.1884,1.1735,1.1592,1.1497,1.1423,1.1233,1.1185,1.1199,4.602,4.7328,4.841,5.1095,4.9393,4.697,4.4511,4.1656,3.9085,3.6813,3.5764,3.5311,3.5751,3.4817,3.4309,3.4295,3.3748,3.3414,3.3414,3.312,3.2826,3.2559,3.2225,3.165,3.0808,3.0194,2.9579,2.8951,2.7268,2.6159,2.5598,2.5331,2.5344,2.5625,2.6199,2.6453,2.6466,2.672,2.6667,2.6413,2.6413,2.6413,2.6413,2.6413,2.6253,2.6012,2.5972,2.5785,2.5491,2.5184,2.5077,2.5024,2.473,2.4636,2.4636,2.4636,2.4649,2.4663,2.4663,2.4676,2.469,2.4676,2.4182,2.3487,2.2619,2.1951,2.1523,2.1523,2.1296,2.1109,2.1109,2.0628,2.0227,2.0227,1.9746,1.9252,1.8945,1.8677,1.8611,1.8838,1.8637,1.8597,1.8865,1.6113,1.4085,1.3573,1.1021,0.9273,0.8686,0.9164,0.9564,0.9863,1.0595,1.126,1.1843,1.2149,1.2366,1.2488,1.2352,1.2284,1.2271,1.2128,1.206,1.206,1.2054,1.204,1.202,1.1864,1.1714,1.1572,1.1423,1.128,1.1158,1.1138,1.1056,1.0948,4.6969,4.8927,5.082,5.2087,5.0209,4.8208,4.758,4.3463,4.0876,4.1421,3.8149,3.6197,3.7837,3.5775,3.4229,3.4015,3.3627,3.3414,3.3414,3.2933,3.2612,3.2545,3.1824,3.1236,3.0808,2.9993,2.9072,2.8016,2.7375,2.6867,2.6507,2.644,2.6453,2.6533,2.6894,2.7054,2.7041,2.6894,2.6787,2.672,2.672,2.672,2.672,2.672,2.668,2.656,2.6119,2.5919,2.5772,2.5251,2.5077,2.5024,2.473,2.4636,2.4636,2.4636,2.4796,2.497,2.497,2.513,2.5251,2.5024,2.4022,2.2966,2.2512,2.179,2.1216,2.1216,2.1162,2.1109,2.1109,2.0628,2.0227,2.0227,1.9746,1.9185,1.8664,1.8731,1.8677,1.8277,1.8384,1.8517,1.8584,1.6806,1.5197,1.4127,1.2135,1.0547,0.9359,0.9513,0.9921,1.0216,1.0839,1.1538,1.2006,1.2305,1.2413,1.2338,1.2305,1.223,1.2115,1.2081,1.206,1.2054,1.1938,1.1823,1.1714,1.1558,1.1409,1.1253,1.1111,1.1097,1.1131,1.0907,1.088,1.0928,4.8946,5.0413,5.1582,5.2051,5.0022,4.8213,4.8051,4.4623,4.2517,4.3214,4.0837,3.9197,3.9046,3.7374,3.5647,3.4299,3.3668,3.3414,3.3414,3.2986,3.2679,3.2559,3.1957,3.137,3.0808,3.006,2.9098,2.7896,2.7602,2.7388,2.7215,2.7081,2.7028,2.7041,2.7335,2.7388,2.7268,2.7241,2.7068,2.6827,2.6974,2.6867,2.664,2.6774,2.6653,2.64,2.6226,2.6066,2.5892,2.5438,2.5371,2.5384,2.481,2.4823,2.4983,2.4716,2.485,2.5077,2.5077,2.5291,2.5384,2.4823,2.3875,2.2953,2.2512,2.1844,2.1309,2.1309,2.1203,2.1109,2.1109,2.0628,2.0227,2.0227,1.9626,1.9011,1.8557,1.8624,1.8651,1.845,1.8704,1.8643,1.8184,1.6669,1.5087,1.3358,1.1894,1.0492,0.9513,0.8443,0.7755,0.7742,0.9991,1.1456,1.1979,1.2196,1.2298,1.2291,1.2149,1.2033,1.1952,1.1891,1.1823,1.1748,1.1667,1.1545,1.1402,1.1321,1.1199,1.1056,1.0982,1.0955,1.0941,1.0778,1.0772,1.0819,5.1017,5.1426,5.1445,5.1523,4.979,4.8453,4.8124,4.6119,4.4548,4.4581,4.3723,4.2474,4.0543,3.9221,3.7461,3.498,3.391,3.3414,3.3414,3.3093,3.2799,3.2559,3.2171,3.1583,3.0742,3.006,2.9205,2.8136,2.7843,2.7696,2.7696,2.7442,2.7335,2.7348,2.7629,2.7629,2.7415,2.7615,2.7415,2.6974,2.7228,2.7028,2.6613,2.6814,2.6587,2.6172,2.6333,2.6226,2.5972,2.5678,2.5745,2.5812,2.5024,2.5117,2.5411,2.4917,2.4983,2.5197,2.5104,2.5264,2.5264,2.4462,2.3794,2.318,2.2619,2.2031,2.1603,2.1563,2.1349,2.1162,2.1122,2.0628,2.0227,2.0227,1.9492,1.8712,1.8184,1.8184,1.8302,1.8538,1.8622,1.8433,1.769,1.6,1.4128,1.2482,1.101,1.0069,0.9627,0.6832,0.486,0.3816,0.8745,1.1592,1.1911,1.2013,1.2115,1.2216,1.1959,1.1809,1.1762,1.164,1.1504,1.1355,1.1355,1.1267,1.1131,1.1131,1.1043,1.0914,1.0914,1.0833,1.0717,1.0717,1.0717,1.0697,5.1231,5.1426,5.1543,5.1914,5.1618,5.144,5.1382,4.9144,4.8016,4.9863,4.6153,4.3691,4.506,4.112,3.8059,3.6912,3.4826,3.3414,3.3414,3.2906,3.2599,3.2545,3.1784,3.1062,3.0434,2.9366,2.8591,2.8136,2.7843,2.7696,2.7696,2.7655,2.7629,2.7642,2.7936,2.8043,2.7989,2.7789,2.7642,2.7562,2.7615,2.7575,2.7468,2.7268,2.7148,2.7001,2.6547,2.636,2.6279,2.5985,2.5919,2.5892,2.5504,2.5438,2.5491,2.5398,2.5585,2.5718,2.5211,2.5117,2.505,2.4663,2.3941,2.3233,2.2873,2.2338,2.1844,2.1603,2.151,2.1403,2.1162,2.0628,2.0227,2.0227,1.9492,1.8346,1.6794,1.6726,1.6882,1.7032,1.6161,1.6067,1.7468,1.4883,1.3061,1.2783,1.1202,1.0324,1.029,0.6931,0.3694,0.0802,0.7697,1.1681,1.1904,1.206,1.2006,1.1904,1.185,1.1701,1.1457,1.1436,1.1341,1.1199,1.1199,1.1118,1.0982,1.0982,1.0894,1.0758,1.0758,1.0744,1.0717,1.0717,1.0717,1.0697,5.1426,5.1426,5.1504,5.1699,5.1738,5.1738,5.1738,5.07,5.0231,5.1251,4.9199,4.7346,4.6572,4.2954,3.9657,3.7596,3.5067,3.3414,3.3414,3.2866,3.2545,3.2545,3.1851,3.1049,3.014,2.9285,2.8617,2.8136,2.8003,2.7936,2.7936,2.7936,2.7936,2.7949,2.8083,2.8136,2.8136,2.7989,2.7843,2.7709,2.7869,2.7749,2.7455,2.7321,2.7161,2.6974,2.6547,2.6386,2.6346,2.6052,2.6066,2.6106,2.5651,2.5732,2.5919,2.5598,2.5611,2.5692,2.5585,2.5317,2.497,2.4516,2.3981,2.3447,2.2966,2.2525,2.2178,2.2044,2.1764,2.151,2.1376,2.0735,2.0281,2.0441,1.8867,1.7399,1.6724,1.5892,1.5418,1.5666,1.537,1.5282,1.5376,1.4024,1.2718,1.1773,1.0862,1.0432,1.0397,0.8688,0.5423,0.0134,0.5411,0.9303,1.1583,1.1626,1.1586,1.1592,1.1511,1.1402,1.1267,1.1267,1.1185,1.105,1.105,1.0962,1.0826,1.0826,1.0785,1.0717,1.0717,1.0717,1.0717,1.0717,1.0717,1.0697,5.1406,5.1426,5.1426,5.1426,5.1426,5.1426,5.1426,5.1426,5.1426,5.1426,5.0745,4.9698,4.7692,4.4315,4.1178,3.8675,3.5877,3.3987,3.3414,3.2866,3.2545,3.2545,3.1717,3.0835,2.994,2.9205,2.8604,2.8136,2.8136,2.8136,2.8136,2.8136,2.8136,2.8136,2.8136,2.8136,2.8136,2.8136,2.8003,2.7816,2.8056,2.7869,2.7468,2.7388,2.7228,2.6974,2.6613,2.6493,2.6453,2.6159,2.6199,2.6306,2.5865,2.6026,2.6293,2.5772,2.5518,2.5478,2.5772,2.5424,2.4836,2.4249,2.3941,2.3607,2.3006,2.2686,2.2498,2.2432,2.2071,2.171,2.1577,2.0935,2.0468,2.0561,1.8414,1.6576,1.648,1.4997,1.4048,1.4298,1.4421,1.4159,1.3629,1.3144,1.2273,1.0953,1.0683,1.0622,1.0551,1.0518,0.7181,0.0268,0.2745,0.6434,1.1094,1.1101,1.1226,1.1335,1.1219,1.1145,1.1111,1.1111,1.1029,1.0894,1.086,1.0778,1.0663,1.0629,1.0616,1.0622,1.0656,1.067,1.067,1.0711,1.0717,1.0697,5.1367,5.1426,5.1426,5.1426,5.1426,5.1426,5.1426,5.1426,5.1426,5.1426,4.9057,4.7868,4.9664,4.5115,4.1601,4.1029,3.8457,3.5932,3.3614,3.2866,3.2545,3.2545,3.0942,3.0007,2.9913,2.8791,2.819,2.8136,2.8136,2.8136,2.8136,2.8136,2.8136,2.8136,2.8136,2.8136,2.8136,2.8136,2.8136,2.811,2.8136,2.8123,2.8043,2.7776,2.7655,2.7562,2.6987,2.6787,2.6747,2.6453,2.6373,2.6386,2.6333,2.6346,2.6333,2.6012,2.5545,2.517,2.5464,2.5117,2.4529,2.3941,2.3781,2.3607,2.3006,2.2846,2.2752,2.2472,2.2392,2.2191,2.1657,2.1269,2.0869,2.0347,1.8493,1.6623,1.4986,1.3323,1.2597,1.3207,1.1896,1.174,1.3551,1.2361,1.1269,1.1131,1.0995,1.0975,1.1111,1.0907,0.7397,0.0269,0.0273,0.3728,1.0689,1.0942,1.106,1.1179,1.1165,1.109,1.0962,1.0962,1.088,1.0731,1.0588,1.0521,1.05,1.0365,1.031,1.0324,1.046,1.0507,1.0527,1.067,1.0717,1.0697,5.1406,5.1426,5.1426,5.1426,5.1426,5.1426,5.1426,5.1426,5.0726,4.8843,4.7681,4.6943,4.7283,4.4132,4.2328,4.3487,3.9787,3.6815,3.5658,3.389,3.2572,3.2024,3.1009,3.0287,2.9927,2.9112,2.8511,2.8136,2.8136,2.8136,2.8136,2.8136,2.8136,2.8136,2.8136,2.8136,2.8136,2.8136,2.8136,2.8136,2.8136,2.8136,2.811,2.7816,2.7696,2.7642,2.7241,2.6974,2.68,2.6694,2.6533,2.6386,2.6386,2.6386,2.6333,2.6039,2.5665,2.5331,2.5264,2.4943,2.4543,2.4142,2.3901,2.3661,2.3247,2.3006,2.2832,2.2712,2.2552,2.2352,2.2124,2.1697,2.0913,1.9661,1.7725,1.5722,1.4033,1.2331,1.1438,1.1666,1.1305,1.1344,1.2249,1.1544,1.1063,1.1158,1.0941,1.0873,1.1023,0.8747,0.5166,0.0136,0.4346,0.6935,0.7369,0.9691,1.0779,1.0887,1.0887,1.086,1.0806,1.0806,1.0772,1.0711,1.0561,1.0493,1.048,1.0337,1.0331,1.0419,1.0473,1.0493,1.0514,1.0663,1.0663,1.0568,5.1406,5.1426,5.1426,5.1426,5.1426,5.1426,5.1426,5.0627,4.9441,4.7234,4.6074,4.5559,4.5688,4.394,4.3365,4.4814,4.1716,3.8916,3.7162,3.4479,3.2532,3.1837,3.1062,3.0421,2.9927,2.9259,2.8657,2.8136,2.8136,2.8136,2.8136,2.8136,2.8136,2.8136,2.8136,2.8136,2.8136,2.8136,2.8136,2.8136,2.8136,2.8136,2.8123,2.7909,2.7843,2.7802,2.7509,2.7215,2.6947,2.6854,2.6627,2.6386,2.6386,2.6266,2.6052,2.5772,2.5531,2.5317,2.5024,2.4863,2.4676,2.4302,2.4062,2.3834,2.3527,2.3233,2.3006,2.3006,2.2766,2.2525,2.2432,2.2098,2.1228,1.9185,1.7228,1.5404,1.3524,1.1881,1.0914,1.107,1.1172,1.1294,1.145,1.1233,1.1124,1.1226,1.0962,1.0846,1.0968,0.8644,0.6176,0.3435,0.8163,0.9588,0.7107,0.9534,1.0744,1.0717,1.0717,1.0717,1.0717,1.0717,1.0717,1.0711,1.0514,1.0426,1.0412,1.027,1.0236,1.029,1.0385,1.0399,1.0378,1.0575,1.0582,1.0493,5.1348,5.1426,5.1426,5.1426,5.1426,5.1426,5.1426,4.9199,4.7239,4.6824,4.4043,4.3079,4.546,4.5237,4.4984,4.4984,4.4984,4.2863,3.7674,3.4395,3.2412,3.2118,3.0982,3.0221,2.9927,2.9058,2.8457,2.815,2.8136,2.8136,2.8136,2.8136,2.8136,2.8136,2.8136,2.8136,2.8136,2.8136,2.8136,2.8136,2.8136,2.8136,2.8136,2.8136,2.8136,2.8096,2.7802,2.7509,2.7228,2.6921,2.6627,2.6386,2.6386,2.5985,2.5451,2.517,2.5077,2.5024,2.4716,2.485,2.4943,2.4356,2.4209,2.4128,2.3834,2.3541,2.3327,2.3327,2.3086,2.2779,2.2472,2.2418,2.1551,1.9125,1.7518,1.5837,1.3629,1.2149,1.1219,1.1375,1.1396,1.145,1.1606,1.1484,1.1389,1.1389,1.1118,1.0975,1.1173,1.1481,1.1358,1.0652,1.065,1.0678,1.0751,1.0751,1.0744,1.0717,1.0717,1.0717,1.0717,1.0717,1.0717,1.0704,1.0412,1.0283,1.027,1.0114,0.9958,0.9856,1.0161,1.0181,1.0086,1.0378,1.0487,1.0487,5.1348,5.1426,5.1426,5.1426,5.1426,5.1426,5.1426,4.8955,4.6217,4.4025,4.267,4.2107,4.2511,4.392,4.5773,4.7493,4.613,4.2863,3.7674,3.4395,3.2505,3.2412,3.1289,3.0528,3.0234,2.9366,2.8764,2.847,2.8243,2.8136,2.8136,2.8136,2.8136,2.8136,2.8136,2.8136,2.8136,2.8136,2.8136,2.8123,2.7909,2.7829,2.7829,2.7829,2.7829,2.7816,2.7736,2.7509,2.7228,2.6921,2.6627,2.6386,2.6386,2.5985,2.5531,2.5665,2.5398,2.5064,2.497,2.501,2.4983,2.4596,2.4356,2.4182,2.4102,2.3848,2.3581,2.3367,2.3247,2.31,2.2792,2.1607,2.0102,1.7852,1.6089,1.419,1.2219,1.1566,1.1382,1.1531,1.1552,1.1565,1.1613,1.1382,1.1274,1.1382,1.1233,1.1111,1.0926,1.1289,1.1303,1.0652,1.0846,1.088,1.0758,1.0751,1.0744,1.0717,1.0717,1.0717,1.0717,1.0717,1.0717,1.0711,1.0514,1.0371,1.027,1.0114,1.0025,0.9992,1.008,1.0093,1.0073,1.027,1.0344,1.0331,5.0879,5.1074,5.1172,5.1172,5.1328,5.1426,5.1426,4.8993,4.6413,4.4281,4.3632,4.3289,4.2741,4.5002,4.7139,4.8663,4.5567,4.2099,3.9026,3.4966,3.2545,3.2545,3.153,3.0768,3.0368,2.9499,2.8898,2.8604,2.8297,2.8136,2.8136,2.8136,2.8136,2.8136,2.8136,2.8136,2.8136,2.8136,2.8136,2.8123,2.7816,2.7696,2.7696,2.7696,2.7629,2.7549,2.7655,2.7442,2.7068,2.6881,2.6627,2.6346,2.6119,2.5798,2.5504,2.5451,2.5264,2.5077,2.5077,2.5077,2.5037,2.4863,2.4596,2.4369,2.4369,2.4155,2.3861,2.3567,2.35,2.3087,2.1961,2.0979,1.9273,1.638,1.4955,1.3568,1.1761,1.1484,1.1518,1.1606,1.1619,1.1619,1.1619,1.1341,1.1158,1.1138,0.9817,0.9513,1.0652,1.1084,1.1084,1.092,1.0948,1.0846,1.0744,1.0738,1.0731,1.0717,1.0717,1.0717,1.0717,1.0717,1.0683,1.0622,1.0473,1.0324,1.0181,1.0086,1.0012,0.9964,1.0025,1.0012,0.9978,1.0134,1.0188,1.0175,5.0176,5.0508,5.0801,5.0801,5.1152,5.1426,5.1426,4.9161,4.7059,4.6301,4.6175,4.585,4.5074,4.7307,4.8867,4.8867,4.4229,4.1139,4.1139,3.5745,3.2572,3.2545,3.1704,3.0969,3.0408,2.9526,2.8938,2.8644,2.831,2.8136,2.8136,2.8136,2.8136,2.8136,2.8136,2.8136,2.8136,2.8136,2.8123,2.8083,2.7776,2.7642,2.7615,2.7615,2.7455,2.7268,2.7522,2.7281,2.6814,2.676,2.6547,2.6213,2.5678,2.5518,2.5411,2.4863,2.489,2.509,2.5117,2.5077,2.505,2.5077,2.4863,2.4636,2.4636,2.4409,2.4115,2.3834,2.3754,2.2975,2.0575,2.011,1.8899,1.5017,1.429,1.3587,1.19,1.1619,1.1619,1.1619,1.1619,1.1619,1.1619,1.1355,1.1063,1.0778,0.7522,0.704,1.0483,1.0786,1.09,1.1152,1.086,1.0751,1.0717,1.0717,1.0717,1.0717,1.0717,1.0711,1.0697,1.0697,1.0616,1.0466,1.0337,1.0195,1.0046,1.0046,0.9958,0.9836,0.9971,0.9944,0.9836,0.9978,1.0039,1.0046,5.0117,5.0508,5.0801,5.0801,5.1152,5.1426,5.1426,4.8918,4.693,4.6459,4.594,4.5561,4.5038,4.7307,4.8867,4.8867,4.4229,4.1139,4.1139,3.5963,3.2786,3.2559,3.1704,3.1062,3.0702,2.9833,2.9245,2.8951,2.8404,2.8136,2.8136,2.8136,2.8136,2.8136,2.8136,2.8136,2.8136,2.8136,2.8003,2.7762,2.7482,2.7215,2.7014,2.7014,2.6974,2.6921,2.6987,2.6934,2.6747,2.6306,2.5945,2.5678,2.5558,2.5518,2.5491,2.5358,2.5211,2.513,2.5358,2.5077,2.4783,2.5024,2.4863,2.4636,2.4636,2.4409,2.4115,2.3834,2.3581,2.2728,2.0539,1.8843,1.7157,1.4716,1.3167,1.2043,1.1619,1.1619,1.1619,1.1619,1.1619,1.1619,1.1619,1.145,1.1192,1.0685,0.8407,0.8028,1.0617,1.0792,1.0914,1.0819,1.0873,1.0846,1.0724,1.0717,1.0717,1.0717,1.0717,1.0656,1.0541,1.0541,1.046,1.0324,1.0297,1.0195,1.0046,1.0046,0.9958,0.9822,0.9856,0.9849,0.9822,0.9856,0.9944,1.0046,4.9824,5.0215,5.0508,5.0508,5.1016,5.1426,5.1426,5.0026,4.8869,4.8268,4.8005,4.7629,4.699,4.8088,4.8867,4.8867,4.4229,4.1073,4.0892,3.5788,3.2639,3.2345,3.1757,3.1236,3.0808,3.0074,2.9472,2.9045,2.843,2.8136,2.8136,2.8136,2.8136,2.8136,2.8136,2.8136,2.8136,2.8136,2.8056,2.7869,2.7442,2.7175,2.7014,2.6881,2.6734,2.664,2.6774,2.664,2.6346,2.5892,2.5638,2.5518,2.5518,2.5518,2.5478,2.5344,2.5197,2.5117,2.5264,2.4983,2.4703,2.501,2.4863,2.4636,2.4636,2.4409,2.4115,2.3834,2.3647,2.2537,1.9284,1.8044,1.6529,1.3603,1.218,1.1619,1.1619,1.1619,1.1619,1.1619,1.1619,1.1558,1.1416,1.1328,1.1145,1.0672,0.8504,0.8246,1.0551,1.086,1.0839,1.0758,1.0812,1.0799,1.0717,1.0717,1.0683,1.0609,1.0609,1.0534,1.0392,1.0392,1.031,1.0168,1.0168,1.0086,0.9937,0.9937,0.989,0.9822,0.9822,0.9822,0.9822,0.9822,0.9869,0.9937,4.9648,4.998,5.0293,5.0293,5.0918,5.1426,5.1426,5.1367,5.1055,5.0273,5.0117,4.9766,4.8945,4.8867,4.8867,4.8867,4.4229,4.0991,4.0801,3.5541,3.2412,3.2118,3.177,3.1343,3.0808,3.0221,2.9633,2.9045,2.843,2.8136,2.8136,2.8136,2.8136,2.8136,2.8136,2.8136,2.8136,2.8136,2.811,2.803,2.7535,2.7308,2.7228,2.6934,2.668,2.6493,2.668,2.6373,2.5838,2.5598,2.5451,2.5371,2.5424,2.5478,2.5451,2.517,2.5117,2.5144,2.509,2.4863,2.4703,2.501,2.4863,2.4636,2.4636,2.4409,2.4115,2.3834,2.3469,2.1982,1.7903,1.7146,1.5947,1.2208,1.1619,1.1613,1.1586,1.1579,1.1572,1.1545,1.1545,1.1443,1.1185,1.1138,1.1023,1.0772,0.8839,0.8579,1.0525,1.0765,1.0751,1.0751,1.0731,1.0717,1.0717,1.0717,1.0643,1.0493,1.0493,1.0405,1.0243,1.0243,1.0154,1.0012,1.0012,0.9937,0.9822,0.9822,0.9822,0.9822,0.9822,0.9822,0.9822,0.9822,0.9822,0.9822,5.0098,5.043,5.0723,5.0723,5.1113,5.1426,5.1426,5.1113,5.0723,5.0234,4.9844,4.9414,4.8906,4.8867,4.8867,4.8867,4.4229,4.0991,4.0801,3.5541,3.2412,3.2118,3.1583,3.1129,3.0795,3.0221,2.9633,2.9045,2.843,2.8136,2.8136,2.8136,2.8136,2.8136,2.8136,2.8136,2.8136,2.8136,2.7989,2.7749,2.7669,2.7495,2.7228,2.6934,2.68,2.6734,2.652,2.6066,2.5571,2.5531,2.517,2.4796,2.505,2.5304,2.5451,2.517,2.5251,2.5398,2.5144,2.4863,2.4703,2.501,2.4863,2.4636,2.4636,2.4409,2.4115,2.3834,2.23,2.0387,1.7621,1.6016,1.4372,1.1928,1.1619,1.1572,1.1443,1.1423,1.1375,1.124,1.1226,1.1206,1.1165,1.105,1.0914,1.0765,1.0459,1.0326,1.0625,1.0738,1.0724,1.0724,1.0724,1.0717,1.0717,1.0717,1.0643,1.0493,1.0493,1.0344,1.008,1.008,0.9998,0.9849,0.9849,0.9842,0.9822,0.9822,0.9822,0.9822,0.9822,0.9822,0.9822,0.9822,0.9822,0.9822,5.0527,5.0683,5.0801,5.0801,5.1152,5.1426,5.1426,5.1074,5.0664,5.0234,4.9805,4.9355,4.8906,4.8867,4.875,4.8516,4.3892,4.0594,4.022,3.5177,3.2171,3.1877,3.161,3.1263,3.0808,3.0221,2.9633,2.9045,2.8617,2.831,2.8136,2.8136,2.8136,2.8136,2.8136,2.8136,2.8136,2.8136,2.807,2.7936,2.7762,2.7629,2.7468,2.7188,2.6961,2.676,2.6306,2.5985,2.5732,2.5571,2.5237,2.497,2.5424,2.5438,2.5277,2.5304,2.5291,2.5211,2.4917,2.473,2.4676,2.4796,2.473,2.4636,2.4636,2.4663,2.4556,2.4102,2.2256,1.9991,1.7928,1.5947,1.4091,1.1928,1.1619,1.1565,1.1409,1.1389,1.1335,1.1179,1.1165,1.1131,1.105,1.0989,1.0887,1.0744,1.0724,1.0724,1.0738,1.0724,1.0717,1.0717,1.0636,1.0595,1.0595,1.0514,1.0439,1.0371,1.0371,1.0263,1.0046,1.0046,1.0012,0.9944,0.9856,0.9869,0.9944,0.9856,0.9822,0.9822,0.9822,0.9822,0.9822,0.9822,0.9822,0.9822]}]]